[[{"header":{"parameterUnit":"m.s-1","parameterCategory":1,"la1":30.6,"la2":29.2853,"lo1":-89.7004,"lo2":-87.6739,"dy":0.0162,"dx":0.0183,"nx":112,"ny":82,"refTime":"2024-05-10T06:00:00:Z","depth":0,"parameterNumber":2,"parameterNumberName":"U-component_of_WINDS"},"data":[0.0,0.0,0.0,0.0,0.0,0.0,0.0,0.0,0.0,0.0,0.0,0.0,0.0,0.0,0.0,0.0,0.0,0.0,0.0,0.0,0.0,0.0,0.0,0.0,0.0,0.0,0.0,0.0,0.0,0.0,0.0,0.0,0.0,0.0,0.0,0.0,0.0,0.0,0.0,0.0,0.0,0.0,0.0,0.0,0.0,0.0,0.0,0.0,0.0,0.0,0.0,0.0,0.0,0.0,0.0,0.0,0.0,0.0,0.0,0.0,0.0,0.0,0.0,0.0,0.0,0.0,0.0,0.0,0.0,0.0,0.0,0.0,0.0,0.0,0.0,0.0,0.0,0.0,0.0,0.0,0.0,0.0,0.0,0.0,0.0,0.0,0.0,0.0,0.0,0.0,-1.1706,-1.0962,-1.1186,-1.1632,-1.2224,-1.2746,-1.282,-1.2298,0.0,0.0,0.0,0.0,0.0,0.0,0.0,0.0,0.0,0.0,0.0,0.0,0.0,0.0,0.0,0.0,0.0,0.0,0.0,0.0,0.0,0.0,0.0,0.0,0.0,0.0,0.0,0.0,0.0,0.0,0.0,0.0,0.0,0.0,0.0,0.0,0.0,0.0,0.0,0.0,0.0,0.0,0.0,0.0,0.0,0.0,0.0,0.0,0.0,0.0,0.0,0.0,0.0,0.0,0.0,0.0,0.0,0.0,0.0,0.0,0.0,0.0,0.0,0.0,0.0,0.0,0.0,0.0,0.0,0.0,0.0,0.0,0.0,0.0,0.0,0.0,0.0,0.0,0.0,0.0,0.0,0.0,0.0,0.0,0.0,0.0,0.0,0.0,0.0,0.0,0.0,0.0,0.0,0.0,0.0,0.0,0.0,0.0,0.0,0.0,0.0,0.0,0.0,0.0,-1.215,-1.2489,-1.2599,-1.2856,-1.347,-1.3615,-1.3615,-1.3535,0.0,0.0,0.0,0.0,0.0,0.0,0.0,0.0,0.0,0.0,0.0,0.0,0.0,0.0,0.0,0.0,0.0,0.0,0.0,0.0,0.0,0.0,0.0,0.0,0.0,0.0,0.0,0.0,0.0,0.0,0.0,0.0,0.0,0.0,0.0,0.0,0.0,0.0,0.0,0.0,0.0,0.0,0.0,0.0,0.0,0.0,0.0,0.0,0.0,0.0,0.0,0.0,0.0,0.0,0.0,0.0,0.0,0.0,0.0,0.0,0.0,0.0,0.0,0.0,0.0,0.0,0.0,0.0,0.0,0.0,0.0,0.0,0.0,0.0,0.0,0.0,0.0,0.0,0.0,0.0,0.0,0.0,0.0,0.0,0.0,0.0,0.0,0.0,0.0,0.0,0.0,0.0,0.0,0.0,0.0,0.0,0.0,0.0,0.0,0.0,0.0,0.0,0.0,-1.1335,-1.1632,-1.1892,-1.1929,-1.2187,-1.2769,-1.3105,-1.3178,-1.2842,-1.3142,0.0,0.0,0.0,0.0,0.0,0.0,0.0,0.0,0.0,0.0,0.0,0.0,0.0,0.0,0.0,0.0,0.0,0.0,0.0,0.0,0.0,0.0,0.0,0.0,0.0,0.0,0.0,0.0,0.0,0.0,0.0,0.0,0.0,0.0,0.0,0.0,0.0,0.0,0.0,0.0,0.0,0.0,0.0,0.0,0.0,0.0,0.0,0.0,0.0,0.0,0.0,0.0,0.0,0.0,0.0,0.0,0.0,0.0,0.0,0.0,0.0,0.0,0.0,0.0,0.0,0.0,0.0,0.0,0.0,0.0,0.0,0.0,0.0,0.0,0.0,0.0,0.0,0.0,0.0,0.0,0.0,0.0,0.0,0.0,0.0,0.0,0.0,0.0,0.0,0.0,0.0,0.0,0.0,0.0,0.0,0.0,0.0,0.0,0.0,0.0,0.0,0.0,-1.1111,-1.1135,-1.1202,-1.117,-1.1458,-1.213,-1.2624,-1.2635,-1.2144,-1.2516,0.0,0.0,0.0,0.0,0.0,0.0,0.0,0.0,0.0,0.0,0.0,0.0,0.0,0.0,0.0,0.0,0.0,0.0,0.0,0.0,0.0,0.0,0.0,0.0,0.0,0.0,0.0,0.0,0.0,0.0,0.0,0.0,0.0,0.0,0.0,0.0,0.0,0.0,0.0,0.0,0.0,0.0,0.0,0.0,0.0,0.0,0.0,0.0,0.0,0.0,0.0,0.0,0.0,0.0,0.0,0.0,0.0,0.0,0.0,0.0,0.0,0.0,0.0,0.0,0.0,0.0,0.0,0.0,0.0,0.0,0.0,0.0,0.0,0.0,0.0,0.0,0.0,0.0,0.0,0.0,0.0,0.0,0.0,0.0,0.0,0.0,0.0,0.0,0.0,0.0,0.0,0.0,0.0,0.0,0.0,0.0,0.0,0.0,0.0,0.0,0.0,0.0,-1.1111,-1.1214,-1.1435,-1.1465,-1.1834,-1.268,-1.2778,-1.2694,-1.2375,-1.2394,0.0,0.0,0.0,0.0,0.0,0.0,0.0,0.0,0.0,0.0,0.0,0.0,0.0,0.0,0.0,0.0,0.0,0.0,0.0,0.0,0.0,0.0,0.0,0.0,0.0,0.0,0.0,0.0,0.0,0.0,0.0,0.0,0.0,0.0,0.0,0.0,0.0,0.0,0.0,0.0,0.0,0.0,0.0,0.0,0.0,0.0,0.0,0.0,0.0,0.0,0.0,0.0,0.0,0.0,0.0,0.0,0.0,0.0,0.0,0.0,0.0,0.0,0.0,0.0,0.0,0.0,0.0,0.0,0.0,0.0,0.0,0.0,0.0,0.0,0.0,0.0,0.0,0.0,0.0,0.0,0.0,0.0,0.0,0.0,0.0,0.0,0.0,0.0,0.0,0.0,0.0,0.0,0.0,0.0,0.0,0.0,0.0,0.0,0.0,0.0,0.0,0.0,-1.1618,-1.1655,0.0,-1.1736,-1.201,-1.2751,-1.2803,-1.2752,-1.2674,0.0,0.0,0.0,0.0,0.0,0.0,0.0,0.0,0.0,0.0,0.0,0.0,0.0,0.0,0.0,0.0,0.0,0.0,0.0,0.0,0.0,0.0,0.0,0.0,0.0,0.0,0.0,0.0,0.0,0.0,0.0,0.0,0.0,0.0,0.0,0.0,0.0,0.0,0.0,0.0,0.0,0.0,0.0,0.0,0.0,0.0,0.0,0.0,0.0,0.0,0.0,0.0,0.0,0.0,0.0,0.0,0.0,0.0,0.0,0.0,0.0,0.0,0.0,0.0,0.0,0.0,0.0,0.0,0.0,0.0,0.0,0.0,0.0,0.0,0.0,0.0,0.0,0.0,0.0,0.0,0.0,0.0,0.0,0.0,0.0,0.0,0.0,0.0,0.0,0.0,0.0,0.0,0.0,0.0,0.0,0.0,0.0,0.0,0.0,0.0,0.0,0.0,-1.1902,-1.188,-1.1916,0.0,-1.2047,-1.2245,-1.2732,-1.2785,-1.2747,-1.2658,0.0,0.0,0.0,0.0,0.0,0.0,0.0,0.0,0.0,0.0,0.0,0.0,0.0,0.0,0.0,0.0,0.0,0.0,0.0,0.0,0.0,0.0,0.0,0.0,0.0,0.0,0.0,0.0,0.0,0.0,0.0,0.0,0.0,0.0,0.0,0.0,0.0,0.0,0.0,0.0,0.0,0.0,0.0,0.0,0.0,0.0,0.0,0.0,0.0,0.0,0.0,0.0,0.0,0.0,0.0,0.0,0.0,0.0,0.0,0.0,0.0,0.0,0.0,0.0,0.0,0.0,0.0,0.0,0.0,0.0,0.0,0.0,0.0,0.0,0.0,0.0,0.0,0.0,0.0,0.0,0.0,0.0,0.0,0.0,0.0,0.0,0.0,0.0,0.0,0.0,0.0,0.0,0.0,0.0,0.0,0.0,0.0,0.0,0.0,0.0,0.0,0.0,-1.1892,-1.1892,-1.2029,-1.2288,-1.2318,-1.2421,-1.2681,-1.2705,-1.2596,0.0,0.0,0.0,0.0,0.0,0.0,0.0,0.0,0.0,0.0,0.0,0.0,0.0,0.0,0.0,0.0,0.0,0.0,0.0,0.0,0.0,0.0,0.0,0.0,0.0,0.0,0.0,0.0,0.0,0.0,0.0,0.0,0.0,0.0,0.0,0.0,0.0,0.0,0.0,0.0,0.0,0.0,0.0,0.0,0.0,0.0,0.0,0.0,0.0,0.0,0.0,0.0,0.0,0.0,0.0,0.0,0.0,0.0,0.0,0.0,0.0,0.0,0.0,0.0,0.0,0.0,0.0,0.0,0.0,0.0,0.0,0.0,0.0,0.0,0.0,0.0,0.0,0.0,0.0,0.0,0.0,0.0,0.0,0.0,0.0,0.0,0.0,0.0,0.0,0.0,0.0,0.0,0.0,0.0,0.0,0.0,0.0,0.0,0.0,0.0,0.0,0.0,0.0,-1.2451,-1.2475,-1.2499,-1.2578,-1.259,-1.262,-1.2699,-1.2705,-1.2674,-1.2596,0.0,0.0,0.0,0.0,0.0,0.0,0.0,0.0,0.0,0.0,0.0,0.0,0.0,0.0,0.0,0.0,0.0,0.0,0.0,0.0,0.0,0.0,0.0,0.0,0.0,0.0,0.0,0.0,0.0,0.0,0.0,0.0,0.0,0.0,0.0,0.0,0.0,0.0,0.0,0.0,0.0,0.0,0.0,0.0,0.0,0.0,0.0,0.0,0.0,0.0,0.0,0.0,0.0,0.0,0.0,0.0,0.0,0.0,0.0,0.0,0.0,0.0,0.0,0.0,0.0,0.0,0.0,0.0,0.0,0.0,0.0,0.0,0.0,0.0,0.0,0.0,0.0,0.0,0.0,0.0,0.0,0.0,0.0,0.0,0.0,0.0,0.0,0.0,0.0,0.0,0.0,0.0,0.0,0.0,0.0,0.0,0.0,0.0,0.0,0.0,0.0,0.0,-1.2382,-1.2571,-1.2705,-1.2705,-1.2705,-1.2705,-1.2705,-1.2705,-1.2705,-1.2705,0.0,0.0,0.0,0.0,0.0,0.0,0.0,0.0,0.0,0.0,0.0,0.0,0.0,0.0,0.0,0.0,0.0,0.0,0.0,0.0,0.0,0.0,0.0,0.0,0.0,0.0,0.0,0.0,0.0,0.0,0.0,0.0,0.0,0.0,0.0,0.0,0.0,0.0,0.0,0.0,0.0,0.0,0.0,0.0,0.0,0.0,0.0,0.0,0.0,0.0,0.0,0.0,0.0,0.0,0.0,0.0,0.0,0.0,0.0,0.0,0.0,0.0,0.0,0.0,0.0,0.0,0.0,0.0,0.0,0.0,0.0,0.0,0.0,0.0,0.0,0.0,0.0,0.0,0.0,0.0,0.0,0.0,0.0,0.0,0.0,0.0,0.0,0.0,0.0,0.0,0.0,0.0,0.0,0.0,0.0,0.0,0.0,0.0,0.0,0.0,0.0,0.0,-1.2015,-1.24,-1.2705,-1.2705,-1.2705,-1.2705,-1.2705,-1.2705,-1.2705,-1.2705,0.0,0.0,0.0,0.0,0.0,0.0,0.0,0.0,0.0,0.0,0.0,0.0,0.0,0.0,0.0,0.0,0.0,0.0,0.0,0.0,0.0,0.0,0.0,0.0,0.0,0.0,0.0,0.0,0.0,0.0,0.0,0.0,0.0,0.0,0.0,0.0,0.0,0.0,0.0,0.0,0.0,0.0,0.0,0.0,0.0,0.0,0.0,0.0,0.0,0.0,0.0,0.0,0.0,0.0,0.0,0.0,0.0,0.0,0.0,0.0,-0.9736,0.0,0.0,0.0,0.0,0.0,0.0,0.0,0.0,0.0,0.0,0.0,0.0,0.0,0.0,0.0,0.0,0.0,0.0,0.0,0.0,0.0,0.0,0.0,0.0,0.0,0.0,0.0,0.0,0.0,0.0,0.0,0.0,0.0,0.0,0.0,0.0,0.0,0.0,0.0,0.0,0.0,-1.2015,-1.24,-1.2705,-1.2705,-1.2705,-1.2705,-1.2705,-1.2705,-1.2705,-1.2705,-1.2705,0.0,0.0,0.0,0.0,0.0,0.0,0.0,0.0,0.0,0.0,0.0,0.0,0.0,0.0,0.0,0.0,0.0,0.0,0.0,0.0,0.0,0.0,0.0,0.0,0.0,0.0,0.0,0.0,0.0,0.0,0.0,0.0,0.0,0.0,0.0,0.0,0.0,0.0,0.0,0.0,0.0,0.0,0.0,0.0,0.0,0.0,0.0,0.0,0.0,0.0,0.0,0.0,0.0,0.0,0.0,0.0,0.0,0.0,0.0,0.0,-0.9965,0.0,0.0,0.0,0.0,0.0,0.0,0.0,0.0,0.0,0.0,0.0,0.0,0.0,0.0,0.0,0.0,0.0,0.0,0.0,0.0,0.0,0.0,0.0,0.0,0.0,0.0,0.0,0.0,0.0,0.0,0.0,0.0,0.0,0.0,0.0,0.0,0.0,0.0,0.0,0.0,-1.1972,-1.24,-1.2753,-1.2892,-1.2904,-1.2958,-1.3085,-1.3091,-1.3043,-1.2916,-1.2904,0.0,0.0,0.0,0.0,0.0,0.0,0.0,0.0,0.0,0.0,0.0,0.0,0.0,0.0,0.0,0.0,0.0,0.0,0.0,0.0,0.0,0.0,0.0,0.0,0.0,0.0,0.0,0.0,0.0,0.0,0.0,0.0,0.0,0.0,0.0,0.0,0.0,0.0,0.0,0.0,0.0,0.0,0.0,0.0,0.0,0.0,0.0,0.0,0.0,0.0,0.0,0.0,0.0,-1.0567,-1.0705,-1.0904,-1.0904,-1.1134,-1.1456,-1.088,-1.0885,-1.1238,0.0,0.0,0.0,0.0,0.0,0.0,0.0,0.0,0.0,0.0,0.0,0.0,0.0,0.0,0.0,0.0,0.0,0.0,0.0,0.0,0.0,0.0,0.0,0.0,0.0,-1.313,-1.3349,0.0,0.0,0.0,0.0,0.0,0.0,0.0,0.0,0.0,0.0,0.0,0.0,-1.2103,-1.2541,-1.2934,-1.3169,-1.3149,-1.3278,-1.3495,-1.3513,-1.3423,-1.3161,-1.3149,-1.3091,0.0,0.0,0.0,0.0,0.0,0.0,0.0,0.0,0.0,0.0,0.0,0.0,0.0,0.0,0.0,0.0,0.0,0.0,0.0,0.0,0.0,0.0,0.0,0.0,0.0,0.0,0.0,0.0,0.0,0.0,0.0,0.0,-1.1316,-1.176,0.0,0.0,0.0,0.0,0.0,0.0,0.0,0.0,0.0,0.0,0.0,0.0,0.0,-1.032,-1.0605,-1.0936,-1.1118,-1.1192,-1.1513,-1.1724,-1.176,-1.176,-1.1885,-1.2176,-1.2058,0.0,-1.1284,-1.1163,0.0,0.0,0.0,0.0,0.0,0.0,0.0,0.0,0.0,0.0,0.0,0.0,0.0,0.0,0.0,0.0,0.0,0.0,0.0,0.0,0.0,0.0,-1.279,-1.2705,-1.279,-1.279,0.0,-1.2705,-1.2705,-1.2705,-1.2662,0.0,0.0,0.0,0.0,0.0,0.0,0.0,-1.2677,-1.3089,-1.3423,-1.3459,-1.3465,-1.3477,-1.3513,-1.3513,-1.3501,-1.3465,-1.3465,-1.3447,-1.3411,-1.3405,0.0,0.0,0.0,0.0,0.0,0.0,0.0,0.0,0.0,0.0,0.0,0.0,0.0,0.0,0.0,0.0,0.0,0.0,0.0,0.0,0.0,0.0,0.0,0.0,0.0,0.0,0.0,0.0,0.0,-1.0742,-1.085,-1.1149,-1.1372,-1.1186,0.0,0.0,0.0,0.0,0.0,0.0,0.0,0.0,0.0,-1.0863,-1.0874,-1.1044,-1.1393,-1.1559,-1.171,-1.1858,-1.2062,-1.2259,-1.2554,-1.2554,-1.2741,-1.2988,-1.2988,-1.2792,-1.2494,-1.1941,-1.148,-1.1098,0.0,0.0,0.0,0.0,-1.0878,-1.0931,-1.1504,-1.1671,0.0,0.0,0.0,0.0,0.0,0.0,0.0,0.0,0.0,0.0,0.0,0.0,0.0,-1.2705,-1.2705,-1.2747,-1.2904,-1.294,-1.2892,0.0,-1.2491,-1.2238,-1.1947,0.0,0.0,0.0,0.0,-1.2917,-1.315,-1.3377,-1.3568,-1.3719,-1.3731,-1.3797,-1.3942,-1.3954,-1.3894,-1.3743,-1.3731,-1.367,-1.3519,-1.3513,-1.3513,0.0,0.0,0.0,0.0,0.0,0.0,0.0,0.0,0.0,0.0,0.0,0.0,0.0,0.0,0.0,0.0,0.0,0.0,0.0,0.0,0.0,0.0,0.0,0.0,0.0,0.0,0.0,0.0,-1.0513,-1.07,-1.085,-1.1446,-1.1446,0.0,0.0,0.0,0.0,0.0,0.0,-1.0589,-1.1065,-1.1423,-1.1532,-1.1543,-1.1764,-1.2187,-1.2193,-1.2319,-1.262,-1.262,-1.2831,-1.3179,-1.3179,-1.3332,-1.3513,-1.3513,-1.3513,-1.3432,-1.2607,-1.2204,-1.2063,-1.165,-1.1413,-1.1327,-1.1408,-1.1499,-1.1542,-1.2015,-1.2186,-1.2229,-1.2577,0.0,-1.2186,-1.2186,0.0,0.0,0.0,0.0,-1.2377,-1.2727,-1.2862,-1.291,-1.291,-1.291,-1.297,-1.3181,-1.3179,-1.3119,0.0,-1.2606,-1.2409,-1.2471,0.0,0.0,0.0,0.0,-1.3298,-1.3667,-1.3713,-1.3791,-1.3984,-1.4008,-1.4087,-1.428,-1.4298,-1.4214,-1.4014,-1.4008,-1.3918,-1.3725,-1.3713,-1.3713,-1.3713,0.0,0.0,0.0,0.0,0.0,0.0,0.0,0.0,0.0,0.0,0.0,0.0,0.0,0.0,0.0,0.0,0.0,0.0,0.0,0.0,0.0,0.0,0.0,0.0,0.0,0.0,0.0,0.0,0.0,-1.1855,-1.1149,0.0,0.0,0.0,0.0,-1.0289,-1.0903,-1.129,-1.1261,-1.1622,-1.1982,-1.2241,-1.2253,-1.25,-1.3017,-1.3017,-1.3149,-1.3453,-1.3453,-1.3471,-1.3495,-1.3495,-1.3501,-1.3513,-1.3513,-1.3513,-1.3495,-1.3173,-1.2789,-1.2363,-1.2068,-1.1671,-1.1365,-1.18,-1.1972,-1.2015,-1.2491,-1.2662,-1.2662,-1.2705,-1.2662,-1.2662,-1.2662,-1.2662,0.0,0.0,-1.2854,-1.3059,-1.3059,-1.329,-1.3471,-1.3471,-1.3471,-1.3477,-1.3495,-1.3495,-1.3495,0.0,-1.3426,-1.3296,-1.2854,0.0,-1.3636,-1.3228,-1.3761,-1.4208,-1.4256,-1.4256,-1.4262,-1.428,-1.428,-1.4286,-1.4298,-1.4298,-1.4292,-1.428,-1.428,-1.4268,-1.4256,-1.4256,-1.4256,-1.4256,-1.4014,0.0,0.0,0.0,0.0,0.0,0.0,0.0,0.0,0.0,0.0,0.0,0.0,0.0,0.0,0.0,0.0,0.0,0.0,0.0,0.0,0.0,0.0,0.0,0.0,0.0,0.0,0.0,0.0,-1.1372,-1.1268,0.0,-1.1459,-1.1384,-1.134,-1.134,-1.1906,-1.2153,-1.1963,-1.2626,-1.2932,-1.2825,-1.3,-1.3181,-1.3375,-1.3375,-1.3423,-1.3513,-1.3513,-1.3604,-1.3767,-1.3767,-1.3857,-1.4014,-1.4014,-1.4014,-1.3996,-1.3737,-1.3389,-1.3093,-1.2993,-1.2868,-1.2734,-1.2913,-1.2957,-1.3002,-1.3141,-1.3224,-1.3224,-1.3224,-1.3224,-1.3224,-1.3224,-1.3224,-1.3224,-1.3224,-1.3296,-1.3375,-1.3375,-1.3447,-1.3513,-1.3513,-1.3513,-1.3562,-1.3731,-1.3767,-1.3815,-1.3984,-1.3749,-1.3522,-1.3506,-1.3752,-1.3913,-1.3892,-1.4142,-1.4298,-1.4298,-1.4455,-1.457,-1.457,-1.4721,-1.4817,-1.4817,-1.4817,-1.4817,-1.4817,-1.4817,-1.4817,-1.4817,-1.4654,-1.457,-1.457,-1.4298,-1.4159,0.0,0.0,0.0,0.0,0.0,0.0,0.0,0.0,0.0,0.0,0.0,0.0,0.0,0.0,0.0,0.0,0.0,0.0,0.0,0.0,0.0,0.0,0.0,0.0,0.0,0.0,-1.0953,-1.1212,-1.1459,-1.1621,-1.1621,-1.1902,-1.2012,-1.2012,-1.255,-1.2819,-1.2578,-1.3182,-1.3455,-1.3248,-1.3423,-1.3556,-1.3646,-1.3731,-1.3827,-1.3924,-1.4008,-1.4141,-1.431,-1.431,-1.4407,-1.457,-1.457,-1.457,-1.4558,-1.4383,-1.4208,-1.4014,-1.3652,-1.3513,-1.3513,-1.3513,-1.3513,-1.3513,-1.3513,-1.3513,-1.3513,-1.3513,-1.3513,-1.3513,-1.3513,-1.3513,-1.3513,-1.3513,-1.358,-1.3646,-1.3646,-1.3713,-1.3779,-1.3779,-1.3779,-1.3827,-1.4002,-1.4039,-1.4087,-1.4262,-1.4014,-1.3833,-1.4008,-1.4039,-1.4129,-1.4395,-1.4437,-1.4473,-1.4558,-1.4733,-1.4847,-1.4847,-1.5004,-1.5107,-1.5107,-1.5107,-1.5107,-1.5107,-1.5107,-1.5107,-1.5107,-1.4944,-1.4847,-1.4847,-1.4666,-1.457,-1.457,0.0,0.0,0.0,0.0,0.0,0.0,0.0,0.0,0.0,0.0,0.0,0.0,0.0,0.0,0.0,0.0,0.0,0.0,0.0,0.0,0.0,0.0,0.0,-1.0524,-1.1091,-1.1495,-1.1501,-1.1736,-1.1892,-1.1892,-1.218,-1.2337,-1.2337,-1.2794,-1.3095,-1.3095,-1.3387,-1.3525,-1.3525,-1.3544,-1.3676,-1.393,-1.4189,-1.4461,-1.4733,-1.4986,-1.5107,-1.5107,-1.5107,-1.5107,-1.5107,-1.5107,-1.5107,-1.5107,-1.5107,-1.5107,-1.5004,-1.3972,-1.3562,-1.3562,-1.3562,-1.3562,-1.3562,-1.3562,-1.3562,-1.3562,-1.3562,-1.3562,-1.3562,-1.3562,-1.3562,-1.3562,-1.3562,-1.3749,-1.3948,-1.3948,-1.4129,-1.4322,-1.4322,-1.4322,-1.4322,-1.4322,-1.4322,-1.4322,-1.4322,-1.4322,-1.4322,-1.431,-1.4316,-1.4413,-1.469,-1.4733,0.0,-1.5077,-1.5113,-1.5119,-1.5119,-1.5125,-1.5131,-1.5131,-1.5131,-1.5131,-1.5131,-1.5131,-1.5131,-1.5131,-1.5125,-1.5119,-1.5107,-1.5107,-1.5107,-1.5107,0.0,0.0,0.0,0.0,0.0,0.0,0.0,0.0,0.0,0.0,0.0,0.0,0.0,0.0,0.0,0.0,0.0,0.0,0.0,0.0,0.0,0.0,-1.1227,-1.1227,-1.1364,-1.1561,-1.1754,-1.2047,-1.2204,-1.2204,-1.2626,-1.2898,-1.2898,-1.3218,-1.3405,-1.3405,-1.3652,-1.3797,-1.3797,-1.4183,-1.4425,-1.4491,-1.4757,-1.4926,-1.4998,-1.5071,-1.5107,-1.5107,-1.5107,-1.5107,-1.5107,-1.5107,-1.5107,-1.5107,-1.5107,-1.5107,-1.5077,-1.4787,-1.4666,-1.4666,-1.4666,-1.4666,-1.4666,-1.4666,-1.4666,-1.4666,-1.4666,-1.4666,-1.4666,-1.4666,-1.4666,-1.4666,-1.4666,-1.4721,-1.4775,-1.4775,-1.4829,-1.4883,-1.4883,-1.4883,-1.4883,-1.4883,-1.4883,-1.4883,-1.4883,-1.4883,-1.4823,-1.463,-1.4763,-1.4908,-1.4986,-1.4998,0.0,-1.5101,-1.5276,-1.539,-1.539,-1.5559,-1.5674,-1.5674,-1.5674,-1.5674,-1.5674,-1.5674,-1.5674,-1.5674,-1.5493,-1.5306,-1.5113,-1.5107,-1.5107,0.0,0.0,0.0,0.0,0.0,0.0,0.0,0.0,0.0,0.0,0.0,0.0,0.0,0.0,0.0,0.0,0.0,0.0,0.0,0.0,0.0,0.0,-1.1534,-1.1694,-1.1802,-1.182,-1.1874,-1.2071,-1.2379,-1.2656,-1.2656,-1.3037,-1.329,-1.329,-1.3532,-1.3725,-1.3839,-1.4099,-1.4298,-1.4407,-1.4714,-1.4877,-1.4877,-1.5143,-1.527,-1.5276,-1.5384,-1.5439,-1.5439,-1.5439,-1.5439,0.0,-1.5439,-1.5439,-1.5439,-1.5439,-1.5439,0.0,0.0,0.0,0.0,0.0,-1.5107,-1.5107,-1.5107,-1.5107,-1.5107,-1.5107,-1.5107,-1.5107,-1.5107,-1.5107,-1.5107,-1.5107,-1.5107,-1.5107,-1.5107,-1.5107,-1.5107,-1.5107,-1.5107,-1.5107,-1.5107,-1.5107,-1.5107,-1.5107,-1.5197,0.0,-1.5071,-1.5077,-1.5143,-1.5252,-1.527,-1.5312,-1.5421,-1.5565,-1.5662,-1.5662,-1.5801,-1.5891,-1.5891,-1.5891,0.0,0.0,0.0,-1.5891,-1.5891,-1.5741,0.0,0.0,0.0,-1.5439,-1.5433,0.0,0.0,0.0,-1.5928,-1.5888,0.0,0.0,0.0,0.0,0.0,0.0,0.0,0.0,0.0,0.0,0.0,0.0,0.0,0.0,0.0,0.0,-1.1968,-1.2059,-1.2318,-1.2385,-1.2403,-1.2403,-1.2831,-1.3095,-1.3119,-1.3405,-1.3562,-1.3562,-1.3833,-1.4099,-1.4334,0.0,0.0,0.0,0.0,-1.5155,-1.5155,-1.5409,-1.5547,-1.5547,-1.5777,-1.5891,-1.5891,-1.5891,-1.5891,-1.5891,-1.5891,-1.5891,-1.5891,-1.5891,-1.5891,-1.5843,-1.5378,-1.5197,-1.5197,-1.5197,-1.5197,-1.5197,-1.5197,0.0,0.0,-1.5197,-1.5197,-1.5197,-1.5197,-1.5197,-1.5197,-1.5197,-1.5197,-1.5197,-1.5197,-1.5197,-1.5197,-1.5197,-1.5197,-1.5197,-1.5197,-1.5197,-1.5197,-1.5197,-1.5384,-1.5547,-1.5547,-1.5348,-1.5276,-1.5511,-1.5547,-1.5626,-1.5861,-1.5891,-1.5891,-1.5891,0.0,0.0,-1.5891,-1.5891,-1.5891,-1.5891,-1.5891,-1.5891,-1.5891,-1.5891,-1.5891,-1.5891,-1.5891,-1.5891,-1.5945,-1.5814,-1.5796,-1.5992,-1.6941,-1.6943,0.0,0.0,0.0,0.0,0.0,0.0,0.0,0.0,0.0,0.0,0.0,0.0,0.0,0.0,0.0,-1.2198,-1.224,-1.233,-1.259,-1.2825,-1.297,-1.297,-1.3061,-1.3161,-1.3417,-1.3676,-1.3833,-1.3833,-1.428,-1.4582,-1.463,-1.489,0.0,-1.5107,-1.5312,-1.5421,-1.5421,-1.5686,-1.5813,-1.5813,0.0,0.0,-1.5891,-1.5891,-1.5891,-1.5891,-1.5891,-1.5891,-1.5891,-1.5891,-1.5891,-1.5879,-1.5777,-1.5741,-1.5741,-1.5741,-1.5741,-1.5741,-1.5741,-1.5741,-1.5741,-1.5741,-1.5741,-1.5741,-1.5741,-1.5741,0.0,-1.5741,-1.5741,-1.5741,-1.5741,-1.5741,-1.5741,-1.5741,-1.5741,-1.5741,-1.5741,-1.5741,-1.5741,-1.5741,-1.5777,-1.5813,-1.5813,-1.5771,-1.5759,-1.5807,-1.5813,-1.5831,-1.5885,-1.5891,-1.5891,-1.5891,-1.5891,-1.5891,-1.5891,-1.5891,-1.5891,-1.5891,-1.5891,-1.5891,-1.5891,-1.5891,-1.5891,-1.5891,-1.5891,-1.5998,-1.6217,-1.6897,-1.7743,-1.8749,-1.6826,-1.5695,0.0,0.0,0.0,0.0,0.0,0.0,0.0,0.0,0.0,0.0,0.0,-1.1573,-1.1832,0.0,-1.2204,-1.2469,-1.2506,-1.2602,-1.2874,-1.3037,-1.3083,-1.3083,-1.3357,-1.3568,-1.3701,-1.4075,-1.431,-1.431,-1.4684,-1.4974,-1.5101,-1.5234,-1.5366,-1.5493,-1.5626,-1.5692,-1.5692,-1.5825,-1.5891,-1.5891,-1.5891,-1.5891,-1.5891,-1.5891,-1.5891,-1.5891,-1.5891,-1.5891,-1.5891,-1.5891,-1.5891,-1.5891,-1.5891,-1.5891,-1.5891,-1.5891,-1.5891,-1.5891,-1.5891,-1.5891,-1.5891,-1.5891,-1.5891,-1.5891,-1.5891,-1.5891,-1.5891,-1.5891,-1.5891,-1.5891,-1.5891,-1.5891,-1.5891,-1.5891,-1.5891,-1.5891,-1.5891,-1.5891,-1.5891,-1.5891,-1.5891,-1.5891,-1.5891,-1.5891,-1.5891,-1.5891,-1.5891,-1.5891,-1.5891,-1.5891,-1.5891,-1.5891,-1.5891,-1.5891,-1.5891,-1.5891,-1.5891,-1.5891,-1.5891,-1.5891,-1.5891,-1.5891,-1.5891,-1.5891,-1.6051,-1.6164,-1.6324,-1.6895,-1.7411,-1.7923,-1.6697,-1.6678,0.0,0.0,0.0,0.0,0.0,0.0,0.0,0.0,-1.1236,-1.1513,-1.1609,-1.1772,-1.2234,-1.2355,-1.2457,-1.2668,-1.2747,-1.2868,-1.3091,-1.3212,-1.3278,-1.3278,-1.3646,-1.3948,-1.4051,-1.4461,-1.4739,-1.4787,-1.5034,-1.5276,-1.5487,-1.5547,-1.5674,-1.5885,-1.5891,-1.5891,-1.5891,-1.5891,-1.5891,-1.5891,-1.5891,-1.5891,-1.5891,-1.5891,-1.5891,-1.5891,-1.5891,-1.5891,-1.5891,-1.5891,-1.5891,-1.5891,-1.5891,-1.5891,-1.5891,-1.5891,-1.5891,-1.5891,-1.5891,-1.5891,-1.5891,-1.5891,-1.5891,-1.5891,-1.5891,-1.5891,-1.5891,-1.5891,-1.5891,-1.5891,-1.5891,-1.5891,-1.5891,-1.5891,-1.5891,-1.5891,-1.5891,-1.5891,-1.5891,-1.5891,-1.5891,-1.5891,-1.5891,-1.5891,-1.5891,-1.5891,-1.5891,-1.5891,-1.5891,-1.5891,-1.5891,-1.5891,-1.5891,-1.5891,-1.5891,-1.5891,-1.5891,-1.5891,-1.5891,-1.5891,-1.5891,-1.5891,-1.5891,-1.5891,-1.6111,-1.6271,-1.6324,-1.653,-1.663,-1.6683,-1.6683,-1.7687,-1.1298,-1.1111,-1.1111,-1.1111,-1.1111,-1.1178,0.0,0.0,-1.1519,-1.1784,-1.2024,-1.2246,-1.23,-1.2499,-1.2674,-1.2699,-1.2916,-1.3091,-1.3121,-1.3525,-1.3815,-1.3815,-1.387,-1.4093,-1.4582,-1.4678,-1.4817,-1.5046,-1.5306,-1.5469,-1.5499,-1.5722,-1.5861,-1.5891,-1.5891,-1.5891,-1.5891,-1.5891,-1.5891,-1.5891,-1.5891,-1.5891,-1.5891,-1.5891,-1.5891,-1.5891,-1.5891,-1.5891,-1.5891,-1.5891,-1.5891,-1.5891,-1.5891,-1.5891,-1.5891,-1.5891,-1.5891,-1.5891,-1.5891,-1.5891,-1.5891,-1.5891,-1.5891,-1.5891,-1.5891,-1.5891,-1.5891,-1.5891,-1.5891,-1.5891,-1.5891,-1.5891,-1.5891,-1.5891,-1.5891,-1.5891,-1.5891,-1.5891,-1.5891,-1.5891,-1.5891,-1.5891,-1.5891,-1.5891,-1.5891,-1.5891,-1.5891,-1.5891,-1.5891,-1.5891,-1.5891,-1.5891,-1.5891,-1.5891,-1.5891,-1.5891,-1.5891,-1.5891,-1.5891,-1.5891,-1.5891,-1.5891,-1.5891,-1.5891,-1.5945,-1.6051,-1.6324,-1.6324,-1.6942,-1.8133,-1.7147,-1.6577,-1.126,-1.1111,-1.1111,-1.1111,-1.1232,-1.1345,-1.1465,-1.1609,-1.1796,-1.2095,-1.224,-1.2361,-1.2512,-1.2626,-1.2759,0.0,-1.3049,-1.323,-1.3538,-1.3767,-1.396,-1.4117,-1.428,-1.4467,-1.4696,-1.4853,-1.5052,-1.5318,-1.5578,-1.5728,-1.5728,-1.5831,-1.5891,-1.5891,-1.5891,-1.5891,-1.5891,-1.5891,-1.5891,-1.5891,-1.5891,-1.5891,-1.5891,-1.5891,-1.5891,-1.5891,-1.5891,-1.5891,-1.5891,-1.5891,-1.5891,-1.5891,-1.5891,-1.5891,-1.5891,-1.5891,-1.5891,-1.5891,-1.5891,-1.5891,-1.5891,-1.5891,-1.5891,-1.5891,-1.5891,-1.5891,-1.5891,-1.5891,-1.5891,-1.5891,-1.5891,-1.5891,-1.5891,-1.5891,-1.5891,-1.5891,-1.5891,-1.5891,-1.5891,-1.5891,-1.5891,-1.5891,-1.5891,-1.5891,-1.5891,-1.5891,-1.5891,-1.5891,-1.5891,-1.5891,-1.5891,-1.5891,-1.5891,-1.5891,-1.5891,-1.5891,-1.5891,-1.5891,-1.5891,-1.5891,-1.5891,-1.5891,-1.5891,-1.5891,-1.6051,-1.6164,-1.6324,-1.6477,-1.6736,-1.7153,-1.6683,-1.6377,-1.1223,-1.1111,-1.1129,-1.1208,-1.1339,-1.1531,-1.1676,-1.185,-1.2107,-1.2367,-1.2421,-1.2481,-1.2668,-1.2705,-1.2795,-1.3079,-1.3143,-1.3393,-1.3839,-1.3966,-1.4087,-1.4274,-1.4545,-1.4745,-1.4817,-1.5065,-1.5324,-1.559,-1.5783,-1.5891,-1.5891,-1.5891,-1.5891,-1.5891,-1.5891,-1.5891,-1.5891,-1.5891,-1.5891,-1.5891,-1.5891,-1.5891,-1.5891,-1.5891,-1.5891,-1.5891,-1.5891,-1.5891,-1.5891,-1.5891,-1.5934,-1.6,-1.6,-1.6048,-1.6115,-1.6115,-1.6018,-1.5891,-1.5891,-1.5891,-1.5891,-1.5891,-1.5891,-1.5891,-1.5891,-1.5891,-1.5891,-1.5891,-1.5891,-1.5891,-1.5891,-1.5891,-1.5891,-1.5891,-1.5891,-1.5891,-1.5891,-1.5891,-1.5891,-1.5891,-1.5891,-1.5945,-1.5998,-1.5998,-1.6051,-1.6099,-1.6099,-1.6045,-1.5945,-1.5891,-1.5891,-1.5891,-1.5891,-1.5891,-1.5891,-1.5891,-1.5891,-1.5891,-1.5891,-1.5891,-1.5891,-1.5891,-1.5891,-1.5891,-1.6105,-1.6164,-1.6164,-1.6471,-1.6477,-1.6324,-1.6377,-1.6483,-1.1111,-1.1111,-1.1178,-1.1411,-1.1483,-1.1627,-1.2174,-1.2294,-1.2373,-1.2638,-1.2693,-1.2693,-1.2705,-1.2705,-1.2795,-1.3079,-1.3338,-1.3598,-1.387,-1.4123,-1.4286,-1.4298,-1.4545,-1.4817,0.0,-1.533,-1.5596,-1.5855,-1.5885,-1.5891,-1.5891,-1.5891,-1.5891,-1.5891,-1.5891,-1.5891,-1.5891,-1.5891,-1.5891,-1.5891,-1.5891,-1.5891,-1.5891,-1.5891,-1.5891,-1.5891,-1.5891,-1.5891,-1.5891,-1.5891,-1.6036,-1.6266,-1.6266,-1.6435,-1.6676,-1.6676,-1.6344,-1.5891,-1.5891,-1.5891,-1.5891,-1.5891,-1.5891,-1.5891,-1.5891,-1.5891,-1.5891,-1.5891,-1.5891,-1.5891,-1.5891,-1.5891,-1.5891,-1.5891,-1.5891,-1.5891,-1.5891,-1.5891,-1.5891,-1.5891,-1.5891,-1.5998,-1.6217,-1.6271,-1.6377,-1.663,-1.6677,-1.6471,-1.5992,-1.5891,-1.5891,-1.5891,-1.5891,-1.5891,-1.5891,-1.5891,-1.5891,-1.5891,-1.5891,-1.5891,-1.5891,-1.5891,-1.5891,-1.5891,-1.5891,-1.5891,-1.5891,-1.6164,-1.6324,-1.6324,-1.6577,-1.6677,-1.1111,-1.1244,-1.1375,-1.1471,-1.1754,-1.2095,-1.2276,-1.2445,-1.2596,-1.2687,-1.2705,-1.2705,-1.2705,-1.2705,-1.2856,-1.3308,-1.3459,-1.367,-1.4105,-1.4244,-1.4364,-1.4552,-1.4811,0.0,0.0,0.0,0.0,-1.5867,-1.5891,-1.5891,-1.5891,-1.5891,-1.5891,-1.5891,-1.5891,-1.5891,-1.5891,-1.5891,-1.5891,-1.5891,-1.5891,-1.5891,-1.5891,-1.5891,-1.5982,-1.6151,-1.6151,-1.6254,-1.6429,-1.6429,-1.6483,-1.6561,-1.6561,-1.6616,-1.67,-1.67,-1.6585,-1.6429,-1.6429,-1.6429,-1.6429,-1.6429,-1.6429,-1.6429,-1.6429,-1.6429,-1.6429,-1.6429,-1.6429,-1.6429,-1.6429,-1.6429,-1.6429,-1.6429,-1.6429,-1.6429,-1.6429,-1.6429,-1.6484,-1.6698,-1.6753,-1.6863,-1.7144,-1.6986,-1.6845,-1.6709,-1.653,-1.6371,-1.6211,-1.5998,-1.5891,-1.5891,-1.5891,-1.5891,-1.5891,-1.5891,-1.5891,-1.5891,-1.5891,-1.5998,-1.6164,-1.6164,-1.6264,-1.6418,-1.6418,-1.6418,-1.6418,-1.6524,-1.6577,-1.6577,-1.6677,-1.6842,-1.1232,-1.1357,-1.1537,-1.1724,-1.2065,-1.2337,-1.2433,-1.2584,-1.2705,-1.2705,-1.2705,-1.2705,-1.2705,-1.2705,-1.2886,-1.3429,-1.3513,-1.3701,-1.422,-1.4298,-1.4401,-1.4684,-1.495,-1.5215,0.0,0.0,0.0,-1.5879,-1.5891,-1.5891,-1.5891,-1.5891,-1.5891,-1.5891,-1.5891,-1.5891,-1.5891,-1.5891,-1.5891,-1.5891,-1.5891,-1.5891,-1.5891,-1.5988,-1.6121,-1.629,-1.6386,-1.6531,-1.67,-1.67,-1.6754,-1.6839,-1.6839,-1.6893,-1.6984,-1.6984,-1.6984,-1.6954,-1.6767,-1.67,-1.67,-1.67,-1.67,-1.67,-1.67,-1.67,-1.67,-1.67,-1.67,-1.67,-1.67,-1.67,-1.67,-1.67,-1.67,-1.6756,-1.6868,-1.6868,-1.698,-1.7254,-1.7365,-1.7421,-1.77,-1.7712,-1.7579,-1.7391,-1.6994,-1.6655,-1.6349,-1.6051,-1.5891,-1.5891,-1.5976,-1.603,-1.603,-1.6121,-1.6181,-1.6181,-1.6284,-1.6446,-1.6615,-1.6723,-1.6832,-1.7041,-1.7041,-1.7041,-1.7041,-1.7149,-1.7197,-1.7197,-1.7311,-1.7479,-1.1423,-1.1513,-1.1651,-1.2192,-1.2324,-1.2397,-1.265,-1.2705,-1.2705,-1.2705,-1.2705,-1.2705,0.0,0.0,-1.2886,-1.3429,-1.3513,-1.3701,-1.422,-1.4298,-1.4407,0.0,0.0,0.0,0.0,0.0,0.0,-1.5891,0.0,-1.5891,-1.5891,-1.5891,-1.5891,-1.5891,-1.5891,-1.5891,-1.5891,-1.5891,-1.5891,-1.5891,-1.5903,-1.591,-1.5922,-1.6181,-1.6308,-1.6338,-1.6604,-1.6724,-1.6742,-1.6742,-1.6887,-1.7111,-1.7111,-1.7267,-1.7485,-1.7485,-1.7485,-1.7412,-1.6911,-1.6742,-1.6742,-1.6742,-1.6742,-1.6742,-1.6742,-1.6742,-1.6742,-1.6742,-1.6742,-1.6742,-1.6742,-1.6742,-1.6742,-1.6799,-1.6799,-1.6849,-1.7185,-1.7235,-1.7353,-1.7639,-1.7695,-1.78,-1.8115,-1.8337,-1.851,-1.8497,-1.7991,-1.7349,-1.6489,-1.6147,-1.5987,-1.5981,-1.6211,-1.6357,-1.6357,-1.6605,-1.6756,-1.6756,-1.703,-1.7247,-1.7247,-1.7477,-1.765,-1.765,-1.765,-1.765,-1.765,-1.7984,-1.8144,-1.8144,-1.8373,-1.849,-1.1471,-1.1778,-1.2149,-1.2282,-1.2457,-1.262,-1.2687,-1.2705,-1.2705,-1.2705,-1.2705,-1.2705,0.0,0.0,0.0,-1.3429,-1.3513,0.0,-1.422,-1.4298,0.0,-1.495,0.0,-1.5288,-1.5747,-1.5849,0.0,0.0,-1.6105,-1.6111,-1.5891,-1.6105,-1.6111,-1.5891,-1.5891,-1.5891,-1.5891,-1.5891,-1.5891,-1.5891,-1.6091,-1.6181,-1.6187,-1.6471,-1.67,-1.6887,-1.696,-1.7098,-1.7286,-1.7286,-1.7322,-1.7382,-1.7382,-1.7424,-1.7485,-1.7485,-1.7485,-1.7461,-1.7328,-1.7286,-1.7286,-1.7286,-1.7286,-1.7286,-1.7286,-1.7286,-1.7286,-1.7286,-1.7286,-1.7344,-1.7588,-1.7646,-1.7704,-1.7923,-1.7974,-1.798,-1.809,-1.809,-1.8205,-1.8493,-1.8787,-1.89,-1.8731,-1.8755,-1.8738,-1.8524,-1.8206,-1.787,-1.7666,-1.7207,-1.6931,-1.7158,-1.7221,-1.7265,-1.7265,-1.7328,-1.7372,-1.7372,-1.7427,-1.7588,-1.7867,-1.7922,-1.8095,-1.8269,-1.8269,-1.8269,-1.8269,-1.838,-1.838,-1.838,-1.849,-1.849,-1.1633,-1.1958,-1.2337,-1.2457,-1.2596,-1.2705,-1.2705,-1.2705,-1.2705,-1.2705,-1.2705,-1.2705,-1.2705,-1.2705,0.0,0.0,0.0,0.0,-1.4069,-1.4226,-1.4497,0.0,-1.5107,0.0,-1.5837,-1.5891,-1.5891,0.0,-1.6164,-1.6164,-1.5891,-1.6164,-1.6164,-1.5891,-1.5891,-1.5891,-1.5891,-1.5891,-1.5891,-1.5891,-1.6157,-1.6278,-1.6296,-1.6856,-1.7118,-1.7098,0.0,-1.7527,-1.7485,-1.7485,-1.7485,-1.7485,-1.7485,-1.7485,-1.7485,-1.7485,-1.7485,-1.7485,-1.7485,-1.7485,-1.7485,-1.7485,-1.7485,-1.7543,-1.7667,-1.7608,-1.7543,-1.783,-1.7837,-1.7784,-1.8083,-1.8194,-1.8194,-1.8363,-1.8421,-1.8415,-1.859,-1.8648,-1.8706,-1.9062,-1.9243,-1.9319,-1.9145,-1.9118,-1.9065,-1.8898,-1.8638,-1.8518,-1.8638,-1.7909,-1.7421,-1.7595,-1.7703,-1.7779,-1.7779,-1.7887,-1.7957,-1.7957,-1.8071,-1.8235,-1.8462,-1.8582,-1.8758,-1.8871,-1.8871,-1.8871,-1.8871,-1.8871,-1.8871,-1.8871,-1.8871,-1.8871,-1.1902,-1.2168,-1.2421,-1.265,-1.2705,-1.2705,-1.2705,-1.2705,-1.2705,-1.2705,-1.2705,-1.2705,-1.2705,-1.2705,-1.2807,-1.3083,0.0,-1.3622,-1.3918,-1.4153,-1.4497,-1.504,-1.5107,-1.5312,-1.5837,-1.5891,-1.5891,-1.5945,-1.6217,-1.6211,-1.5945,-1.6211,-1.6211,-1.5891,-1.5891,-1.5891,-1.5891,-1.5891,-1.5903,-1.5946,-1.6205,-1.6411,-1.6515,-1.7302,-1.7486,-1.7274,0.0,0.0,-1.7543,-1.7543,-1.7485,-1.7485,-1.7485,-1.7485,-1.7485,-1.7485,-1.7485,-1.7485,-1.7485,-1.7543,-1.7543,-1.7485,-1.7543,-1.7608,-1.7908,-1.7843,-1.7713,-1.8246,-1.8252,-1.8142,-1.8363,-1.8473,-1.848,-1.8538,-1.8538,-1.8596,-1.8881,-1.8997,-1.9062,-1.9366,-1.9424,-1.9424,-1.9424,-1.9424,-1.9424,-1.9424,-1.912,-1.9062,-1.9366,-1.8464,-1.7815,-1.7821,-1.8032,-1.818,-1.818,-1.8397,-1.8538,-1.8538,-1.8823,-1.8997,-1.8997,-1.9243,-1.9424,-1.9424,-1.9424,-1.9424,-1.9424,-1.9424,-1.9424,-1.9424,-1.9424,-1.9424,-1.2214,-1.2439,-1.265,-1.2693,-1.2705,-1.2705,-1.2705,-1.2705,0.0,-1.2705,-1.2705,-1.2705,-1.2705,-1.2705,-1.2868,-1.3363,-1.3483,-1.3682,-1.4165,-1.4268,-1.4497,0.0,-1.5107,-1.5312,-1.5837,0.0,0.0,0.0,0.0,-1.6418,-1.5945,-1.6365,-1.6418,-1.5945,-1.5891,-1.5891,-1.5891,-1.5891,-1.6,-1.6217,-1.6495,-1.6905,-1.7408,-1.7743,-1.8008,-1.8177,-1.8064,0.0,-1.7908,-1.7602,-1.7485,-1.7485,-1.7485,-1.7485,-1.7485,-1.7485,-1.7485,-1.7485,-1.7485,-1.7667,-1.7849,-1.7602,-1.7667,-1.7908,-1.7966,-1.8135,-1.824,-1.8363,-1.8363,-1.8421,-1.8706,-1.8816,-1.8881,-1.9185,-1.9249,-1.9249,-1.9307,-1.9307,-1.9307,-1.9366,-1.9424,-1.9424,-1.9424,-1.9424,-1.9424,-1.9424,-1.9366,-1.9307,-1.9366,-1.8976,-1.8795,-1.9039,-1.9143,-1.917,-1.917,-1.9216,-1.9249,-1.9249,-1.9307,-1.9307,-1.9307,-1.9366,-1.9424,-1.9424,-1.9424,-1.9424,-1.9424,-1.9424,-1.9424,-1.9424,-1.9424,-1.9424,-1.2281,-1.2506,-1.2705,-1.2705,-1.2705,-1.2705,-1.2705,0.0,0.0,-1.2705,-1.2705,-1.2705,-1.2705,-1.2705,0.0,-1.3248,-1.3429,-1.3652,-1.4039,-1.4214,0.0,-1.504,-1.5107,-1.5312,0.0,0.0,0.0,0.0,0.0,-1.6571,-1.6311,-1.6418,-1.6311,-1.5891,-1.5891,-1.5891,-1.5891,-1.5891,-1.6132,-1.6569,-1.6685,-1.7115,-1.7843,-1.8062,-1.8311,-1.8421,-1.8421,0.0,-1.8194,-1.8012,-1.7895,-1.7784,-1.7784,-1.7667,-1.7485,-1.7485,-1.7485,-1.7543,-1.7726,-1.7849,-1.8025,-1.796,-1.8071,-1.8252,-1.8421,-1.8421,-1.848,-1.8829,-1.8771,-1.8765,-1.9062,-1.9185,-1.9185,-1.9366,-1.9424,-1.9424,-1.9424,-1.9424,-1.9424,-1.9424,-1.9424,-1.9424,-1.9424,-1.9424,-1.9424,-1.9424,-1.9424,-1.9424,-1.9424,-1.9243,-1.9243,-1.9366,-1.9424,-1.9424,-1.9424,-1.9424,-1.9424,-1.9424,-1.9424,-1.9424,-1.9424,-1.9424,-1.9424,-1.9424,-1.9424,-1.9424,-1.9424,-1.9424,-1.9424,-1.9424,-1.9424,-1.9424,-1.2354,-1.2548,-1.2705,-1.2705,-1.2705,-1.2705,-1.2705,-1.2705,-1.2705,-1.2705,-1.2705,-1.2705,-1.2705,-1.2705,-1.2813,0.0,-1.3381,-1.3628,-1.3948,-1.4165,-1.4497,0.0,-1.5107,0.0,-1.5837,0.0,0.0,0.0,0.0,0.0,-1.6789,-1.653,-1.6264,-1.5998,-1.5998,-1.5998,-1.5998,-1.5998,-1.633,-1.699,-1.6932,-1.7378,-1.8218,-1.8436,-1.8538,-1.8596,-1.8823,0.0,0.0,-1.8421,-1.8311,-1.8083,-1.8031,-1.7843,-1.7719,-1.7602,-1.7661,-1.7719,-1.7966,-1.8142,-1.8259,-1.8421,-1.8538,-1.8532,-1.8823,-1.8765,-1.8713,-1.9249,-1.9185,-1.9062,-1.9307,-1.9424,-1.9424,-1.9424,-1.9424,-1.9424,-1.9424,-1.9424,-1.9424,-1.9424,-1.9424,-1.9424,-1.9424,-1.9424,-1.9424,-1.9424,-1.9424,-1.9424,-1.9424,-1.9424,-1.9424,-1.9424,-1.9424,-1.9424,-1.9424,-1.9424,-1.9424,-1.9424,-1.9424,-1.9424,-1.9424,-1.9424,-1.9424,-1.9424,-1.9424,-1.9424,-1.9424,-1.9424,-1.9424,-1.9424,-1.9424,-1.9424,-1.262,-1.2687,-1.2705,-1.2705,-1.2705,-1.2705,-1.2705,0.0,-1.2705,-1.2705,-1.2705,-1.2705,-1.2705,-1.2705,-1.2874,-1.3393,-1.3501,-1.3688,-1.4189,-1.428,-1.4497,-1.504,0.0,0.0,0.0,0.0,0.0,0.0,0.0,0.0,-1.7173,-1.6842,-1.6524,-1.6271,-1.6271,-1.6271,-1.6271,-1.6271,-1.6698,-1.7556,-1.7526,-1.7981,-1.8842,-1.8861,-1.9004,-1.9307,-1.9004,0.0,0.0,-1.8532,-1.8363,-1.8363,-1.8083,-1.8142,-1.8305,-1.8018,-1.8135,-1.8305,-1.8363,-1.8532,-1.8823,-1.8881,-1.8881,-1.8881,-1.8874,-1.9062,-1.9307,-1.9366,-1.9366,-1.9366,-1.9366,-1.9424,-1.9424,-1.9424,-1.9424,-1.9424,-1.9424,-1.9424,-1.9424,-1.9424,-1.9424,-1.9424,-1.9424,-1.9424,-1.9424,-1.9424,-1.9424,-1.9424,-1.9424,-1.9424,-1.9424,-1.9424,-1.9424,-1.9424,-1.9424,-1.9424,-1.9424,-1.9424,-1.9424,-1.9424,-1.9424,-1.9424,-1.9424,-1.9424,-1.9424,-1.9424,-1.9424,-1.9424,-1.9424,-1.9424,-1.9424,-1.9424,-1.2644,-1.2705,-1.2705,-1.2705,-1.2705,-1.2705,-1.2705,0.0,-1.2705,-1.2705,-1.2705,-1.2705,-1.2705,-1.2705,-1.2886,-1.3429,-1.3513,-1.3701,-1.422,-1.4298,-1.4437,-1.4829,-1.5155,0.0,0.0,0.0,0.0,0.0,0.0,0.0,-1.743,-1.7166,-1.6802,-1.6324,-1.6477,-1.6477,-1.6324,-1.6477,-1.7022,-1.7922,-1.7706,-1.817,-1.9185,-1.8997,-1.9062,-1.9366,-1.9243,0.0,0.0,-1.9068,-1.8887,-1.8706,-1.8596,-1.848,-1.8363,-1.8311,-1.8311,-1.8421,-1.8648,-1.8765,-1.8933,-1.912,-1.9185,-1.9185,-1.9185,-1.9301,-1.9424,-1.9424,-1.9424,-1.9424,-1.9424,-1.9424,-1.9424,-1.9424,-1.9424,-1.9424,-1.9424,-1.9424,-1.9424,-1.9424,-1.9424,-1.9424,-1.9424,-1.9424,-1.9424,-1.9424,-1.9424,-1.9424,-1.9424,-1.9424,-1.9424,-1.9424,-1.9424,-1.9424,-1.9424,-1.9424,-1.9424,-1.9424,-1.9424,-1.9424,-1.9424,-1.9424,-1.9424,-1.9424,-1.9424,-1.9424,-1.9424,-1.9424,-1.9424,-1.9424,-1.9424,-1.9424,-1.2644,-1.2705,-1.2705,-1.2705,-1.2705,-1.2705,-1.2705,-1.2705,-1.2705,-1.2705,-1.2705,-1.2705,-1.2705,-1.2705,-1.288,-1.3519,-1.361,-1.3838,-1.447,-1.4496,-1.4528,0.0,0.0,0.0,0.0,0.0,0.0,0.0,0.0,0.0,0.0,-1.743,-1.7067,-1.659,-1.6743,-1.6743,-1.659,-1.6743,-1.7292,-1.8206,-1.7984,-1.8403,-1.9366,-1.9185,-1.9178,-1.9424,0.0,0.0,0.0,-1.9424,-1.9243,-1.9055,-1.8939,-1.8823,-1.8655,-1.859,-1.8596,-1.8713,-1.8946,-1.9062,-1.912,-1.9307,-1.9424,-1.9424,-1.9424,-1.9424,-1.9424,-1.9424,-1.9424,-1.9424,-1.9424,-1.9424,-1.9424,-1.9424,-1.9424,-1.9424,-1.9424,-1.9424,-1.9424,-1.9424,-1.9424,-1.9424,-1.9424,-1.9424,-1.9424,-1.9424,-1.9424,-1.9424,-1.9424,-1.9424,-1.9424,-1.9424,-1.9424,-1.9424,-1.9424,-1.9424,-1.9424,-1.9424,-1.9424,-1.9424,-1.9424,-1.9424,-1.9424,-1.9424,-1.9424,-1.9424,-1.9424,-1.9424,-1.9424,-1.9424,-1.9424,-1.9424,-1.2602,-1.2705,-1.2705,-1.2705,-1.2705,-1.2705,-1.2705,-1.2705,-1.2705,-1.2705,-1.2705,-1.2705,-1.2705,-1.2705,-1.2972,-1.375,-1.3888,-1.4172,-1.4959,-1.4838,0.0,0.0,0.0,0.0,0.0,0.0,0.0,0.0,0.0,0.0,0.0,-1.7582,-1.7483,-1.7179,-1.7179,-1.7179,-1.7179,-1.7179,-1.7634,-1.849,-1.849,-1.8798,-1.9424,-1.9424,-1.9424,0.0,0.0,0.0,0.0,-1.9424,-1.9424,-1.9366,-1.9055,-1.912,-1.9366,-1.9004,-1.912,-1.9366,-1.9366,-1.9366,-1.9424,-1.9424,-1.9424,-1.9424,-1.9424,-1.9424,-1.9424,-1.9424,-1.9424,-1.9424,-1.9424,-1.9424,-1.9424,-1.9424,-1.9424,-1.9424,-1.9424,-1.9424,-1.9424,-1.9424,-1.9424,-1.9424,-1.9424,-1.9424,-1.9424,-1.9424,-1.9424,-1.9424,-1.9424,-1.9424,-1.9424,-1.9424,-1.9424,-1.9424,-1.9424,-1.9424,-1.9424,-1.9424,-1.9424,-1.9424,-1.9424,-1.9424,-1.9424,-1.9424,-1.9424,-1.9424,-1.9424,-1.9424,-1.9424,-1.9424,-1.9424,-1.9424,-1.2903,-1.3052,-1.3137,-1.3009,-1.3094,-1.3094,-1.279,-1.2833,-1.2966,-1.2966,-1.2966,-1.3009,-1.3137,-1.3179,-1.3361,-1.4001,-1.4089,-1.4337,0.0,0.0,0.0,0.0,0.0,0.0,0.0,0.0,0.0,0.0,0.0,0.0,0.0,-1.7582,-1.7483,-1.7232,-1.7378,-1.7384,-1.7179,-1.7378,-1.7836,-1.849,-1.849,-1.8798,-1.9424,-1.9424,0.0,0.0,0.0,0.0,0.0,-1.9424,-1.9424,-1.9366,-1.9301,-1.9307,-1.9366,-1.9301,-1.9307,-1.9424,-1.9424,-1.9424,-1.9424,-1.9424,-1.9424,-1.9424,-1.9424,-1.9424,-1.9424,-1.9424,-1.9424,-1.9424,-1.9424,-1.9424,-1.9424,-1.9424,-1.9424,-1.9424,-1.9424,-1.9424,-1.9424,-1.9424,-1.9424,-1.9424,-1.9424,-1.9424,-1.9424,-1.9424,-1.9424,-1.9424,-1.9424,-1.9424,-1.9424,-1.9424,-1.9424,-1.9424,-1.9424,-1.9424,-1.9424,-1.9424,-1.9424,-1.9424,-1.9424,-1.9424,-1.9424,-1.9424,-1.9424,-1.9424,-1.9424,-1.9424,-1.9424,-1.9424,-1.9424,-1.9424,-1.3077,-1.3179,-1.3264,-1.3228,-1.3307,-1.3307,-1.3052,-1.3094,-1.3222,-1.3222,-1.3222,-1.3264,-1.3398,-1.3398,-1.3587,-1.4129,-1.4289,-1.4566,0.0,0.0,0.0,0.0,0.0,0.0,0.0,0.0,0.0,0.0,0.0,0.0,0.0,-1.7582,-1.7536,-1.7384,-1.7529,-1.7536,-1.7325,-1.7536,-1.7829,-1.8323,-1.8437,-1.8738,-1.9205,-1.9319,0.0,0.0,0.0,0.0,0.0,-1.9424,-1.9424,-1.9424,-1.9424,-1.9424,-1.9424,-1.9424,-1.9424,-1.9424,-1.9424,-1.9424,-1.9424,-1.9424,-1.9424,-1.9424,-1.9424,-1.9424,-1.9424,-1.9424,-1.9424,-1.9424,-1.9424,-1.9424,-1.9424,-1.9424,-1.9424,-1.9424,-1.9424,-1.9424,-1.9424,-1.9424,-1.9424,-1.9424,-1.9424,-1.9424,-1.9424,-1.9424,-1.9424,-1.9424,-1.9424,-1.9424,-1.9424,-1.9424,-1.9424,-1.9424,-1.9424,-1.9424,-1.9424,-1.9424,-1.9424,-1.9424,-1.9424,-1.9424,-1.9424,-1.9424,-1.9424,-1.9424,-1.9424,-1.9424,-1.9424,-1.9424,-1.988,-2.0104,0.0,-1.3137,-1.3222,-1.3398,-1.344,-1.344,-1.3398,-1.3398,0.0,-1.3434,-1.3434,-1.344,-1.344,-1.344,-1.3615,-1.4122,-1.4453,-1.4831,0.0,0.0,0.0,0.0,0.0,0.0,0.0,0.0,0.0,0.0,0.0,0.0,0.0,-1.7582,-1.7582,-1.7582,-1.7582,-1.7582,-1.7582,-1.7582,-1.7736,-1.7995,-1.835,-1.8644,-1.8931,-1.9232,0.0,0.0,0.0,0.0,0.0,-1.9424,-1.9424,-1.9424,-1.9424,-1.9424,-1.9424,-1.9424,-1.9424,-1.9424,-1.9424,-1.9424,-1.9424,-1.9424,-1.9424,-1.9424,-1.9424,-1.9424,-1.9424,-1.9424,-1.9424,-1.9424,-1.9424,-1.9424,-1.9424,-1.9424,-1.9424,-1.9424,-1.9424,-1.9424,-1.9424,-1.9424,-1.9424,-1.9424,-1.9424,-1.9424,-1.9424,-1.9424,-1.9424,-1.9424,-1.9424,-1.9424,-1.9424,-1.9424,-1.9424,-1.9424,-1.9424,-1.9424,-1.9424,-1.9424,-1.9424,-1.9424,-1.9424,-1.9424,-1.9424,-1.9424,-1.9424,-1.9424,-1.9424,-1.9482,-1.954,-1.954,-2.078,-2.1288,-1.3413,0.0,-1.3828,-1.3652,-1.3779,-1.3828,0.0,-1.3525,-1.3652,-1.3652,-1.3652,-1.3695,-1.3913,-1.3955,-1.4054,-1.4389,-1.4681,-1.5018,0.0,0.0,0.0,0.0,0.0,0.0,0.0,0.0,0.0,0.0,0.0,0.0,0.0,-1.7582,-1.7582,-1.7582,-1.7582,-1.7582,-1.7582,-1.7582,-1.7736,-1.7995,-1.835,-1.8644,-1.8931,-1.9232,0.0,0.0,0.0,0.0,-1.9424,-1.9424,-1.9424,-1.9424,-1.9424,-1.9424,-1.9424,-1.9424,-1.9424,-1.9424,-1.9424,-1.9424,-1.9424,-1.9424,-1.9424,-1.9424,-1.9424,-1.9424,-1.9424,-1.9424,-1.9424,-1.9424,-1.9424,-1.9424,-1.9424,-1.9424,-1.9424,-1.9424,-1.9424,-1.9424,-1.9424,-1.9424,-1.9424,-1.9424,-1.9424,-1.9424,-1.9424,-1.9424,-1.9424,-1.9424,-1.9424,-1.9424,-1.9424,-1.9424,-1.9424,-1.9424,-1.9424,-1.9424,-1.9424,-1.9424,-1.9424,-1.9424,-1.9424,-1.9424,-1.9424,-1.9424,-1.9424,-1.9424,-1.9424,-2.0328,-2.078,-2.078,-2.2021,-2.2078,-1.3671,-1.3913,-1.3913,-1.3913,-1.3997,-1.4046,-1.3786,-1.3828,-1.3864,-1.3864,-1.3864,-1.3913,-1.4088,-1.4088,-1.4135,-1.4295,-1.4683,0.0,0.0,0.0,0.0,0.0,0.0,0.0,0.0,0.0,0.0,0.0,0.0,0.0,0.0,-1.7582,-1.7582,-1.7582,-1.7582,-1.7582,-1.7582,-1.7582,-1.7669,-1.7842,-1.8277,-1.8577,-1.8738,-1.9172,-1.9424,0.0,0.0,0.0,-1.9424,-1.9424,-1.9424,-1.9424,-1.9424,-1.9424,-1.9424,-1.9424,-1.9424,-1.9424,-1.9424,-1.9424,-1.9424,-1.9424,-1.9424,-1.9424,-1.9424,-1.9424,-1.9424,-1.9424,-1.9424,-1.9424,-1.9424,-1.9424,-1.9424,-1.9424,-1.9424,-1.9424,-1.9424,-1.9424,-1.9424,-1.9424,-1.9424,-1.9424,-1.9424,-1.9424,-1.9424,-1.9424,-1.9424,-1.9424,-1.9424,-1.9424,-1.9424,-1.9424,-1.9424,-1.9424,-1.9424,-1.9424,-1.9424,-1.9424,-1.9424,-1.9424,-1.9424,-1.9424,-1.9424,-1.9424,-1.9931,-2.0213,-2.0213,-2.146,-2.2021,-2.2021,-2.27,-2.2974,-1.3886,-1.3913,-1.3822,-1.4039,-1.4088,-1.4088,-1.4088,-1.4088,-1.4088,-1.4088,-1.4088,-1.4088,-1.4088,-1.4088,0.0,0.0,0.0,0.0,0.0,0.0,0.0,0.0,0.0,0.0,0.0,0.0,0.0,0.0,0.0,0.0,0.0,-1.7582,-1.7582,-1.7582,-1.7582,-1.7582,-1.7582,-1.7582,-1.7582,-1.7589,-1.815,-1.8444,-1.851,-1.9052,-1.9325,0.0,0.0,0.0,-1.9424,-1.9424,-1.9424,-1.9424,-1.9424,-1.9424,-1.9424,-1.9424,-1.9424,-1.9424,-1.9424,-1.9424,-1.9424,-1.9424,-1.9424,-1.9424,-1.9424,-1.9424,-1.9424,-1.9424,-1.9424,-1.9424,-1.9424,-1.9424,-1.9424,-1.9424,-1.9424,-1.9424,-1.9424,-1.9424,-1.9424,-1.9424,-1.9424,-1.9424,-1.9424,-1.9424,-1.9424,-1.9424,-1.9424,-1.9424,-1.9424,-1.9424,-1.9424,-1.9424,-1.9424,-1.9424,-1.9424,-1.9424,-1.9424,-1.9424,-1.9424,-1.9424,-1.9424,-1.9424,-1.9424,-1.9424,-2.0608,-2.1174,-2.1174,-2.2587,-2.3263,-2.3263,-2.348,-2.3991,-1.3928,-1.4088,-1.4039,-1.4088,-1.4088,-1.4088,-1.4088,-1.4088,-1.4088,-1.4088,-1.4088,-1.4088,-1.4088,-1.4088,-1.4088,0.0,0.0,0.0,0.0,0.0,0.0,0.0,0.0,0.0,0.0,0.0,0.0,0.0,0.0,0.0,0.0,-1.7582,-1.7582,-1.7582,-1.7582,-1.7582,-1.7582,-1.7582,-1.7582,-1.7589,-1.7943,-1.825,-1.8504,-1.8838,-1.9132,0.0,0.0,-1.9424,-1.9424,-1.9424,-1.9424,-1.9424,-1.9424,-1.9424,-1.9424,-1.9424,-1.9424,-1.9424,-1.9424,-1.9424,-1.9424,-1.9424,-1.9424,-1.9424,-1.9424,-1.9424,-1.9424,-1.9424,-1.9424,-1.9424,-1.9424,-1.9424,-1.9424,-1.9424,-1.9424,-1.9424,-1.9424,-1.9424,-1.9424,-1.9424,-1.9424,-1.9424,-1.9424,-1.9424,-1.9424,-1.9424,-1.9424,-1.9424,-1.9424,-1.9424,-1.9424,-1.9424,-1.9424,-1.9424,-1.9424,-1.9424,-1.9424,-1.9424,-1.9424,-1.9424,-1.9424,-1.9424,-1.9424,-1.9424,-2.0608,-2.1174,-2.1231,-2.3432,-2.4501,-2.4556,-2.5569,-2.5624,-1.3928,-1.4088,-1.4088,-1.4088,-1.4088,-1.4088,-1.4088,-1.4088,-1.4088,-1.4088,-1.4088,-1.4088,0.0,0.0,0.0,0.0,0.0,0.0,0.0,0.0,0.0,0.0,0.0,0.0,0.0,0.0,0.0,0.0,0.0,0.0,0.0,0.0,-1.7582,-1.7582,-1.7582,-1.7582,-1.7582,-1.7582,-1.7582,-1.7589,-1.7896,-1.8203,-1.8504,-1.8791,-1.9085,-1.9424,0.0,-1.9424,-1.9424,-1.9424,-1.9424,-1.9424,-1.9424,-1.9424,-1.9424,-1.9424,-1.9424,-1.9424,-1.9424,-1.9424,-1.9424,-1.9424,-1.9424,-1.9424,-1.9424,-1.9424,-1.9424,-1.9424,-1.9424,-1.9424,-1.9424,-1.9424,-1.9424,-1.9424,-1.9424,-1.9424,-1.9424,-1.9424,-1.9424,-1.9424,-1.9424,-1.9424,-1.9424,-1.9424,-1.9424,-1.9424,-1.9424,-1.9424,-1.9424,-1.9424,-1.9424,-1.9424,-1.9424,-1.9424,-1.9424,-1.9424,-1.9424,-1.9424,-1.9424,-1.9424,-1.9424,-2.0046,-2.0385,-2.0385,-2.2191,-2.3151,-2.3143,-2.4898,-2.5798,-2.5798,-2.5679,-2.5794,-1.4171,-1.4412,-1.4412,-1.4412,-1.425,-1.4088,-1.4088,-1.425,-1.4334,-1.413,-1.425,0.0,0.0,0.0,0.0,0.0,0.0,0.0,0.0,0.0,0.0,0.0,0.0,0.0,0.0,0.0,0.0,0.0,0.0,0.0,0.0,0.0,-1.7582,-1.7582,-1.7582,-1.7582,-1.7582,-1.7582,-1.7582,-1.7589,-1.7822,-1.813,-1.8497,-1.8724,-1.9018,-1.9424,-1.9424,-1.9424,-1.9424,-1.9424,-1.9424,-1.9424,-1.9424,-1.9424,-1.9424,-1.9424,-1.9424,-1.9424,-1.9424,-1.9424,-1.9424,-1.9424,-1.9424,-1.9424,-1.9424,-1.9424,-1.9424,-1.9424,-1.9424,-1.9424,-1.9424,-1.9424,-1.9424,-1.9424,-1.9424,-1.9424,-1.9424,-1.9424,-1.9424,-1.9424,-1.9424,-1.9424,-1.9424,-1.9424,-1.9424,-1.9424,-1.9424,-1.9424,-1.9424,-1.9424,-1.954,-1.9764,-1.9822,-1.9822,-1.9822,-1.9822,-1.9822,-1.9822,-1.954,-1.954,-1.9822,-2.0723,-2.1345,-2.1631,-2.3712,-2.4778,-2.4778,-2.6017,-2.6591,-2.6591,-2.5776,-2.6027,-1.4937,-1.5311,-1.5311,-1.5311,-1.4699,-1.4088,-1.4088,-1.4741,-1.5068,-1.425,-1.4741,-1.5068,0.0,0.0,0.0,0.0,0.0,0.0,0.0,0.0,0.0,0.0,0.0,0.0,0.0,0.0,0.0,0.0,0.0,0.0,0.0,0.0,0.0,-1.7582,-1.7582,-1.7582,-1.7582,-1.7582,-1.7582,-1.7582,-1.7602,-1.7923,-1.849,-1.851,-1.8831,-1.9424,-1.9424,-1.9424,-1.9424,-1.9424,-1.9424,-1.9424,-1.9424,-1.9424,-1.9424,-1.9424,-1.9424,-1.9424,-1.9424,-1.9424,-1.9424,-1.9424,-1.9424,-1.9424,-1.9424,-1.9424,-1.9424,-1.9424,-1.9424,-1.9424,-1.9424,-1.9424,-1.9424,-1.9424,-1.9424,-1.9424,-1.9424,-1.9424,-1.9424,-1.9424,-1.9424,-1.9424,-1.9424,-1.9424,-1.9424,-1.9424,-1.9424,-1.9424,-1.9424,-1.9424,-1.9822,-2.0952,-2.106,-2.106,-2.106,-2.106,-2.106,-2.106,-2.0046,-1.988,-2.1002,-2.1174,-2.1744,-2.2869,-2.4158,-2.4778,-2.4778,-2.6017,-2.6591,-2.66,-2.6903,-2.7095,-1.5837,-1.5801,-1.5519,-1.609,-1.5966,-1.5718,-1.5718,-1.556,-1.5311,-1.4992,-1.5151,-1.5167,0.0,0.0,0.0,0.0,0.0,0.0,0.0,0.0,0.0,0.0,0.0,0.0,0.0,0.0,0.0,0.0,0.0,0.0,0.0,0.0,0.0,-1.7582,-1.7582,-1.7582,-1.7582,-1.7582,-1.7582,-1.7582,-1.7582,-1.7809,-1.8223,-1.8404,-1.8711,-1.9098,-1.9285,-1.9424,-1.9424,-1.9424,-1.9424,-1.9424,-1.9424,-1.9424,-1.9424,-1.9424,-1.9424,-1.9424,-1.9424,-1.9424,-1.9424,-1.9424,-1.9424,-1.9424,-1.9424,-1.9424,-1.9424,-1.9424,-1.9424,-1.9424,-1.9424,-1.9424,-1.9424,-1.9424,-1.9424,-1.9424,-1.9424,-1.9424,-1.9424,-1.9424,-1.9424,-1.9424,-1.9424,-1.9424,-1.9424,-1.9424,-1.9424,-1.9649,-2.0443,-2.05,-2.101,-2.2191,-2.2305,-2.2305,-2.2305,-2.2305,-2.2305,-2.2305,-2.1174,-2.0859,-2.1568,-2.2558,-2.3255,-2.3758,-2.5157,-2.5907,-2.5907,-2.6609,-2.6949,-2.6967,-2.7417,-2.7682,-1.6806,-1.6731,-1.6445,-1.6984,-1.7139,-1.7261,-1.7553,-1.6903,-1.6165,-1.5959,-1.6008,-1.5985,-1.5533,0.0,0.0,0.0,0.0,0.0,0.0,0.0,0.0,0.0,0.0,0.0,0.0,0.0,0.0,0.0,0.0,0.0,0.0,0.0,0.0,0.0,-1.7582,-1.7582,-1.7582,-1.7582,-1.7582,-1.7582,-1.7582,-1.7749,-1.8002,-1.8357,-1.8651,-1.8938,-1.9239,-1.9424,-1.9424,-1.9424,-1.9424,-1.9424,-1.9424,-1.9424,-1.9424,-1.9424,-1.9424,-1.9424,-1.9424,-1.9424,-1.9424,-1.9424,-1.9424,-1.9424,-1.9424,-1.9424,-1.9424,-1.9424,-1.9424,-1.9482,-1.988,-1.9707,-1.9482,-1.988,-1.9989,-1.9989,-1.9989,-2.027,-2.0328,-1.954,-1.9707,-1.988,-1.9482,-1.9707,-1.9989,-1.9989,-2.027,-2.0838,-2.168,-2.1794,-2.2248,-2.3424,-2.3935,-2.3991,-2.36,-2.3544,-2.3544,-2.3544,-2.2677,-2.2292,-2.2536,-2.3717,-2.4599,-2.4931,-2.6054,-2.6646,-2.6774,-2.704,-2.7242,-2.737,-2.7774,-2.8113,-1.7774,-1.8149,-1.8261,-1.8078,-1.8189,-1.855,-1.939,-1.8776,-1.7827,-1.7163,-1.7334,-1.7594,-1.7602,-1.8826,0.0,0.0,0.0,0.0,0.0,0.0,0.0,0.0,0.0,0.0,0.0,0.0,0.0,0.0,0.0,0.0,0.0,0.0,0.0,0.0,-1.7582,-1.7582,-1.7635,-1.7635,-1.7635,-1.7635,-1.7635,-1.7742,-1.8002,-1.8357,-1.8644,-1.8931,-1.9239,-1.9424,-1.9424,-1.9424,-1.9424,-1.9424,-1.9424,-1.9424,-1.9424,-1.9424,-1.9424,-1.9424,-1.9424,-1.9424,-1.9424,-1.9424,-1.9424,-1.9424,-1.9424,-1.9424,-1.9424,-1.9424,-1.9424,-1.9707,-2.0895,-2.0328,-1.9764,-2.0952,-2.1231,-2.1231,-2.1231,-2.2135,-2.2305,-1.988,-2.0385,-2.0838,-1.9649,-2.0443,-2.1231,-2.1231,-2.2248,-2.2974,-2.303,-2.3038,-2.3488,-2.4667,-2.5907,-2.6136,-2.4898,-2.4834,-2.4834,-2.4834,-2.4433,-2.4225,-2.4225,-2.4633,-2.5404,-2.6591,-2.6591,-2.6784,-2.7178,-2.7187,-2.7445,-2.784,-2.8205,-2.8397,-1.8661,-1.8598,-1.8421,-1.8984,0.0,0.0,-1.9745,-1.8966,-1.8141,-1.7971,-1.8115,-1.824,-1.8006,0.0,0.0,0.0,0.0,0.0,0.0,0.0,0.0,0.0,0.0,0.0,0.0,0.0,0.0,0.0,0.0,0.0,0.0,0.0,0.0,0.0,-1.7582,-1.7943,-1.8715,-1.8715,-1.9124,-1.9908,-1.9908,-1.913,-1.7736,-1.8257,-1.8537,-1.8644,-1.9145,-1.9424,-1.9424,-1.9424,-1.9424,-1.9424,-1.9424,-1.9424,-1.9424,-1.9424,-1.9424,-1.9424,-1.9424,-1.9424,-1.9424,-1.9424,-1.9424,-1.9424,-1.9424,-1.9424,-1.9597,-2.0443,-2.0673,-2.0945,-2.2135,-2.2191,-2.2021,-2.2361,-2.2474,-2.2474,-2.2474,-2.2078,-2.1794,-2.1907,-2.1517,-2.1345,-2.1851,-2.2248,-2.2474,-2.2474,-2.2749,-2.3311,-2.4167,-2.5008,-2.5679,-2.6017,-2.6418,-2.6473,-2.6081,-2.6081,-2.6081,-2.6081,-2.5944,-2.5881,-2.5881,-2.6008,-2.6245,-2.6582,-2.6995,-2.7188,-2.7178,-2.7756,-2.8095,-2.8214,-2.8618,-2.881,-1.9381,-1.9332,0.0,-1.9627,-1.9912,-2.0059,-2.0059,0.0,0.0,0.0,-1.946,-1.967,-1.9466,0.0,0.0,0.0,0.0,0.0,0.0,0.0,0.0,0.0,0.0,0.0,0.0,0.0,0.0,0.0,0.0,0.0,0.0,0.0,0.0,0.0,-1.8923,-1.9235,-1.9849,-1.9901,-2.021,-2.0885,-2.0885,-2.0218,-1.8893,-1.8987,-1.9015,-1.9161,-1.9334,-1.9424,-1.9424,-1.9424,-1.9424,-1.9424,-1.9424,-1.9424,-1.9424,-1.9424,-1.9424,-1.9424,-1.9424,-1.9424,-1.9482,-1.9931,-1.9764,-1.9482,-1.9989,-1.9764,-1.9649,-2.0838,-2.1174,-2.1574,-2.3263,-2.3712,-2.3712,-2.3712,-2.3712,-2.3712,-2.3712,-2.3544,-2.3263,-2.303,-2.2813,-2.27,-2.2982,-2.3424,-2.3712,-2.3712,-2.4103,-2.4667,-2.5404,-2.6136,-2.6591,-2.6591,-2.6591,-2.6591,-2.6591,-2.6591,-2.6591,-2.6591,-2.6591,-2.6591,-2.6591,-2.6591,-2.6738,-2.7086,-2.7253,-2.7464,-2.7664,-2.8159,-2.8471,-2.8636,-2.8874,-2.8984,-1.9863,-2.0069,-2.0225,-1.9981,-2.0137,0.0,-2.0342,-2.0342,-2.0303,-2.0303,0.0,-2.1495,0.0,0.0,0.0,0.0,0.0,0.0,0.0,0.0,0.0,0.0,0.0,0.0,0.0,0.0,0.0,0.0,0.0,0.0,0.0,0.0,0.0,-2.0885,-2.0885,-2.0936,-2.1038,-2.1038,-2.1089,0.0,-2.1191,-2.1242,-2.1251,-2.0197,-1.9854,-2.0102,-1.9619,-1.954,-1.9707,-1.9597,-1.9655,-1.9707,-1.9707,-1.9649,-1.954,-1.954,-1.9482,-1.9424,-1.954,-1.954,-1.9764,-2.0945,-2.0558,-1.9764,-2.101,-2.05,-1.9822,-2.1174,-2.1509,-2.2078,-2.439,-2.4953,-2.4953,-2.4953,-2.4953,-2.4953,-2.4953,-2.5743,-2.5798,-2.3712,-2.4103,-2.4501,-2.3488,-2.4214,-2.4953,-2.4953,-2.5907,-2.6591,-2.6591,-2.6591,-2.6591,-2.6591,-2.6591,-2.6591,-2.6591,-2.6591,-2.6591,-2.6591,-2.6591,-2.66,-2.6573,-2.6646,-2.7031,-2.7809,-2.7465,-2.7655,-2.8397,-2.8434,-2.8627,-2.8984,-2.8984,-2.8984,-1.9715,-1.999,0.0,-2.0225,-2.0372,-2.0527,-2.0527,-2.0527,-2.0489,-2.0342,-2.0797,0.0,0.0,0.0,0.0,0.0,0.0,0.0,0.0,0.0,0.0,0.0,0.0,0.0,0.0,0.0,0.0,0.0,0.0,0.0,0.0,0.0,0.0,-2.0885,-2.0885,-2.1293,-2.2165,-2.2165,-2.2669,0.0,-2.3578,-2.3678,-2.3935,-2.1018,-2.0033,-2.0548,-1.9715,-2.05,-2.2135,-2.1174,-2.1345,-2.2248,-2.2248,-2.1623,-2.0838,-2.0838,-2.022,-1.954,-2.05,-2.0838,-2.1002,-2.2248,-2.1794,-2.106,-2.2248,-2.1794,-2.1288,-2.3424,-2.4047,-2.4381,-2.5852,-2.619,-2.619,-2.619,-2.619,-2.619,-2.619,-2.5679,-2.5284,-2.5743,-2.5284,-2.5008,-2.5688,-2.6026,-2.619,-2.619,-2.6418,-2.6591,-2.6591,-2.6591,-2.6591,-2.6591,-2.6591,-2.6591,-2.6591,-2.6591,-2.6591,-2.6591,-2.6591,-2.6582,-2.6607,-2.7188,-2.7595,-2.7809,-2.8028,-2.8223,-2.8397,-2.8709,-2.8902,-2.8984,-2.8984,-2.8984,-2.0069,-2.0264,0.0,-2.045,0.0,-2.0605,-2.0605,-2.0605,-2.0625,-2.0722,0.0,0.0,0.0,0.0,0.0,0.0,0.0,0.0,0.0,0.0,0.0,0.0,0.0,0.0,0.0,0.0,0.0,0.0,0.0,0.0,0.0,-2.2391,-2.2299,-2.2811,-2.261,-2.287,-2.3628,-2.3529,-2.3877,-2.4686,-2.4597,-2.4381,-2.4075,-2.2253,-2.1352,-2.1283,-2.0962,-2.1643,-2.2974,-2.2305,-2.241,-2.2974,-2.2974,-2.2644,-2.2078,-2.2078,-2.168,-2.1231,-2.1851,-2.2078,-2.2248,-2.3488,-2.3038,-2.2305,-2.3488,-2.303,-2.2418,-2.427,-2.4778,-2.5064,-2.6309,-2.6591,-2.6591,-2.6591,-2.6591,-2.6591,-2.6591,-2.6136,-2.5852,-2.6473,-2.6081,-2.5852,-2.6473,-2.6591,-2.6591,-2.6591,-2.6591,-2.6591,-2.6591,-2.6591,-2.6591,-2.6591,-2.6591,-2.6591,-2.6591,-2.6591,-2.6601,-2.6573,-2.6591,-2.6616,-2.6578,-2.773,-2.835,-2.835,-2.8321,-2.8412,-2.8682,-2.8883,-2.8984,-2.8984,-2.8984,-2.8984,-2.0489,-2.0566,-2.0605,-2.0605,-2.0605,0.0,-2.0605,-2.0664,-2.0791,0.0,0.0,0.0,0.0,0.0,0.0,0.0,0.0,0.0,0.0,0.0,0.0,0.0,0.0,0.0,0.0,0.0,0.0,0.0,0.0,0.0,-2.4932,-2.3908,-2.3809,-2.4883,-2.4498,-2.4489,-2.4883,-2.4686,-2.4686,-2.499,-2.503,-2.452,-2.3552,-2.3622,-2.3134,-2.2301,-2.2384,-2.2862,-2.36,-2.3424,-2.3432,-2.36,-2.36,-2.3488,-2.3311,-2.3311,-2.3207,-2.3038,-2.3255,-2.3311,-2.3488,-2.4723,-2.427,-2.3544,-2.4723,-2.4278,-2.3544,-2.4778,-2.5119,-2.5348,-2.6364,-2.6591,-2.6591,-2.6591,-2.6591,-2.6591,-2.6591,-2.6591,-2.6591,-2.6591,-2.6591,-2.6591,-2.6591,-2.6591,-2.6591,-2.6591,-2.6591,-2.6591,-2.6591,-2.6591,-2.6591,-2.6591,-2.6591,-2.6591,-2.6591,-2.6582,-2.6619,-2.6725,-2.6881,-2.7015,-2.6981,-2.8281,-2.9021,-2.9018,-2.8566,-2.8577,-2.8984,-2.8984,-2.8984,-2.8984,-2.8984,-2.8984,-2.0381,0.0,-2.0605,0.0,-2.0605,-2.0605,0.0,0.0,-2.1122,0.0,0.0,0.0,0.0,0.0,0.0,0.0,0.0,0.0,0.0,0.0,0.0,0.0,0.0,0.0,0.0,0.0,0.0,0.0,0.0,0.0,-2.5235,-2.5079,-2.4981,-2.4883,-2.4833,-2.4843,-2.4883,-2.4883,-2.4981,-2.5235,-2.5489,-2.5284,-2.4677,-2.493,-2.4551,-2.3745,-2.282,-2.3808,-2.6026,-2.5008,-2.5174,-2.6136,-2.6136,-2.5459,-2.4556,-2.4556,-2.388,-2.3143,-2.4214,-2.4556,-2.4778,-2.5962,-2.5514,-2.4778,-2.5962,-2.5514,-2.4787,-2.6026,-2.6364,-2.6418,-2.6537,-2.6591,-2.6591,-2.6591,-2.6591,-2.6591,-2.6591,-2.6591,-2.6591,-2.6591,-2.6591,-2.6591,-2.6591,-2.6591,-2.6591,-2.6591,-2.6591,-2.6591,-2.6591,-2.6591,-2.6591,-2.6591,-2.6591,-2.6591,-2.6591,-2.6609,-2.6827,-2.7243,-2.8145,-2.868,-2.867,-2.8888,-2.9006,-2.8979,-2.8902,-2.8929,-2.8984,-2.8984,-2.8984,-2.8984,-2.8984,-2.8984,-2.0489,-2.0527,-2.0605,0.0,-2.0605,-2.0674,-2.0879,0.0,0.0,0.0,0.0,0.0,0.0,0.0,0.0,0.0,0.0,0.0,0.0,0.0,0.0,0.0,0.0,0.0,0.0,0.0,0.0,0.0,0.0,-2.5645,-2.5538,-2.5382,-2.5333,-2.5342,-2.5088,-2.5039,-2.5342,-2.5186,-2.5235,-2.5538,-2.5635,-2.5586,-2.5342,-2.5333,-2.5055,-2.4636,-2.4553,-2.5281,-2.6467,-2.6191,-2.6445,-2.7008,-2.6691,-2.6464,-2.6218,-2.5898,-2.556,-2.5322,-2.5679,-2.5798,-2.5907,-2.6418,-2.6245,-2.5907,-2.6418,-2.6245,-2.5907,-2.6473,-2.6591,-2.6591,-2.6591,-2.6591,-2.6591,-2.6591,-2.6591,-2.6591,-2.6591,-2.6591,-2.6591,-2.6591,-2.6591,-2.6591,-2.6591,-2.6591,-2.6591,-2.6591,-2.6591,-2.6591,-2.6591,-2.6591,-2.6591,-2.6591,-2.6591,-2.6738,-2.7032,-2.6994,-2.7305,-2.8264,-2.8459,-2.8679,-2.9,-2.9018,-2.9024,-2.8975,-2.8984,-2.8984,-2.8984,-2.8984,-2.8984,-2.8984,-2.8984,-2.8984,0.0,0.0,-2.0605,-2.0605,-2.0693,-2.082,0.0,0.0,0.0,0.0,0.0,0.0,0.0,0.0,0.0,0.0,0.0,0.0,0.0,0.0,0.0,0.0,0.0,0.0,0.0,0.0,0.0,0.0,0.0,-2.5693,-2.5693,-2.5489,-2.5489,-2.5684,-2.5333,-2.5284,-2.5693,-2.5489,-2.5489,-2.5693,-2.5693,-2.5693,-2.5684,-2.5489,-2.5299,-2.5214,-2.5894,-2.6314,-2.6527,-2.6939,-2.7206,-2.7377,-2.6963,-2.7062,-2.7377,-2.6954,-2.6899,-2.6989,-2.6791,-2.6636,-2.6591,-2.6591,-2.6591,-2.6591,-2.6591,-2.6591,-2.6591,-2.6591,-2.6591,-2.6591,-2.6591,-2.6591,-2.6591,-2.6591,-2.6591,-2.6591,-2.6591,-2.6591,-2.6591,-2.6591,-2.6591,-2.6591,-2.6591,-2.6591,-2.6591,-2.6591,-2.6591,-2.6591,-2.6591,-2.6591,-2.6591,-2.6591,-2.6738,-2.6921,-2.715,-2.7501,-2.7963,-2.8658,-2.8489,-2.8595,-2.8966,-2.8984,-2.8984,-2.8984,-2.8984,-2.8984,-2.8984,-2.8984,-2.8984,-2.8984,-2.8984,-2.8984,0.0,-2.0605,0.0,-2.0605,-2.0889,0.0,0.0,0.0,0.0,0.0,0.0,0.0,0.0,0.0,0.0,0.0,0.0,0.0,0.0,0.0,0.0,0.0,0.0,0.0,0.0,0.0,0.0,0.0,0.0,-2.5693,-2.5693,-2.5693,-2.5693,-2.5693,-2.5684,-2.5684,-2.5693,-2.5693,-2.5693,-2.5693,-2.5693,-2.5693,-2.5693,-2.5693,-2.5547,-2.5312,-2.5923,-2.6418,-2.6801,-2.7207,-2.7377,-2.7377,-2.7377,-2.7377,-2.7377,-2.7377,-2.7215,-2.6989,-2.6989,-2.6791,-2.6591,-2.6591,-2.6591,-2.6591,-2.6591,-2.6591,-2.6591,-2.6591,-2.6591,-2.6591,-2.6591,-2.6591,-2.6591,-2.6591,-2.6591,-2.6591,-2.6591,-2.6591,-2.6591,-2.6591,-2.6591,-2.6591,-2.6591,-2.6591,-2.6591,-2.6591,-2.6591,-2.6591,-2.6591,-2.6591,-2.6591,-2.6591,-2.7059,-2.715,-2.6669,-2.8026,-2.8639,-2.7939,-2.8523,-2.8957,-2.8984,-2.8984,-2.8984,-2.8984,-2.8984,-2.8984,-2.8984,-2.8984,-2.8984,-2.8984,-2.8984,-2.8984,0.0,0.0,0.0,-2.0918,-2.1073,-2.1337,0.0,0.0,0.0,0.0,0.0,0.0,0.0,0.0,0.0,0.0,0.0,0.0,0.0,0.0,0.0,0.0,0.0,0.0,0.0,0.0,0.0,0.0,0.0,0.0,-2.5693,-2.5693,-2.5693,-2.5693,-2.5693,-2.5693,-2.5693,-2.5693,-2.5693,-2.5693,-2.5693,-2.5693,-2.5693,-2.5693,-2.5645,-2.5567,-2.6098,-2.6439,-2.6707,-2.7118,-2.7559,-2.7916,-2.7539,-2.7647,-2.7916,-2.7539,-2.7485,-2.753,-2.7152,-2.6944,-2.6845,-2.6636,-2.6591,-2.6591,-2.6591,-2.6591,-2.6591,-2.6591,-2.6591,-2.6591,-2.6591,-2.6591,-2.6591,-2.6591,-2.6591,-2.6591,-2.6591,-2.6591,-2.6591,-2.6591,-2.6591,-2.6591,-2.6591,-2.6591,-2.6591,-2.6591,-2.6591,-2.6591,-2.6591,-2.6591,-2.6683,-2.694,-2.716,-2.7389,-2.7751,-2.829,-2.8584,-2.86,-2.8824,-2.8984,-2.8984,-2.8984,-2.8984,-2.8984,-2.8984,-2.8984,-2.8984,-2.8984,-2.8984,-2.8984,-2.8984,-2.8984,-2.0752,0.0,0.0,0.0,0.0,-2.1775,0.0,0.0,0.0,0.0,0.0,0.0,0.0,0.0,0.0,0.0,0.0,0.0,0.0,0.0,0.0,0.0,0.0,0.0,0.0,0.0,0.0,0.0,0.0,0.0,-2.5693,-2.5693,-2.5693,-2.5693,-2.5693,-2.5693,-2.5693,-2.5693,-2.5693,-2.5693,-2.5693,-2.5693,-2.5693,-2.5693,-2.5693,-2.5703,-2.6045,-2.6384,-2.6785,-2.7201,-2.7742,-2.8237,-2.7862,-2.797,-2.8237,-2.7862,-2.7809,-2.7853,-2.7422,-2.7206,-2.7098,-2.6954,-2.6854,-2.6854,-2.6854,-2.6854,-2.6854,-2.6854,-2.6854,-2.6854,-2.6854,-2.6854,-2.6854,-2.6854,-2.6854,-2.6854,-2.6854,-2.6745,-2.6591,-2.6591,-2.6591,-2.6591,-2.6591,-2.6591,-2.6591,-2.6591,-2.6591,-2.6591,-2.6591,-2.671,-2.6885,-2.715,-2.7416,-2.7801,-2.8275,-2.8507,-2.8709,-2.8966,-2.8984,-2.8984,-2.8984,-2.8984,-2.8984,-2.8984,-2.9094,-2.9153,-2.9153,-2.9044,-2.8984,-2.8984,-2.9103,-2.9222,0.0,0.0,0.0,0.0,0.0,0.0,-2.2529,0.0,0.0,0.0,0.0,0.0,0.0,0.0,0.0,0.0,0.0,0.0,0.0,0.0,0.0,0.0,0.0,0.0,0.0,0.0,0.0,0.0,0.0,-2.5693,-2.5693,-2.5693,-2.5693,-2.5693,-2.5693,-2.5693,-2.5693,-2.5693,-2.5693,-2.5693,-2.5693,-2.5693,-2.5693,-2.5693,-2.5693,-2.5693,-2.5693,-2.6161,-2.7031,-2.7471,-2.7891,-2.8271,-2.8291,-2.8291,-2.8291,-2.8291,-2.813,-2.7906,-2.7906,-2.7691,-2.7431,-2.7377,-2.7377,-2.7377,-2.7377,-2.7377,-2.7377,-2.7377,-2.7377,-2.7377,-2.7377,-2.7377,-2.7377,-2.7377,-2.7377,-2.7377,-2.7377,-2.7008,-2.6646,-2.6591,-2.6591,-2.6591,-2.6591,-2.6591,-2.6591,-2.6591,-2.6591,-2.6591,-2.6591,-2.693,-2.7187,-2.7252,-2.7911,-2.833,-2.8253,-2.8687,-2.8984,-2.8984,-2.8984,-2.8984,-2.8984,-2.8984,-2.8984,-2.8984,-2.9331,-2.9499,-2.9499,-2.9213,-2.9044,-2.9044,-2.9331,-2.9686,-2.1833,0.0,0.0,0.0,0.0,0.0,-2.2847,-2.3013,0.0,0.0,0.0,0.0,0.0,0.0,0.0,0.0,0.0,0.0,0.0,0.0,0.0,0.0,0.0,0.0,0.0,0.0,0.0,0.0,-2.5488,-2.5693,-2.5693,-2.5693,-2.5693,-2.5693,-2.5693,-2.5693,-2.5693,-2.5693,-2.5693,-2.5693,-2.5693,-2.5693,-2.5693,-2.5693,-2.5693,-2.5693,-2.5693,-2.6045,-2.6592,-2.7021,-2.7451,-2.7871,-2.8174,-2.8291,-2.8291,-2.8291,-2.8237,-2.8184,-2.796,-2.7853,-2.7691,-2.7485,-2.7377,-2.7377,-2.7377,-2.7377,-2.7377,-2.7377,-2.7377,-2.7377,-2.7377,-2.7377,-2.7377,-2.7377,-2.7377,-2.7377,-2.7377,-2.7269,-2.7107,-2.6944,-2.689,-2.6845,-2.6636,-2.6591,-2.6591,-2.6591,-2.6591,-2.6591,-2.6591,-2.7059,-2.7493,-2.7863,-2.8219,-2.8507,-2.8783,-2.8911,-2.8984,-2.8984,-2.8984,-2.8984,-2.8984,-2.9213,-2.939,-2.939,-2.9627,-2.9804,-2.9804,-2.9686,-2.9627,-2.9627,-2.9745,-2.9981,-2.2557,-2.2524,-2.2591,-2.3145,0.0,0.0,-2.3304,-2.3319,-2.3319,0.0,0.0,0.0,0.0,0.0,0.0,0.0,0.0,0.0,0.0,0.0,0.0,0.0,0.0,0.0,0.0,0.0,0.0,-2.5303,-2.5596,-2.5693,-2.5693,-2.5693,-2.5693,-2.5693,-2.5693,-2.5693,-2.5693,-2.5693,-2.5693,-2.5693,-2.5693,-2.5693,-2.5693,-2.5693,-2.5693,-2.5693,-2.5693,-2.5879,-2.6162,-2.6768,-2.7275,-2.7757,-2.8125,-2.8291,-2.8291,-2.8291,-2.8291,-2.8291,-2.813,-2.8077,-2.8014,-2.7862,-2.7755,-2.7755,-2.7755,-2.7755,-2.7755,-2.7755,-2.7755,-2.7755,-2.7755,-2.7755,-2.7755,-2.7755,-2.7755,-2.7755,-2.7755,-2.7755,-2.7647,-2.726,-2.7152,-2.7107,-2.6954,-2.6954,-2.6899,-2.6791,-2.6791,-2.6782,-2.6601,-2.7197,-2.7864,-2.8367,-2.8795,-2.9139,-2.9372,-2.94,-2.94,-2.94,-2.94,-2.94,-2.94,-2.9568,-2.9686,-2.9686,-2.9981,-3.0167,-3.0343,-3.0049,-2.9981,-3.0098,-3.0098,-3.0274,-2.3209,-2.3309,-2.3358,-2.375,0.0,0.0,-2.3754,-2.3667,-2.359,0.0,0.0,0.0,0.0,0.0,0.0,0.0,0.0,0.0,0.0,0.0,0.0,0.0,0.0,0.0,0.0,-2.4848,-2.5075,-2.5712,-2.5742,-2.5693,-2.5693,-2.5693,-2.5693,-2.5693,-2.5693,-2.5693,-2.5693,-2.5693,-2.5693,-2.5693,-2.5693,-2.5693,-2.5693,-2.5693,-2.5693,-2.5693,-2.5693,-2.5693,-2.5752,-2.6611,-2.7197,-2.7689,-2.8105,-2.8291,-2.8291,-2.8291,-2.8291,-2.8291,-2.8291,-2.8291,-2.8291,-2.8291,-2.8291,-2.8291,-2.8291,-2.8291,-2.8291,-2.8291,-2.8291,-2.8291,-2.8291,-2.8291,-2.8291,-2.8291,-2.8291,-2.8291,-2.8291,-2.8291,-2.813,-2.7593,-2.7485,-2.7422,-2.7431,-2.7377,-2.7323,-2.7098,-2.7017,-2.6956,-2.6664,-2.7622,-2.852,-2.9011,-2.9521,-2.9922,-2.9922,-2.9922,-2.9922,-2.9922,-2.9922,-2.9922,-2.9922,-2.9922,-2.9981,-2.9981,-3.0274,-3.0577,-3.0889,-3.0284,-3.0157,-3.045,-3.045,-3.0635,0.0,0.0,0.0,0.0,0.0,0.0,-2.3797,-2.3754,-2.3797,0.0,0.0,0.0,0.0,0.0,0.0,0.0,0.0,0.0,0.0,0.0,0.0,0.0,0.0,0.0,0.0,-2.5031,-2.5159,-2.5935,-2.583,-2.5693,-2.5693,-2.5693,-2.5693,-2.5693,-2.5693,-2.5693,-2.5693,-2.5693,-2.5693,-2.5693,-2.5693,-2.5693,-2.5693,-2.5693,-2.5693,-2.5693,-2.5693,-2.5693,-2.5732,-2.6299,-2.6758,-2.7217,-2.7988,-2.8291,-2.8291,-2.8291,-2.8291,-2.8291,-2.8291,-2.8291,-2.8291,-2.8291,-2.8291,-2.8291,-2.8291,-2.8291,-2.8291,-2.8291,-2.8291,-2.8291,-2.8291,-2.8291,-2.8291,-2.8291,-2.8291,-2.8291,-2.8291,-2.8291,-2.8291,-2.813,-2.796,-2.7691,-2.7431,-2.7377,-2.7377,-2.7323,-2.6956,-2.6692,-2.6627,-2.8795,-3.0343,-3.0478,-3.0131,-2.9922,-2.9922,-2.9922,-2.9922,-2.9922,-2.9922,-2.9922,-2.9922,-3.0157,-3.0333,-3.0333,-3.0635,-3.083,-3.0889,-3.0772,-3.0772,-3.082,-3.082,-3.083,0.0,0.0,0.0,-2.4335,0.0,0.0,0.0,-2.4057,-2.4067,0.0,0.0,0.0,0.0,0.0,0.0,0.0,0.0,0.0,0.0,0.0,0.0,0.0,0.0,0.0,0.0,-2.4927,-2.5061,-2.5704,-2.5702,-2.5781,-2.5868,-2.5781,-2.5781,-2.5917,-2.5781,-2.5693,-2.5693,-2.5693,-2.5693,-2.5693,-2.5693,-2.5693,-2.5693,-2.5693,-2.5693,-2.5693,-2.5693,-2.5693,-2.5723,-2.6211,-2.6631,-2.708,-2.7725,-2.8105,-2.8291,-2.8291,-2.8291,-2.8291,-2.8291,-2.8291,-2.8291,-2.8291,-2.8291,-2.8291,-2.8291,-2.8291,-2.8291,-2.8291,-2.8291,-2.8291,-2.8291,-2.8291,-2.8291,-2.8291,-2.8291,-2.8291,-2.8291,-2.8291,-2.8291,-2.8291,-2.8184,-2.8077,-2.7862,-2.7862,-2.7799,-2.7691,-2.7514,-2.7492,-2.7623,-2.9572,-3.0884,-3.0897,-3.0587,-3.0411,-3.0411,-3.0411,-3.0411,-3.0411,-3.0411,-3.0411,-3.0411,-3.0577,-3.0635,-3.0635,-3.082,-3.0889,-3.0889,-3.0889,-3.0889,-3.0889,-3.0889,-3.0889,0.0,0.0,0.0,0.0,0.0,-2.4282,0.0,0.0,0.0,0.0,0.0,0.0,0.0,0.0,0.0,0.0,0.0,0.0,0.0,0.0,0.0,0.0,0.0,0.0,0.0,-2.4897,-2.5048,-2.5377,-2.5544,-2.578,-2.6091,-2.5868,-2.583,-2.61,-2.583,-2.5693,-2.5693,-2.5693,-2.5693,-2.5693,-2.5693,-2.5693,-2.5693,-2.5693,-2.5693,-2.5693,-2.5693,-2.5693,-2.5713,-2.6113,-2.6562,-2.706,-2.75,-2.792,-2.8291,-2.8291,-2.8291,-2.8291,-2.8291,-2.8291,-2.8291,-2.8291,-2.8291,-2.8291,-2.8291,-2.8291,-2.8291,-2.8291,-2.8291,-2.8291,-2.8291,-2.8291,-2.8291,-2.8291,-2.8291,-2.8291,-2.8291,-2.8291,-2.8291,-2.8291,-2.8291,-2.8291,-2.8291,-2.8291,-2.8257,-2.812,-2.824,-2.8458,-2.8803,-3.0052,-3.0886,-3.0927,-3.0889,-3.0889,-3.0889,-3.0889,-3.0889,-3.0889,-3.0889,-3.0889,-3.0889,-3.0889,-3.0889,-3.0889,-3.0889,-3.0889,-3.0889,-3.0889,-3.0889,-3.0889,-3.0889,-3.0889,0.0,0.0,0.0,0.0,-2.4497,0.0,0.0,0.0,0.0,0.0,0.0,0.0,0.0,0.0,0.0,0.0,0.0,0.0,0.0,0.0,0.0,0.0,0.0,0.0,0.0,0.0,-2.5391,-2.5397,-2.5439,-2.5637,-2.6081,-2.5868,-2.583,-2.61,-2.583,-2.5693,-2.5693,-2.5693,-2.5693,-2.5693,-2.5693,-2.5693,-2.5693,-2.5693,-2.5693,-2.5693,-2.5693,-2.5693,-2.5693,-2.5742,-2.6289,-2.706,-2.75,-2.792,-2.8291,-2.8291,-2.8291,-2.8291,-2.8291,-2.8291,-2.8291,-2.8291,-2.8291,-2.8291,-2.8291,-2.8291,-2.8291,-2.8291,-2.8291,-2.8291,-2.8291,-2.8291,-2.8291,-2.8291,-2.8291,-2.8291,-2.8291,-2.8291,-2.8291,-2.8291,-2.8291,-2.8291,-2.8291,-2.8291,-2.8418,-2.8735,-2.8502,-2.8558,-2.9402,-3.0315,-3.0918,-3.0889,-3.0889,-3.0889,-3.0889,-3.0889,-3.0889,-3.0889,-3.0889,-3.0889,-3.0889,-3.0889,-3.0889,-3.0889,-3.0889,-3.0889,-3.0889,-3.0889,-3.0889,-3.0889,-3.0889,-3.0889,0.0,0.0,0.0,0.0,0.0,0.0,-2.454,0.0,-2.4497,0.0,0.0,0.0,0.0,0.0,0.0,0.0,0.0,0.0,0.0,0.0,0.0,0.0,0.0,0.0,0.0,0.0,0.0,0.0,-2.5391,-2.5772,-2.6151,-2.6164,-2.6207,-2.6352,-2.6062,-2.5868,-2.5693,-2.5693,-2.5693,-2.5693,-2.5693,-2.5693,-2.5693,-2.5868,-2.5868,-2.5684,-2.5868,-2.582,-2.5693,-2.5693,-2.6103,-2.6689,-2.7119,-2.7695,-2.8291,-2.8291,-2.8291,-2.8291,-2.8291,-2.8291,-2.8291,-2.8291,-2.8291,-2.8291,-2.8291,-2.8291,-2.8291,-2.8291,-2.8291,-2.8291,-2.8291,-2.8291,-2.8291,-2.8291,-2.8291,-2.8291,-2.8291,-2.8291,-2.8291,-2.8291,-2.8291,-2.8291,-2.8291,-2.8291,-2.8437,-2.8857,-2.8998,-2.9198,-2.9545,-3.0364,-3.0889,-3.0889,-3.0889,-3.0889,-3.0889,-3.0889,-3.0889,-3.0889,-3.0889,-3.0889,-3.0889,-3.0889,-3.0889,-3.0889,-3.0889,-3.0889,-3.0889,-3.0889,-3.0889,-3.0889,-3.0889,-3.0889,-2.4615,0.0,0.0,0.0,0.0,0.0,0.0,0.0,0.0,0.0,0.0,0.0,0.0,0.0,0.0,-2.4497,0.0,0.0,0.0,0.0,0.0,0.0,0.0,0.0,0.0,0.0,0.0,-2.4805,-2.5235,-2.572,-2.616,-2.6286,-2.6413,-2.6592,-2.6294,-2.6004,-2.583,-2.5732,-2.5693,-2.5693,-2.5693,-2.5693,-2.5684,-2.5955,-2.6004,-2.583,-2.6004,-2.6004,-2.5781,-2.5732,-2.5996,-2.6426,-2.6846,-2.7471,-2.8135,-2.8252,-2.8291,-2.8291,-2.8291,-2.8291,-2.8291,-2.8291,-2.8291,-2.8291,-2.8291,-2.8291,-2.8291,-2.8291,-2.8291,-2.8291,-2.8291,-2.8291,-2.8291,-2.8291,-2.8291,-2.8291,-2.8291,-2.8291,-2.8291,-2.8291,-2.8291,-2.8291,-2.8291,-2.8291,-2.8476,-2.9014,-2.9365,-2.969,-2.9939,-3.0519,-3.0889,-3.0889,-3.0889,-3.0889,-3.0889,-3.0889,-3.0889,-3.0889,-3.0889,-3.0889,-3.0889,-3.0889,-3.0889,-3.0889,-3.0889,-3.0889,-3.0889,-3.0889,-3.0889,-3.0889,-3.0889,-3.0889,0.0,0.0,0.0,-2.4583,0.0,0.0,0.0,0.0,-2.4497,0.0,0.0,0.0,0.0,0.0,-2.4497,-2.4497,-2.4497,0.0,0.0,0.0,0.0,0.0,0.0,0.0,0.0,0.0,0.0,-2.4785,-2.4846,-2.5243,-2.6176,-2.5946,-2.6148,-2.6842,-2.64,-2.61,-2.61,-2.582,-2.5693,-2.5693,-2.5693,-2.5693,-2.5684,-2.5955,-2.61,-2.61,-2.61,-2.61,-2.6052,-2.583,-2.5996,-2.6426,-2.6846,-2.7295,-2.7787,-2.8144,-2.8291,-2.8291,-2.8291,-2.8291,-2.8291,-2.8291,-2.8291,-2.8291,-2.8291,-2.8291,-2.8291,-2.8291,-2.8291,-2.8291,-2.8291,-2.8291,-2.8291,-2.8291,-2.8291,-2.8291,-2.8291,-2.8291,-2.8291,-2.8291,-2.8291,-2.8291,-2.8291,-2.8291,-2.8574,-2.9424,-2.9616,-2.9883,-3.0752,-3.0879,-3.0889,-3.0889,-3.0889,-3.0889,-3.0889,-3.0889,-3.0889,-3.0889,-3.0889,-3.0889,-3.0889,-3.0889,-3.0889,-3.0889,-3.0889,-3.0889,-3.0889,-3.0889,-3.0889,-3.0889,-3.0889,-3.0889,0.0,0.0,-2.5253,-2.4871,0.0,0.0,0.0,0.0,0.0,0.0,0.0,0.0,0.0,-2.4497,-2.4497,-2.4497,-2.4497,-2.4497,0.0,0.0,0.0,0.0,0.0,0.0,0.0,0.0,0.0,-2.4584,-2.4872,-2.519,-2.5499,-2.6018,-2.6371,-2.6441,-2.6547,-2.6448,-2.61,-2.6004,-2.5955,-2.5955,-2.5955,-2.6062,-2.6255,-2.6506,-2.6544,-2.64,-2.722,-2.702,-2.6139,-2.6706,-2.6567,-2.6025,-2.6738,-2.7109,-2.7324,-2.8037,-2.8291,-2.8291,-2.8291,-2.8291,-2.8291,-2.8291,-2.8291,-2.8291,-2.8291,-2.8291,-2.8291,-2.8291,-2.8291,-2.8291,-2.8291,-2.8291,-2.8291,-2.8291,-2.8291,-2.8291,-2.8291,-2.8291,-2.8291,-2.8291,-2.8291,-2.8291,-2.8291,-2.8525,-2.8906,-2.9482,-2.9626,-2.9893,-3.0781,-3.0889,-3.0889,-3.0889,-3.0889,-3.0889,-3.0889,-3.0889,-3.0889,-3.0889,-3.0889,-3.0889,-3.0889,-3.0889,-3.0889,-3.0889,-3.0889,-3.0889,-3.0889,-3.0889,-3.0889,-3.0889,-3.0889,-3.0889,-2.538,-2.5475,0.0,-2.5115,-2.5253,0.0,-2.4871,0.0,0.0,0.0,0.0,0.0,0.0,0.0,-2.454,-2.4615,-2.4583,-2.4497,0.0,-2.4497,0.0,0.0,0.0,0.0,0.0,0.0,-2.4497,-2.4497,-2.4776,-2.5013,0.0,0.0,-2.6357,-2.6346,-2.6703,-2.6747,-2.64,-2.6197,-2.6149,-2.6245,-2.6149,-2.6245,-2.6496,-2.6805,-2.6805,-2.6688,-2.7825,-2.7589,-2.6438,-2.7352,-2.6982,-2.5908,-2.6821,-2.7063,-2.7119,-2.7978,-2.8291,-2.8291,-2.8291,-2.8291,-2.8291,-2.8291,-2.8291,-2.8291,-2.8291,-2.8291,-2.832,-2.8476,-2.8408,-2.833,-2.8476,-2.8408,-2.8291,-2.8291,-2.8291,-2.8291,-2.8291,-2.8291,-2.8291,-2.8291,-2.8291,-2.8291,-2.8291,-2.8643,-2.9062,-2.9502,-2.9612,-2.9906,-3.0791,-3.0889,-3.0889,-3.0889,-3.0889,-3.0889,-3.0889,-3.0889,-3.0889,-3.0889,-3.0889,-3.0889,-3.0889,-3.0889,-3.0889,-3.0889,-3.0889,-3.0889,-3.0889,-3.0889,-3.0889,-3.0889,-3.0889,-3.0889]},{"header":{"parameterUnit":"m.s-1","parameterCategory":1,"la1":30.6,"la2":29.2853,"lo1":-89.7004,"lo2":-87.6739,"dy":0.0162,"dx":0.0183,"nx":112,"ny":82,"refTime":"2024-05-10T06:00:00:Z","depth":0,"parameterNumber":3,"parameterNumberName":"V-component_of_WINDS"},"data":[0.0,0.0,0.0,0.0,0.0,0.0,0.0,0.0,0.0,0.0,0.0,0.0,0.0,0.0,0.0,0.0,0.0,0.0,0.0,0.0,0.0,0.0,0.0,0.0,0.0,0.0,0.0,0.0,0.0,0.0,0.0,0.0,0.0,0.0,0.0,0.0,0.0,0.0,0.0,0.0,0.0,0.0,0.0,0.0,0.0,0.0,0.0,0.0,0.0,0.0,0.0,0.0,0.0,0.0,0.0,0.0,0.0,0.0,0.0,0.0,0.0,0.0,0.0,0.0,0.0,0.0,0.0,0.0,0.0,0.0,0.0,0.0,0.0,0.0,0.0,0.0,0.0,0.0,0.0,0.0,0.0,0.0,0.0,0.0,0.0,0.0,0.0,0.0,0.0,0.0,-3.3998,-3.4245,-3.4173,-3.4023,-3.3815,-3.3643,-3.3615,-3.3788,0.0,0.0,0.0,0.0,0.0,0.0,0.0,0.0,0.0,0.0,0.0,0.0,0.0,0.0,0.0,0.0,0.0,0.0,0.0,0.0,0.0,0.0,0.0,0.0,0.0,0.0,0.0,0.0,0.0,0.0,0.0,0.0,0.0,0.0,0.0,0.0,0.0,0.0,0.0,0.0,0.0,0.0,0.0,0.0,0.0,0.0,0.0,0.0,0.0,0.0,0.0,0.0,0.0,0.0,0.0,0.0,0.0,0.0,0.0,0.0,0.0,0.0,0.0,0.0,0.0,0.0,0.0,0.0,0.0,0.0,0.0,0.0,0.0,0.0,0.0,0.0,0.0,0.0,0.0,0.0,0.0,0.0,0.0,0.0,0.0,0.0,0.0,0.0,0.0,0.0,0.0,0.0,0.0,0.0,0.0,0.0,0.0,0.0,0.0,0.0,0.0,0.0,0.0,0.0,-3.3842,-3.3739,-3.3698,-3.3601,-3.3339,-3.328,-3.328,-3.3291,0.0,0.0,0.0,0.0,0.0,0.0,0.0,0.0,0.0,0.0,0.0,0.0,0.0,0.0,0.0,0.0,0.0,0.0,0.0,0.0,0.0,0.0,0.0,0.0,0.0,0.0,0.0,0.0,0.0,0.0,0.0,0.0,0.0,0.0,0.0,0.0,0.0,0.0,0.0,0.0,0.0,0.0,0.0,0.0,0.0,0.0,0.0,0.0,0.0,0.0,0.0,0.0,0.0,0.0,0.0,0.0,0.0,0.0,0.0,0.0,0.0,0.0,0.0,0.0,0.0,0.0,0.0,0.0,0.0,0.0,0.0,0.0,0.0,0.0,0.0,0.0,0.0,0.0,0.0,0.0,0.0,0.0,0.0,0.0,0.0,0.0,0.0,0.0,0.0,0.0,0.0,0.0,0.0,0.0,0.0,0.0,0.0,0.0,0.0,0.0,0.0,0.0,0.0,-3.4124,-3.4023,-3.3934,-3.3921,-3.3829,-3.3592,-3.3484,-3.3455,-3.3564,-3.3469,0.0,0.0,0.0,0.0,0.0,0.0,0.0,0.0,0.0,0.0,0.0,0.0,0.0,0.0,0.0,0.0,0.0,0.0,0.0,0.0,0.0,0.0,0.0,0.0,0.0,0.0,0.0,0.0,0.0,0.0,0.0,0.0,0.0,0.0,0.0,0.0,0.0,0.0,0.0,0.0,0.0,0.0,0.0,0.0,0.0,0.0,0.0,0.0,0.0,0.0,0.0,0.0,0.0,0.0,0.0,0.0,0.0,0.0,0.0,0.0,0.0,0.0,0.0,0.0,0.0,0.0,0.0,0.0,0.0,0.0,0.0,0.0,0.0,0.0,0.0,0.0,0.0,0.0,0.0,0.0,0.0,0.0,0.0,0.0,0.0,0.0,0.0,0.0,0.0,0.0,0.0,0.0,0.0,0.0,0.0,0.0,0.0,0.0,0.0,0.0,0.0,0.0,-3.4197,-3.4271,-3.4476,-3.4506,-3.4494,-3.4492,-3.4335,-3.4248,-3.4176,-3.4041,0.0,0.0,0.0,0.0,0.0,0.0,0.0,0.0,0.0,0.0,0.0,0.0,0.0,0.0,0.0,0.0,0.0,0.0,0.0,0.0,0.0,0.0,0.0,0.0,0.0,0.0,0.0,0.0,0.0,0.0,0.0,0.0,0.0,0.0,0.0,0.0,0.0,0.0,0.0,0.0,0.0,0.0,0.0,0.0,0.0,0.0,0.0,0.0,0.0,0.0,0.0,0.0,0.0,0.0,0.0,0.0,0.0,0.0,0.0,0.0,0.0,0.0,0.0,0.0,0.0,0.0,0.0,0.0,0.0,0.0,0.0,0.0,0.0,0.0,0.0,0.0,0.0,0.0,0.0,0.0,0.0,0.0,0.0,0.0,0.0,0.0,0.0,0.0,0.0,0.0,0.0,0.0,0.0,0.0,0.0,0.0,0.0,0.0,0.0,0.0,0.0,0.0,-3.4197,-3.4513,-3.5324,-3.5417,-3.5625,-3.6182,-3.621,-3.5846,-3.5068,-3.4999,0.0,0.0,0.0,0.0,0.0,0.0,0.0,0.0,0.0,0.0,0.0,0.0,0.0,0.0,0.0,0.0,0.0,0.0,0.0,0.0,0.0,0.0,0.0,0.0,0.0,0.0,0.0,0.0,0.0,0.0,0.0,0.0,0.0,0.0,0.0,0.0,0.0,0.0,0.0,0.0,0.0,0.0,0.0,0.0,0.0,0.0,0.0,0.0,0.0,0.0,0.0,0.0,0.0,0.0,0.0,0.0,0.0,0.0,0.0,0.0,0.0,0.0,0.0,0.0,0.0,0.0,0.0,0.0,0.0,0.0,0.0,0.0,0.0,0.0,0.0,0.0,0.0,0.0,0.0,0.0,0.0,0.0,0.0,0.0,0.0,0.0,0.0,0.0,0.0,0.0,0.0,0.0,0.0,0.0,0.0,0.0,0.0,0.0,0.0,0.0,0.0,0.0,-3.5757,-3.5869,0.0,-3.6253,-3.6287,-3.6385,-3.6408,-3.6261,-3.5915,0.0,0.0,0.0,0.0,0.0,0.0,0.0,0.0,0.0,0.0,0.0,0.0,0.0,0.0,0.0,0.0,0.0,0.0,0.0,0.0,0.0,0.0,0.0,0.0,0.0,0.0,0.0,0.0,0.0,0.0,0.0,0.0,0.0,0.0,0.0,0.0,0.0,0.0,0.0,0.0,0.0,0.0,0.0,0.0,0.0,0.0,0.0,0.0,0.0,0.0,0.0,0.0,0.0,0.0,0.0,0.0,0.0,0.0,0.0,0.0,0.0,0.0,0.0,0.0,0.0,0.0,0.0,0.0,0.0,0.0,0.0,0.0,0.0,0.0,0.0,0.0,0.0,0.0,0.0,0.0,0.0,0.0,0.0,0.0,0.0,0.0,0.0,0.0,0.0,0.0,0.0,0.0,0.0,0.0,0.0,0.0,0.0,0.0,0.0,0.0,0.0,0.0,-3.663,-3.6699,-3.6811,0.0,-3.7076,-3.7135,-3.7239,-3.7262,-3.7151,-3.6893,0.0,0.0,0.0,0.0,0.0,0.0,0.0,0.0,0.0,0.0,0.0,0.0,0.0,0.0,0.0,0.0,0.0,0.0,0.0,0.0,0.0,0.0,0.0,0.0,0.0,0.0,0.0,0.0,0.0,0.0,0.0,0.0,0.0,0.0,0.0,0.0,0.0,0.0,0.0,0.0,0.0,0.0,0.0,0.0,0.0,0.0,0.0,0.0,0.0,0.0,0.0,0.0,0.0,0.0,0.0,0.0,0.0,0.0,0.0,0.0,0.0,0.0,0.0,0.0,0.0,0.0,0.0,0.0,0.0,0.0,0.0,0.0,0.0,0.0,0.0,0.0,0.0,0.0,0.0,0.0,0.0,0.0,0.0,0.0,0.0,0.0,0.0,0.0,0.0,0.0,0.0,0.0,0.0,0.0,0.0,0.0,0.0,0.0,0.0,0.0,0.0,0.0,-3.6736,-3.6736,-3.7021,-3.7819,-3.7912,-3.8228,-3.9027,-3.9101,-3.8767,0.0,0.0,0.0,0.0,0.0,0.0,0.0,0.0,0.0,0.0,0.0,0.0,0.0,0.0,0.0,0.0,0.0,0.0,0.0,0.0,0.0,0.0,0.0,0.0,0.0,0.0,0.0,0.0,0.0,0.0,0.0,0.0,0.0,0.0,0.0,0.0,0.0,0.0,0.0,0.0,0.0,0.0,0.0,0.0,0.0,0.0,0.0,0.0,0.0,0.0,0.0,0.0,0.0,0.0,0.0,0.0,0.0,0.0,0.0,0.0,0.0,0.0,0.0,0.0,0.0,0.0,0.0,0.0,0.0,0.0,0.0,0.0,0.0,0.0,0.0,0.0,0.0,0.0,0.0,0.0,0.0,0.0,0.0,0.0,0.0,0.0,0.0,0.0,0.0,0.0,0.0,0.0,0.0,0.0,0.0,0.0,0.0,0.0,0.0,0.0,0.0,0.0,0.0,-3.8321,-3.8395,-3.8469,-3.8711,-3.8748,-3.8841,-3.9082,-3.9101,-3.9008,-3.8767,0.0,0.0,0.0,0.0,0.0,0.0,0.0,0.0,0.0,0.0,0.0,0.0,0.0,0.0,0.0,0.0,0.0,0.0,0.0,0.0,0.0,0.0,0.0,0.0,0.0,0.0,0.0,0.0,0.0,0.0,0.0,0.0,0.0,0.0,0.0,0.0,0.0,0.0,0.0,0.0,0.0,0.0,0.0,0.0,0.0,0.0,0.0,0.0,0.0,0.0,0.0,0.0,0.0,0.0,0.0,0.0,0.0,0.0,0.0,0.0,0.0,0.0,0.0,0.0,0.0,0.0,0.0,0.0,0.0,0.0,0.0,0.0,0.0,0.0,0.0,0.0,0.0,0.0,0.0,0.0,0.0,0.0,0.0,0.0,0.0,0.0,0.0,0.0,0.0,0.0,0.0,0.0,0.0,0.0,0.0,0.0,0.0,0.0,0.0,0.0,0.0,0.0,-3.9122,-3.9124,-3.9101,-3.9101,-3.9101,-3.9101,-3.9101,-3.9101,-3.9101,-3.9101,0.0,0.0,0.0,0.0,0.0,0.0,0.0,0.0,0.0,0.0,0.0,0.0,0.0,0.0,0.0,0.0,0.0,0.0,0.0,0.0,0.0,0.0,0.0,0.0,0.0,0.0,0.0,0.0,0.0,0.0,0.0,0.0,0.0,0.0,0.0,0.0,0.0,0.0,0.0,0.0,0.0,0.0,0.0,0.0,0.0,0.0,0.0,0.0,0.0,0.0,0.0,0.0,0.0,0.0,0.0,0.0,0.0,0.0,0.0,0.0,0.0,0.0,0.0,0.0,0.0,0.0,0.0,0.0,0.0,0.0,0.0,0.0,0.0,0.0,0.0,0.0,0.0,0.0,0.0,0.0,0.0,0.0,0.0,0.0,0.0,0.0,0.0,0.0,0.0,0.0,0.0,0.0,0.0,0.0,0.0,0.0,0.0,0.0,0.0,0.0,0.0,0.0,-3.9298,-3.9178,-3.9101,-3.9101,-3.9101,-3.9101,-3.9101,-3.9101,-3.9101,-3.9101,0.0,0.0,0.0,0.0,0.0,0.0,0.0,0.0,0.0,0.0,0.0,0.0,0.0,0.0,0.0,0.0,0.0,0.0,0.0,0.0,0.0,0.0,0.0,0.0,0.0,0.0,0.0,0.0,0.0,0.0,0.0,0.0,0.0,0.0,0.0,0.0,0.0,0.0,0.0,0.0,0.0,0.0,0.0,0.0,0.0,0.0,0.0,0.0,0.0,0.0,0.0,0.0,0.0,0.0,0.0,0.0,0.0,0.0,0.0,0.0,-3.4959,0.0,0.0,0.0,0.0,0.0,0.0,0.0,0.0,0.0,0.0,0.0,0.0,0.0,0.0,0.0,0.0,0.0,0.0,0.0,0.0,0.0,0.0,0.0,0.0,0.0,0.0,0.0,0.0,0.0,0.0,0.0,0.0,0.0,0.0,0.0,0.0,0.0,0.0,0.0,0.0,0.0,-3.9298,-3.9178,-3.9101,-3.9101,-3.9101,-3.9101,-3.9101,-3.9101,-3.9101,-3.9101,-3.9101,0.0,0.0,0.0,0.0,0.0,0.0,0.0,0.0,0.0,0.0,0.0,0.0,0.0,0.0,0.0,0.0,0.0,0.0,0.0,0.0,0.0,0.0,0.0,0.0,0.0,0.0,0.0,0.0,0.0,0.0,0.0,0.0,0.0,0.0,0.0,0.0,0.0,0.0,0.0,0.0,0.0,0.0,0.0,0.0,0.0,0.0,0.0,0.0,0.0,0.0,0.0,0.0,0.0,0.0,0.0,0.0,0.0,0.0,0.0,0.0,-3.5483,0.0,0.0,0.0,0.0,0.0,0.0,0.0,0.0,0.0,0.0,0.0,0.0,0.0,0.0,0.0,0.0,0.0,0.0,0.0,0.0,0.0,0.0,0.0,0.0,0.0,0.0,0.0,0.0,0.0,0.0,0.0,0.0,0.0,0.0,0.0,0.0,0.0,0.0,0.0,0.0,-3.9311,-3.9178,-3.925,-3.9677,-3.9714,-3.9881,-4.0271,-4.029,-4.0141,-3.9751,-3.9714,0.0,0.0,0.0,0.0,0.0,0.0,0.0,0.0,0.0,0.0,0.0,0.0,0.0,0.0,0.0,0.0,0.0,0.0,0.0,0.0,0.0,0.0,0.0,0.0,0.0,0.0,0.0,0.0,0.0,0.0,0.0,0.0,0.0,0.0,0.0,0.0,0.0,0.0,0.0,0.0,0.0,0.0,0.0,0.0,0.0,0.0,0.0,0.0,0.0,0.0,0.0,0.0,0.0,-3.596,-3.6286,-3.696,-3.696,-3.6994,-3.7038,-3.6438,-3.6456,-3.6901,0.0,0.0,0.0,0.0,0.0,0.0,0.0,0.0,0.0,0.0,0.0,0.0,0.0,0.0,0.0,0.0,0.0,0.0,0.0,0.0,0.0,0.0,0.0,0.0,0.0,-3.896,-3.8906,0.0,0.0,0.0,0.0,0.0,0.0,0.0,0.0,0.0,0.0,0.0,0.0,-3.9741,-3.9625,-3.9807,-4.0531,-4.062,-4.0866,-4.1534,-4.159,-4.1311,-4.0657,-4.062,-4.029,0.0,0.0,0.0,0.0,0.0,0.0,0.0,0.0,0.0,0.0,0.0,0.0,0.0,0.0,0.0,0.0,0.0,0.0,0.0,0.0,0.0,0.0,0.0,0.0,0.0,0.0,0.0,0.0,0.0,0.0,0.0,0.0,-3.3821,-3.3793,0.0,0.0,0.0,0.0,0.0,0.0,0.0,0.0,0.0,0.0,0.0,0.0,0.0,-3.5991,-3.6681,-3.6625,-3.6651,-3.6751,-3.6652,-3.6626,-3.6738,-3.6738,-3.7128,-3.7753,-3.7668,0.0,-3.6907,-3.6944,0.0,0.0,0.0,0.0,0.0,0.0,0.0,0.0,0.0,0.0,0.0,0.0,0.0,0.0,0.0,0.0,0.0,0.0,0.0,0.0,0.0,0.0,-3.9073,-3.9101,-3.9073,-3.9073,0.0,-3.9101,-3.9101,-3.9101,-3.9115,0.0,0.0,0.0,0.0,0.0,0.0,0.0,-4.1465,-4.1357,-4.1311,-4.1423,-4.1441,-4.1479,-4.159,-4.159,-4.1553,-4.1441,-4.1441,-4.1386,-4.1274,-4.1256,0.0,0.0,0.0,0.0,0.0,0.0,0.0,0.0,0.0,0.0,0.0,0.0,0.0,0.0,0.0,0.0,0.0,0.0,0.0,0.0,0.0,0.0,0.0,0.0,0.0,0.0,0.0,0.0,0.0,-3.4069,-3.4281,-3.4185,-3.4111,-3.4173,0.0,0.0,0.0,0.0,0.0,0.0,0.0,0.0,0.0,-3.6381,-3.6419,-3.6551,-3.6833,-3.6801,-3.7,-3.7465,-3.74,-3.787,-3.878,-3.878,-3.9212,-3.9974,-3.9974,-3.9812,-3.9476,-3.8605,-3.8297,-3.8389,0.0,0.0,0.0,0.0,-3.906,-3.9086,-3.9308,-3.9401,0.0,0.0,0.0,0.0,0.0,0.0,0.0,0.0,0.0,0.0,0.0,0.0,0.0,-3.9101,-3.9101,-3.9231,-3.9714,-3.9825,-3.9677,0.0,-3.917,-3.9413,-4.0012,0.0,0.0,0.0,0.0,-4.1759,-4.1706,-4.1634,-4.1757,-4.2222,-4.2259,-4.2463,-4.2909,-4.2946,-4.276,-4.2296,-4.2259,-4.2073,-4.1609,-4.159,-4.159,0.0,0.0,0.0,0.0,0.0,0.0,0.0,0.0,0.0,0.0,0.0,0.0,0.0,0.0,0.0,0.0,0.0,0.0,0.0,0.0,0.0,0.0,0.0,0.0,0.0,0.0,0.0,0.0,-3.4386,-3.4328,-3.4281,-3.4086,-3.4086,0.0,0.0,0.0,0.0,0.0,0.0,-3.6035,-3.5912,-3.623,-3.7138,-3.7175,-3.731,-3.7647,-3.7665,-3.8056,-3.8841,-3.8841,-3.9491,-4.0713,-4.0713,-4.1033,-4.159,-4.159,-4.159,-4.1493,-4.0137,-3.9608,-3.961,-3.9489,-3.9477,-3.9502,-3.9458,-3.9452,-3.9439,-3.9298,-3.9245,-3.9232,-3.9142,0.0,-3.9245,-3.9245,0.0,0.0,0.0,0.0,-3.9554,-3.9463,-3.9584,-3.9733,-3.9733,-3.9733,-3.9918,-4.0568,-4.0713,-4.0527,0.0,-3.983,-4.0117,-4.0792,0.0,0.0,0.0,0.0,-4.2336,-4.2218,-4.2203,-4.2445,-4.3039,-4.3113,-4.3355,-4.3949,-4.4005,-4.3745,-4.3132,-4.3113,-4.2835,-4.224,-4.2203,-4.2203,-4.2203,0.0,0.0,0.0,0.0,0.0,0.0,0.0,0.0,0.0,0.0,0.0,0.0,0.0,0.0,0.0,0.0,0.0,0.0,0.0,0.0,0.0,0.0,0.0,0.0,0.0,0.0,0.0,0.0,0.0,-3.3947,-3.4185,0.0,0.0,0.0,0.0,-3.5736,-3.637,-3.6783,-3.6833,-3.672,-3.7015,-3.7814,-3.7851,-3.8613,-4.0211,-4.0211,-4.062,-4.1404,-4.1404,-4.146,-4.1534,-4.1534,-4.1553,-4.159,-4.159,-4.159,-4.1534,-4.0694,-4.0407,-4.0437,-3.9629,-3.9401,-3.9471,-3.9363,-3.9311,-3.9298,-3.917,-3.9115,-3.9115,-3.9101,-3.9115,-3.9115,-3.9115,-3.9115,0.0,0.0,-3.9709,-4.0341,-4.0341,-4.0903,-4.146,-4.146,-4.146,-4.1479,-4.1534,-4.1534,-4.1534,0.0,-4.1475,-4.1537,-4.1717,0.0,-4.2761,-4.293,-4.348,-4.389,-4.3875,-4.3875,-4.3893,-4.3949,-4.3949,-4.3968,-4.4005,-4.4005,-4.3986,-4.3949,-4.3949,-4.3912,-4.3875,-4.3875,-4.3875,-4.3875,-4.3132,0.0,0.0,0.0,0.0,0.0,0.0,0.0,0.0,0.0,0.0,0.0,0.0,0.0,0.0,0.0,0.0,0.0,0.0,0.0,0.0,0.0,0.0,0.0,0.0,0.0,0.0,0.0,0.0,-3.4111,-3.468,0.0,-3.5008,-3.5833,-3.6379,-3.6379,-3.6506,-3.6856,-3.7514,-3.7873,-3.8511,-3.9472,-4.0011,-4.0568,-4.1163,-4.1163,-4.1311,-4.159,-4.159,-4.1869,-4.237,-4.237,-4.2649,-4.3132,-4.3132,-4.3132,-4.3076,-4.2277,-4.1671,-4.1212,-4.0896,-4.0812,-4.0854,-4.0798,-4.0784,-4.077,-4.0746,-4.0698,-4.0698,-4.0698,-4.0698,-4.0698,-4.0698,-4.0698,-4.0698,-4.0698,-4.0921,-4.1163,-4.1163,-4.1386,-4.159,-4.159,-4.159,-4.1739,-4.2259,-4.237,-4.2519,-4.3039,-4.2314,-4.1772,-4.2352,-4.2642,-4.298,-4.3561,-4.385,-4.4005,-4.4005,-4.4488,-4.4841,-4.4841,-4.5305,-4.5602,-4.5602,-4.5602,-4.5602,-4.5602,-4.5602,-4.5602,-4.5602,-4.5101,-4.4841,-4.4841,-4.4005,-4.3578,0.0,0.0,0.0,0.0,0.0,0.0,0.0,0.0,0.0,0.0,0.0,0.0,0.0,0.0,0.0,0.0,0.0,0.0,0.0,0.0,0.0,0.0,0.0,0.0,0.0,0.0,-3.474,-3.4637,-3.5398,-3.59,-3.59,-3.663,-3.7108,-3.7108,-3.7507,-3.8035,-3.8711,-3.9396,-4.0067,-4.0773,-4.1311,-4.172,-4.1999,-4.2259,-4.2556,-4.2853,-4.3113,-4.3522,-4.4042,-4.4042,-4.4339,-4.4841,-4.4841,-4.4841,-4.4804,-4.4265,-4.3726,-4.3132,-4.2017,-4.159,-4.159,-4.159,-4.159,-4.159,-4.159,-4.159,-4.159,-4.159,-4.159,-4.159,-4.159,-4.159,-4.159,-4.159,-4.1794,-4.1999,-4.1999,-4.2203,-4.2407,-4.2407,-4.2407,-4.2556,-4.3095,-4.3206,-4.3355,-4.3893,-4.3132,-4.2575,-4.3113,-4.3206,-4.3485,-4.4302,-4.4432,-4.4544,-4.4804,-4.5342,-4.5695,-4.5695,-4.6178,-4.6494,-4.6494,-4.6494,-4.6494,-4.6494,-4.6494,-4.6494,-4.6494,-4.5992,-4.5695,-4.5695,-4.5138,-4.4841,-4.4841,0.0,0.0,0.0,0.0,0.0,0.0,0.0,0.0,0.0,0.0,0.0,0.0,0.0,0.0,0.0,0.0,0.0,0.0,0.0,0.0,0.0,0.0,0.0,-3.4423,-3.5044,-3.551,-3.5529,-3.6253,-3.6736,-3.6736,-3.7485,-3.7968,-3.7968,-3.9524,-4.0453,-4.0453,-4.12,-4.1627,-4.1627,-4.1683,-4.2092,-4.2872,-4.367,-4.4506,-4.5342,-4.6122,-4.6494,-4.6494,-4.6494,-4.6494,-4.6494,-4.6494,-4.6494,-4.6494,-4.6494,-4.6494,-4.6178,-4.3002,-4.1739,-4.1739,-4.1739,-4.1739,-4.1739,-4.1739,-4.1739,-4.1739,-4.1739,-4.1739,-4.1739,-4.1739,-4.1739,-4.1739,-4.1739,-4.2314,-4.2927,-4.2927,-4.3485,-4.4079,-4.4079,-4.4079,-4.4079,-4.4079,-4.4079,-4.4079,-4.4079,-4.4079,-4.4079,-4.4042,-4.4061,-4.4358,-4.5212,-4.5342,0.0,-4.6401,-4.6513,-4.6531,-4.6531,-4.655,-4.6568,-4.6568,-4.6568,-4.6568,-4.6568,-4.6568,-4.6568,-4.6568,-4.655,-4.6531,-4.6494,-4.6494,-4.6494,-4.6494,0.0,0.0,0.0,0.0,0.0,0.0,0.0,0.0,0.0,0.0,0.0,0.0,0.0,0.0,0.0,0.0,0.0,0.0,0.0,0.0,0.0,0.0,-3.5206,-3.5206,-3.5368,-3.5714,-3.6309,-3.7076,-3.7559,-3.7559,-3.8859,-3.9695,-3.9695,-4.068,-4.1256,-4.1256,-4.2017,-4.2463,-4.2463,-4.3652,-4.4395,-4.4599,-4.5417,-4.5937,-4.616,-4.6382,-4.6494,-4.6494,-4.6494,-4.6494,-4.6494,-4.6494,-4.6494,-4.6494,-4.6494,-4.6494,-4.6401,-4.5509,-4.5138,-4.5138,-4.5138,-4.5138,-4.5138,-4.5138,-4.5138,-4.5138,-4.5138,-4.5138,-4.5138,-4.5138,-4.5138,-4.5138,-4.5138,-4.5305,-4.5472,-4.5472,-4.5639,-4.5807,-4.5807,-4.5807,-4.5807,-4.5807,-4.5807,-4.5807,-4.5807,-4.5807,-4.5621,-4.5026,-4.5435,-4.5881,-4.6122,-4.616,0.0,-4.6475,-4.7014,-4.7367,-4.7367,-4.7887,-4.824,-4.824,-4.824,-4.824,-4.824,-4.824,-4.824,-4.824,-4.7683,-4.7107,-4.6513,-4.6494,-4.6494,0.0,0.0,0.0,0.0,0.0,0.0,0.0,0.0,0.0,0.0,0.0,0.0,0.0,0.0,0.0,0.0,0.0,0.0,0.0,0.0,0.0,0.0,-3.6031,-3.6123,-3.6458,-3.6513,-3.6681,-3.7151,-3.8241,-3.8952,-3.8952,-4.0123,-4.0903,-4.0903,-4.1646,-4.224,-4.2593,-4.3392,-4.4005,-4.4339,-4.5287,-4.5788,-4.5788,-4.6605,-4.6995,-4.7014,-4.7348,-4.7516,-4.7516,-4.7516,-4.7516,0.0,-4.7516,-4.7516,-4.7516,-4.7516,-4.7516,0.0,0.0,0.0,0.0,0.0,-4.6494,-4.6494,-4.6494,-4.6494,-4.6494,-4.6494,-4.6494,-4.6494,-4.6494,-4.6494,-4.6494,-4.6494,-4.6494,-4.6494,-4.6494,-4.6494,-4.6494,-4.6494,-4.6494,-4.6494,-4.6494,-4.6494,-4.6494,-4.6494,-4.6773,0.0,-4.6382,-4.6401,-4.6605,-4.694,-4.6995,-4.7125,-4.746,-4.7906,-4.8203,-4.8203,-4.863,-4.8909,-4.8909,-4.8909,0.0,0.0,0.0,-4.8909,-4.8909,-4.8444,0.0,0.0,0.0,-4.7516,-4.7497,0.0,0.0,0.0,-4.4978,-4.4557,0.0,0.0,0.0,0.0,0.0,0.0,0.0,0.0,0.0,0.0,0.0,0.0,0.0,0.0,0.0,0.0,-3.6835,-3.7113,-3.7912,-3.8116,-3.8172,-3.8172,-3.9491,-4.0453,-4.0527,-4.1256,-4.1739,-4.1739,-4.2575,-4.3392,-4.4116,0.0,0.0,0.0,0.0,-4.6643,-4.6643,-4.7423,-4.785,-4.785,-4.8556,-4.8909,-4.8909,-4.8909,-4.8909,-4.8909,-4.8909,-4.8909,-4.8909,-4.8909,-4.8909,-4.876,-4.733,-4.6773,-4.6773,-4.6773,-4.6773,-4.6773,-4.6773,0.0,0.0,-4.6773,-4.6773,-4.6773,-4.6773,-4.6773,-4.6773,-4.6773,-4.6773,-4.6773,-4.6773,-4.6773,-4.6773,-4.6773,-4.6773,-4.6773,-4.6773,-4.6773,-4.6773,-4.6773,-4.7348,-4.785,-4.785,-4.7237,-4.7014,-4.7738,-4.785,-4.8091,-4.8816,-4.8909,-4.8909,-4.8909,0.0,0.0,-4.8909,-4.8909,-4.8909,-4.8909,-4.8909,-4.8909,-4.8909,-4.8909,-4.8909,-4.8909,-4.8909,-4.8909,-4.8891,-4.8133,-4.7727,-4.7621,-4.6232,-4.5773,0.0,0.0,0.0,0.0,0.0,0.0,0.0,0.0,0.0,0.0,0.0,0.0,0.0,0.0,0.0,-3.7541,-3.7671,-3.7949,-3.8748,-3.9472,-3.9918,-3.9918,-4.0197,-4.0657,-4.1293,-4.2092,-4.2575,-4.2575,-4.3949,-4.4878,-4.5026,-4.5825,0.0,-4.6494,-4.7125,-4.746,-4.746,-4.8277,-4.8667,-4.8667,0.0,0.0,-4.8909,-4.8909,-4.8909,-4.8909,-4.8909,-4.8909,-4.8909,-4.8909,-4.8909,-4.8872,-4.8556,-4.8444,-4.8444,-4.8444,-4.8444,-4.8444,-4.8444,-4.8444,-4.8444,-4.8444,-4.8444,-4.8444,-4.8444,-4.8444,0.0,-4.8444,-4.8444,-4.8444,-4.8444,-4.8444,-4.8444,-4.8444,-4.8444,-4.8444,-4.8444,-4.8444,-4.8444,-4.8444,-4.8556,-4.8667,-4.8667,-4.8537,-4.85,-4.8649,-4.8667,-4.8723,-4.889,-4.8909,-4.8909,-4.8909,-4.8909,-4.8909,-4.8909,-4.8909,-4.8909,-4.8909,-4.8909,-4.8909,-4.8909,-4.8909,-4.8909,-4.8909,-4.8909,-4.8874,-4.8822,-4.8384,-4.7935,-4.7445,-4.6544,-4.6237,0.0,0.0,0.0,0.0,0.0,0.0,0.0,0.0,0.0,0.0,0.0,-3.5751,-3.6551,0.0,-3.7559,-3.8377,-3.8488,-3.8785,-3.9621,-4.0123,-4.0416,-4.0416,-4.1107,-4.1757,-4.2166,-4.3318,-4.4042,-4.4042,-4.5194,-4.6085,-4.6475,-4.6884,-4.7293,-4.7683,-4.8091,-4.8296,-4.8296,-4.8704,-4.8909,-4.8909,-4.8909,-4.8909,-4.8909,-4.8909,-4.8909,-4.8909,-4.8909,-4.8909,-4.8909,-4.8909,-4.8909,-4.8909,-4.8909,-4.8909,-4.8909,-4.8909,-4.8909,-4.8909,-4.8909,-4.8909,-4.8909,-4.8909,-4.8909,-4.8909,-4.8909,-4.8909,-4.8909,-4.8909,-4.8909,-4.8909,-4.8909,-4.8909,-4.8909,-4.8909,-4.8909,-4.8909,-4.8909,-4.8909,-4.8909,-4.8909,-4.8909,-4.8909,-4.8909,-4.8909,-4.8909,-4.8909,-4.8909,-4.8909,-4.8909,-4.8909,-4.8909,-4.8909,-4.8909,-4.8909,-4.8909,-4.8909,-4.8909,-4.8909,-4.8909,-4.8909,-4.8909,-4.8909,-4.8909,-4.8909,-4.8856,-4.884,-4.8787,-4.855,-4.8326,-4.8097,-4.7647,-4.7261,0.0,0.0,0.0,0.0,0.0,0.0,0.0,0.0,-3.4711,-3.5566,-3.5863,-3.6365,-3.7652,-3.8024,-3.8339,-3.899,-3.9231,-3.9602,-4.029,-4.0661,-4.0866,-4.0866,-4.1999,-4.2927,-4.3243,-4.4506,-4.5361,-4.5509,-4.6271,-4.7014,-4.7664,-4.785,-4.824,-4.889,-4.8909,-4.8909,-4.8909,-4.8909,-4.8909,-4.8909,-4.8909,-4.8909,-4.8909,-4.8909,-4.8909,-4.8909,-4.8909,-4.8909,-4.8909,-4.8909,-4.8909,-4.8909,-4.8909,-4.8909,-4.8909,-4.8909,-4.8909,-4.8909,-4.8909,-4.8909,-4.8909,-4.8909,-4.8909,-4.8909,-4.8909,-4.8909,-4.8909,-4.8909,-4.8909,-4.8909,-4.8909,-4.8909,-4.8909,-4.8909,-4.8909,-4.8909,-4.8909,-4.8909,-4.8909,-4.8909,-4.8909,-4.8909,-4.8909,-4.8909,-4.8909,-4.8909,-4.8909,-4.8909,-4.8909,-4.8909,-4.8909,-4.8909,-4.8909,-4.8909,-4.8909,-4.8909,-4.8909,-4.8909,-4.8909,-4.8909,-4.8909,-4.8909,-4.8909,-4.8909,-4.8857,-4.8804,-4.8787,-4.8697,-4.8642,-4.8624,-4.8624,-4.8267,-3.4136,-3.4197,-3.4197,-3.4197,-3.4197,-3.4401,0.0,0.0,-3.5584,-3.6402,-3.7145,-3.7689,-3.7856,-3.8469,-3.9008,-3.9082,-3.9751,-4.029,-4.0383,-4.1627,-4.2519,-4.2519,-4.2686,-4.3373,-4.4878,-4.5175,-4.5602,-4.6308,-4.7107,-4.7608,-4.7701,-4.8389,-4.8816,-4.8909,-4.8909,-4.8909,-4.8909,-4.8909,-4.8909,-4.8909,-4.8909,-4.8909,-4.8909,-4.8909,-4.8909,-4.8909,-4.8909,-4.8909,-4.8909,-4.8909,-4.8909,-4.8909,-4.8909,-4.8909,-4.8909,-4.8909,-4.8909,-4.8909,-4.8909,-4.8909,-4.8909,-4.8909,-4.8909,-4.8909,-4.8909,-4.8909,-4.8909,-4.8909,-4.8909,-4.8909,-4.8909,-4.8909,-4.8909,-4.8909,-4.8909,-4.8909,-4.8909,-4.8909,-4.8909,-4.8909,-4.8909,-4.8909,-4.8909,-4.8909,-4.8909,-4.8909,-4.8909,-4.8909,-4.8909,-4.8909,-4.8909,-4.8909,-4.8909,-4.8909,-4.8909,-4.8909,-4.8909,-4.8909,-4.8909,-4.8909,-4.8909,-4.8909,-4.8909,-4.8909,-4.8891,-4.8856,-4.8787,-4.8787,-4.8514,-4.8018,-4.8421,-4.866,-3.4148,-3.4197,-3.4197,-3.4197,-3.4569,-3.5045,-3.5417,-3.5863,-3.6439,-3.7225,-3.7671,-3.8042,-3.8507,-3.8859,-3.9268,0.0,-4.016,-4.0717,-4.1664,-4.237,-4.2965,-4.3448,-4.3949,-4.4525,-4.5231,-4.5714,-4.6327,-4.7144,-4.7943,-4.8407,-4.8407,-4.8723,-4.8909,-4.8909,-4.8909,-4.8909,-4.8909,-4.8909,-4.8909,-4.8909,-4.8909,-4.8909,-4.8909,-4.8909,-4.8909,-4.8909,-4.8909,-4.8909,-4.8909,-4.8909,-4.8909,-4.8909,-4.8909,-4.8909,-4.8909,-4.8909,-4.8909,-4.8909,-4.8909,-4.8909,-4.8909,-4.8909,-4.8909,-4.8909,-4.8909,-4.8909,-4.8909,-4.8909,-4.8909,-4.8909,-4.8909,-4.8909,-4.8909,-4.8909,-4.8909,-4.8909,-4.8909,-4.8909,-4.8909,-4.8909,-4.8909,-4.8909,-4.8909,-4.8909,-4.8909,-4.8909,-4.8909,-4.8909,-4.8909,-4.8909,-4.8909,-4.8909,-4.8909,-4.8909,-4.8909,-4.8909,-4.8909,-4.8909,-4.8909,-4.8909,-4.8909,-4.8909,-4.8909,-4.8909,-4.8856,-4.884,-4.8787,-4.8715,-4.8605,-4.8439,-4.8624,-4.8769,-3.4161,-3.4197,-3.4253,-3.4494,-3.5027,-3.5621,-3.6067,-3.6606,-3.7262,-3.8061,-3.8228,-3.8414,-3.899,-3.9101,-3.938,-4.0253,-4.0601,-4.1219,-4.2593,-4.2983,-4.3355,-4.3931,-4.4766,-4.5379,-4.5602,-4.6364,-4.7163,-4.798,-4.8574,-4.8909,-4.8909,-4.8909,-4.8909,-4.8909,-4.8909,-4.8909,-4.8909,-4.8909,-4.8909,-4.8909,-4.8909,-4.8909,-4.8909,-4.8909,-4.8909,-4.8909,-4.8909,-4.8909,-4.8909,-4.8909,-4.9039,-4.9243,-4.9243,-4.9392,-4.9596,-4.9596,-4.9299,-4.8909,-4.8909,-4.8909,-4.8909,-4.8909,-4.8909,-4.8909,-4.8909,-4.8909,-4.8909,-4.8909,-4.8909,-4.8909,-4.8909,-4.8909,-4.8909,-4.8909,-4.8909,-4.8909,-4.8909,-4.8909,-4.8909,-4.8909,-4.8909,-4.8891,-4.8874,-4.8874,-4.8856,-4.882,-4.882,-4.8838,-4.8891,-4.8909,-4.8909,-4.8909,-4.8909,-4.8909,-4.8909,-4.8909,-4.8909,-4.8909,-4.8909,-4.8909,-4.8909,-4.8909,-4.8909,-4.8909,-4.8839,-4.884,-4.884,-4.8696,-4.8715,-4.8787,-4.8769,-4.8733,-3.4197,-3.4197,-3.4401,-3.525,-3.5473,-3.5919,-3.7466,-3.7838,-3.8079,-3.8897,-3.9064,-3.9064,-3.9101,-3.9101,-3.938,-4.0253,-4.1051,-4.185,-4.2686,-4.3466,-4.3968,-4.4005,-4.4766,-4.5602,0.0,-4.7181,-4.7999,-4.8797,-4.889,-4.8909,-4.8909,-4.8909,-4.8909,-4.8909,-4.8909,-4.8909,-4.8909,-4.8909,-4.8909,-4.8909,-4.8909,-4.8909,-4.8909,-4.8909,-4.8909,-4.8909,-4.8909,-4.8909,-4.8909,-4.8909,-4.9355,-5.006,-5.006,-5.058,-5.1323,-5.1323,-5.0302,-4.8909,-4.8909,-4.8909,-4.8909,-4.8909,-4.8909,-4.8909,-4.8909,-4.8909,-4.8909,-4.8909,-4.8909,-4.8909,-4.8909,-4.8909,-4.8909,-4.8909,-4.8909,-4.8909,-4.8909,-4.8909,-4.8909,-4.8909,-4.8909,-4.8874,-4.8822,-4.8804,-4.8769,-4.8642,-4.8605,-4.8696,-4.8855,-4.8909,-4.8909,-4.8909,-4.8909,-4.8909,-4.8909,-4.8909,-4.8909,-4.8909,-4.8909,-4.8909,-4.8909,-4.8909,-4.8909,-4.8909,-4.8909,-4.8909,-4.8909,-4.884,-4.8787,-4.8787,-4.866,-4.8605,-3.4197,-3.4606,-3.5138,-3.5436,-3.6309,-3.7225,-3.7782,-3.8302,-3.8767,-3.9045,-3.9101,-3.9101,-3.9101,-3.9101,-3.9565,-4.0958,-4.1423,-4.2073,-4.341,-4.3838,-4.4209,-4.4785,-4.5584,0.0,0.0,0.0,0.0,-4.8834,-4.8909,-4.8909,-4.8909,-4.8909,-4.8909,-4.8909,-4.8909,-4.8909,-4.8909,-4.8909,-4.8909,-4.8909,-4.8909,-4.8909,-4.8909,-4.8909,-4.9187,-4.9707,-4.9707,-5.0023,-5.0562,-5.0562,-5.0729,-5.0971,-5.0971,-5.1138,-5.1398,-5.1398,-5.1045,-5.0562,-5.0562,-5.0562,-5.0562,-5.0562,-5.0562,-5.0562,-5.0562,-5.0562,-5.0562,-5.0562,-5.0562,-5.0562,-5.0562,-5.0562,-5.0562,-5.0562,-5.0562,-5.0562,-5.0562,-5.0562,-5.0544,-5.0453,-5.0435,-5.0398,-5.0324,-4.9862,-4.927,-4.8698,-4.8697,-4.875,-4.8804,-4.8874,-4.8909,-4.8909,-4.8909,-4.8909,-4.8909,-4.8909,-4.8909,-4.8909,-4.8909,-4.8874,-4.884,-4.884,-4.8786,-4.8714,-4.8714,-4.8714,-4.8714,-4.8678,-4.866,-4.866,-4.8605,-4.8569,-3.4569,-3.5083,-3.564,-3.6216,-3.7132,-3.7968,-3.8265,-3.8729,-3.9101,-3.9101,-3.9101,-3.9101,-3.9101,-3.9101,-3.9658,-4.133,-4.159,-4.2166,-4.3763,-4.4005,-4.4321,-4.5194,-4.6011,-4.6828,0.0,0.0,0.0,-4.8872,-4.8909,-4.8909,-4.8909,-4.8909,-4.8909,-4.8909,-4.8909,-4.8909,-4.8909,-4.8909,-4.8909,-4.8909,-4.8909,-4.8909,-4.8909,-4.9206,-4.9615,-5.0135,-5.0432,-5.0878,-5.1398,-5.1398,-5.1565,-5.1825,-5.1825,-5.1992,-5.2271,-5.2271,-5.2271,-5.2178,-5.1602,-5.1398,-5.1398,-5.1398,-5.1398,-5.1398,-5.1398,-5.1398,-5.1398,-5.1398,-5.1398,-5.1398,-5.1398,-5.1398,-5.1398,-5.1398,-5.1398,-5.138,-5.1343,-5.1343,-5.1306,-5.1194,-5.1156,-5.1137,-5.1042,-5.0541,-4.9987,-4.9453,-4.9529,-4.9417,-4.8861,-4.8856,-4.8909,-4.8909,-4.9169,-4.9336,-4.9336,-4.9615,-4.98,-4.98,-4.9746,-4.9693,-4.9657,-4.9621,-4.9584,-4.9492,-4.9492,-4.9492,-4.9492,-4.9455,-4.9417,-4.9417,-4.9398,-4.936,-3.5287,-3.5566,-3.5993,-3.7522,-3.7931,-3.8154,-3.8934,-3.9101,-3.9101,-3.9101,-3.9101,-3.9101,0.0,0.0,-3.9658,-4.133,-4.159,-4.2166,-4.3763,-4.4005,-4.4339,0.0,0.0,0.0,0.0,0.0,0.0,-4.8909,0.0,-4.8909,-4.8909,-4.8909,-4.8909,-4.8909,-4.8909,-4.8909,-4.8909,-4.8909,-4.8909,-4.8909,-4.8946,-4.8964,-4.9002,-4.98,-5.019,-5.0283,-5.1101,-5.1472,-5.1528,-5.1528,-5.1974,-5.2661,-5.2661,-5.3144,-5.3813,-5.3813,-5.3813,-5.359,-5.2048,-5.1528,-5.1528,-5.1528,-5.1528,-5.1528,-5.1528,-5.1528,-5.1528,-5.1528,-5.1528,-5.1528,-5.1528,-5.1528,-5.1528,-5.151,-5.151,-5.1473,-5.1361,-5.1324,-5.1305,-5.1228,-5.1209,-5.1151,-5.0979,-5.0899,-5.0857,-5.082,-5.0981,-5.0563,-4.9102,-4.8969,-4.9021,-4.9003,-4.9708,-5.0154,-5.0154,-5.0915,-5.138,-5.138,-5.1269,-5.1176,-5.1176,-5.1118,-5.1079,-5.1079,-5.1079,-5.1079,-5.1079,-5.0963,-5.0885,-5.0885,-5.0824,-5.0802,-3.5436,-3.6383,-3.7392,-3.7801,-3.8339,-3.8841,-3.9045,-3.9101,-3.9101,-3.9101,-3.9101,-3.9101,0.0,0.0,0.0,-4.133,-4.159,0.0,-4.3763,-4.4005,0.0,-4.6011,0.0,-4.7051,-4.8463,-4.8779,0.0,0.0,-4.8839,-4.8857,-4.8909,-4.8839,-4.8857,-4.8909,-4.8909,-4.8909,-4.8909,-4.8909,-4.8909,-4.8909,-4.9522,-4.98,-4.9819,-5.0692,-5.1398,-5.1974,-5.2197,-5.2624,-5.32,-5.32,-5.3311,-5.3497,-5.3497,-5.3627,-5.3813,-5.3813,-5.3813,-5.3738,-5.333,-5.32,-5.32,-5.32,-5.32,-5.32,-5.32,-5.32,-5.32,-5.32,-5.32,-5.3181,-5.3142,-5.3122,-5.3103,-5.2988,-5.295,-5.2969,-5.2911,-5.2911,-5.2871,-5.2771,-5.2688,-5.2461,-5.1816,-5.1703,-5.1481,-5.0894,-5.0884,-5.0816,-5.0412,-5.0509,-5.0602,-5.0546,-5.0731,-5.086,-5.086,-5.1045,-5.1175,-5.1175,-5.1156,-5.108,-5.0983,-5.0964,-5.0923,-5.0882,-5.0882,-5.0882,-5.0882,-5.0842,-5.0842,-5.0842,-5.0802,-5.0802,-3.5937,-3.6941,-3.7968,-3.8339,-3.8767,-3.9101,-3.9101,-3.9101,-3.9101,-3.9101,-3.9101,-3.9101,-3.9101,-3.9101,0.0,0.0,0.0,0.0,-4.3299,-4.3782,-4.4618,0.0,-4.6494,0.0,-4.8742,-4.8909,-4.8909,0.0,-4.884,-4.884,-4.8909,-4.884,-4.884,-4.8909,-4.8909,-4.8909,-4.8909,-4.8909,-4.8909,-4.8909,-4.9726,-5.0098,-5.0153,-5.1306,-5.2104,-5.2624,0.0,-5.3347,-5.3813,-5.3813,-5.3813,-5.3813,-5.3813,-5.3813,-5.3813,-5.3813,-5.3813,-5.3813,-5.3813,-5.3813,-5.3813,-5.3813,-5.3813,-5.3793,-5.3774,-5.3793,-5.3793,-5.3678,-5.3697,-5.3735,-5.3656,-5.3598,-5.3598,-5.3519,-5.3499,-5.3481,-5.342,-5.34,-5.338,-5.3274,-5.323,-5.3078,-5.2601,-5.2527,-5.238,-5.1922,-5.1912,-5.1934,-5.1912,-5.1465,-5.1137,-5.1099,-5.1412,-5.1634,-5.1634,-5.1948,-5.2151,-5.2151,-5.2112,-5.2034,-5.1954,-5.1932,-5.1889,-5.1848,-5.1848,-5.1848,-5.1848,-5.1848,-5.1848,-5.1848,-5.1848,-5.1848,-3.663,-3.7448,-3.8228,-3.8934,-3.9101,-3.9101,-3.9101,-3.9101,-3.9101,-3.9101,-3.9101,-3.9101,-3.9101,-3.9101,-3.9417,-4.0416,0.0,-4.1924,-4.2835,-4.3559,-4.4618,-4.629,-4.6494,-4.7125,-4.8742,-4.8909,-4.8909,-4.8891,-4.8822,-4.8804,-4.8891,-4.8804,-4.8804,-4.8909,-4.8909,-4.8909,-4.8909,-4.8909,-4.8946,-4.9076,-4.9875,-5.0321,-5.0452,-5.1899,-5.264,-5.2772,0.0,0.0,-5.3793,-5.3793,-5.3813,-5.3813,-5.3813,-5.3813,-5.3813,-5.3813,-5.3813,-5.3813,-5.3813,-5.3793,-5.3793,-5.3813,-5.3793,-5.3793,-5.3715,-5.3716,-5.3717,-5.3559,-5.3578,-5.3636,-5.3519,-5.3461,-5.3479,-5.3459,-5.3459,-5.3439,-5.3318,-5.3277,-5.3274,-5.3206,-5.3185,-5.3185,-5.3185,-5.3185,-5.3185,-5.3185,-5.3254,-5.3274,-5.3206,-5.214,-5.1374,-5.1392,-5.2001,-5.2426,-5.2426,-5.3053,-5.3459,-5.3459,-5.3339,-5.3277,-5.3277,-5.323,-5.3185,-5.3185,-5.3185,-5.3185,-5.3185,-5.3185,-5.3185,-5.3185,-5.3185,-5.3185,-3.7453,-3.8284,-3.8934,-3.9064,-3.9101,-3.9101,-3.9101,-3.9101,0.0,-3.9101,-3.9101,-3.9101,-3.9101,-3.9101,-3.9602,-4.1126,-4.1497,-4.211,-4.3596,-4.3912,-4.4618,0.0,-4.6494,-4.7125,-4.8742,0.0,0.0,0.0,0.0,-4.8714,-4.8891,-4.8732,-4.8714,-4.8891,-4.8909,-4.8909,-4.8909,-4.8909,-4.9243,-4.9912,-5.0766,-5.1454,-5.2028,-5.3028,-5.3434,-5.3356,-5.36,0.0,-5.3715,-5.3774,-5.3813,-5.3813,-5.3813,-5.3813,-5.3813,-5.3813,-5.3813,-5.3813,-5.3813,-5.3774,-5.3734,-5.3774,-5.3774,-5.3715,-5.3695,-5.3617,-5.3541,-5.3519,-5.3519,-5.3499,-5.338,-5.332,-5.3318,-5.3251,-5.3248,-5.3248,-5.3227,-5.3227,-5.3227,-5.3206,-5.3185,-5.3185,-5.3185,-5.3185,-5.3185,-5.3185,-5.3206,-5.3227,-5.3206,-5.3035,-5.2893,-5.2847,-5.2955,-5.3028,-5.3028,-5.3157,-5.3248,-5.3248,-5.3227,-5.3227,-5.3227,-5.3206,-5.3185,-5.3185,-5.3185,-5.3185,-5.3185,-5.3185,-5.3185,-5.3185,-5.3185,-5.3185,-3.7657,-3.8488,-3.9101,-3.9101,-3.9101,-3.9101,-3.9101,0.0,0.0,-3.9101,-3.9101,-3.9101,-3.9101,-3.9101,0.0,-4.0773,-4.133,-4.2017,-4.3206,-4.3745,0.0,-4.629,-4.6494,-4.7125,0.0,0.0,0.0,0.0,0.0,-4.8641,-4.875,-4.8714,-4.875,-4.8909,-4.8909,-4.8909,-4.8909,-4.8909,-4.9282,-5.0064,-5.0971,-5.1714,-5.2376,-5.3209,-5.3558,-5.3499,-5.3499,0.0,-5.3598,-5.3638,-5.3678,-5.3735,-5.3735,-5.3774,-5.3813,-5.3813,-5.3813,-5.3793,-5.3754,-5.3734,-5.3675,-5.3676,-5.3619,-5.3578,-5.3499,-5.3499,-5.3479,-5.3357,-5.3378,-5.3359,-5.3274,-5.3251,-5.3251,-5.3206,-5.3185,-5.3185,-5.3185,-5.3185,-5.3185,-5.3185,-5.3185,-5.3185,-5.3185,-5.3185,-5.3185,-5.3185,-5.3185,-5.3185,-5.3185,-5.323,-5.323,-5.3206,-5.3185,-5.3185,-5.3185,-5.3185,-5.3185,-5.3185,-5.3185,-5.3185,-5.3185,-5.3185,-5.3185,-5.3185,-5.3185,-5.3185,-5.3185,-5.3185,-5.3185,-5.3185,-5.3185,-5.3185,-3.788,-3.8618,-3.9101,-3.9101,-3.9101,-3.9101,-3.9101,-3.9101,-3.9101,-3.9101,-3.9101,-3.9101,-3.9101,-3.9101,-3.9435,0.0,-4.1181,-4.1943,-4.2927,-4.3596,-4.4618,0.0,-4.6494,0.0,-4.8742,0.0,0.0,0.0,0.0,0.0,-4.8587,-4.8697,-4.8786,-4.8874,-4.8874,-4.8874,-4.8874,-4.8874,-4.934,-5.0232,-5.0972,-5.175,-5.2536,-5.3164,-5.3459,-5.3439,-5.3339,0.0,0.0,-5.3499,-5.3558,-5.3656,-5.3694,-5.3716,-5.3736,-5.3774,-5.3755,-5.3736,-5.3695,-5.3636,-5.3596,-5.3499,-5.3459,-5.344,-5.3339,-5.3359,-5.3398,-5.3248,-5.3251,-5.3274,-5.3227,-5.3185,-5.3185,-5.3185,-5.3185,-5.3185,-5.3185,-5.3185,-5.3185,-5.3185,-5.3185,-5.3185,-5.3185,-5.3185,-5.3185,-5.3185,-5.3185,-5.3185,-5.3185,-5.3185,-5.3185,-5.3185,-5.3185,-5.3185,-5.3185,-5.3185,-5.3185,-5.3185,-5.3185,-5.3185,-5.3185,-5.3185,-5.3185,-5.3185,-5.3185,-5.3185,-5.3185,-5.3185,-5.3185,-5.3185,-5.3185,-5.3185,-3.8553,-3.9045,-3.9101,-3.9101,-3.9101,-3.9101,-3.9101,0.0,-3.9101,-3.9101,-3.9101,-3.9101,-3.9101,-3.9101,-3.9621,-4.1219,-4.1553,-4.2129,-4.367,-4.3949,-4.4618,-4.629,0.0,0.0,0.0,0.0,0.0,0.0,0.0,0.0,-4.8494,-4.8569,-4.8678,-4.8804,-4.8804,-4.8804,-4.8804,-4.8804,-4.9547,-5.0988,-5.1081,-5.1853,-5.3208,-5.3263,-5.3295,-5.3227,-5.3295,0.0,0.0,-5.344,-5.3519,-5.3519,-5.3656,-5.3636,-5.3539,-5.3657,-5.3617,-5.3539,-5.3519,-5.344,-5.3339,-5.3318,-5.3318,-5.3318,-5.33,-5.3274,-5.3227,-5.3206,-5.3206,-5.3206,-5.3206,-5.3185,-5.3185,-5.3185,-5.3185,-5.3185,-5.3185,-5.3185,-5.3185,-5.3185,-5.3185,-5.3185,-5.3185,-5.3185,-5.3185,-5.3185,-5.3185,-5.3185,-5.3185,-5.3185,-5.3185,-5.3185,-5.3185,-5.3185,-5.3185,-5.3185,-5.3185,-5.3185,-5.3185,-5.3185,-5.3185,-5.3185,-5.3185,-5.3185,-5.3185,-5.3185,-5.3185,-5.3185,-5.3185,-5.3185,-5.3185,-5.3185,-3.8628,-3.9101,-3.9101,-3.9101,-3.9101,-3.9101,-3.9101,0.0,-3.9101,-3.9101,-3.9101,-3.9101,-3.9101,-3.9101,-3.9658,-4.133,-4.159,-4.2166,-4.3763,-4.4005,-4.4432,-4.5639,-4.6129,0.0,0.0,0.0,0.0,0.0,0.0,0.0,-4.8382,-4.8476,-4.8624,-4.8787,-4.8715,-4.8715,-4.8787,-4.8715,-4.9436,-5.0964,-5.106,-5.185,-5.3251,-5.3277,-5.3274,-5.3206,-5.323,0.0,0.0,-5.3293,-5.3336,-5.338,-5.3439,-5.3479,-5.3519,-5.3558,-5.3558,-5.3499,-5.34,-5.3359,-5.3279,-5.3254,-5.3251,-5.3251,-5.3251,-5.3209,-5.3185,-5.3185,-5.3185,-5.3185,-5.3185,-5.3185,-5.3185,-5.3185,-5.3185,-5.3185,-5.3185,-5.3185,-5.3185,-5.3185,-5.3185,-5.3185,-5.3185,-5.3185,-5.3185,-5.3185,-5.3185,-5.3185,-5.3185,-5.3185,-5.3185,-5.3185,-5.3185,-5.3185,-5.3185,-5.3185,-5.3185,-5.3185,-5.3185,-5.3185,-5.3185,-5.3185,-5.3185,-5.3185,-5.3185,-5.3185,-5.3185,-5.3185,-5.3185,-5.3185,-5.3185,-5.3185,-3.8628,-3.9101,-3.9101,-3.9101,-3.9101,-3.9101,-3.9101,-3.9101,-3.9101,-3.9101,-3.9101,-3.9101,-3.9101,-3.9101,-3.964,-4.1301,-4.1579,-4.2121,-4.3722,-4.3961,-4.4382,0.0,0.0,0.0,0.0,0.0,0.0,0.0,0.0,0.0,0.0,-4.8382,-4.8532,-4.8697,-4.8624,-4.8624,-4.8697,-4.8624,-4.9343,-5.0884,-5.0963,-5.1788,-5.3206,-5.3251,-5.3233,-5.3185,0.0,0.0,0.0,-5.3185,-5.323,-5.3256,-5.3297,-5.3339,-5.3418,-5.342,-5.3439,-5.3398,-5.3316,-5.3274,-5.3254,-5.3227,-5.3185,-5.3185,-5.3185,-5.3185,-5.3185,-5.3185,-5.3185,-5.3185,-5.3185,-5.3185,-5.3185,-5.3185,-5.3185,-5.3185,-5.3185,-5.3185,-5.3185,-5.3185,-5.3185,-5.3185,-5.3185,-5.3185,-5.3185,-5.3185,-5.3185,-5.3185,-5.3185,-5.3185,-5.3185,-5.3185,-5.3185,-5.3185,-5.3185,-5.3185,-5.3185,-5.3185,-5.3185,-5.3185,-5.3185,-5.3185,-5.3185,-5.3185,-5.3185,-5.3185,-5.3185,-5.3185,-5.3185,-5.3185,-5.3185,-5.3185,-3.8641,-3.9101,-3.9101,-3.9101,-3.9101,-3.9101,-3.9101,-3.9101,-3.9101,-3.9101,-3.9101,-3.9101,-3.9101,-3.9101,-3.963,-4.1245,-4.1508,-4.2051,-4.3599,-4.3867,0.0,0.0,0.0,0.0,0.0,0.0,0.0,0.0,0.0,0.0,0.0,-4.8306,-4.8363,-4.8513,-4.8513,-4.8513,-4.8513,-4.8513,-4.9284,-5.0802,-5.0802,-5.1646,-5.3185,-5.3185,-5.3185,0.0,0.0,0.0,0.0,-5.3185,-5.3185,-5.3206,-5.3256,-5.3254,-5.3206,-5.3295,-5.3254,-5.3206,-5.3206,-5.3206,-5.3185,-5.3185,-5.3185,-5.3185,-5.3185,-5.3185,-5.3185,-5.3185,-5.3185,-5.3185,-5.3185,-5.3185,-5.3185,-5.3185,-5.3185,-5.3185,-5.3185,-5.3185,-5.3185,-5.3185,-5.3185,-5.3185,-5.3185,-5.3185,-5.3185,-5.3185,-5.3185,-5.3185,-5.3185,-5.3185,-5.3185,-5.3185,-5.3185,-5.3185,-5.3185,-5.3185,-5.3185,-5.3185,-5.3185,-5.3185,-5.3185,-5.3185,-5.3185,-5.3185,-5.3185,-5.3185,-5.3185,-5.3185,-5.3185,-5.3185,-5.3185,-5.3185,-3.8563,-3.9007,-3.8979,-3.9021,-3.8993,-3.8993,-3.9073,-3.9059,-3.9036,-3.9036,-3.9036,-3.9021,-3.8979,-3.8964,-3.9501,-4.1098,-4.1357,-4.1933,0.0,0.0,0.0,0.0,0.0,0.0,0.0,0.0,0.0,0.0,0.0,0.0,0.0,-4.8306,-4.8363,-4.8494,-4.8401,-4.8419,-4.8513,-4.8401,-4.917,-5.0802,-5.0802,-5.1646,-5.3185,-5.3185,0.0,0.0,0.0,0.0,0.0,-5.3185,-5.3185,-5.3206,-5.3209,-5.3227,-5.3206,-5.3209,-5.3227,-5.3185,-5.3185,-5.3185,-5.3185,-5.3185,-5.3185,-5.3185,-5.3185,-5.3185,-5.3185,-5.3185,-5.3185,-5.3185,-5.3185,-5.3185,-5.3185,-5.3185,-5.3185,-5.3185,-5.3185,-5.3185,-5.3185,-5.3185,-5.3185,-5.3185,-5.3185,-5.3185,-5.3185,-5.3185,-5.3185,-5.3185,-5.3185,-5.3185,-5.3185,-5.3185,-5.3185,-5.3185,-5.3185,-5.3185,-5.3185,-5.3185,-5.3185,-5.3185,-5.3185,-5.3185,-5.3185,-5.3185,-5.3185,-5.3185,-5.3185,-5.3185,-5.3185,-5.3185,-5.3185,-5.3185,-3.8524,-3.8964,-3.8935,-3.8968,-3.8921,-3.8921,-3.9007,-3.8993,-3.895,-3.895,-3.895,-3.8935,-3.891,-3.891,-3.932,-4.06,-4.1061,-4.1709,0.0,0.0,0.0,0.0,0.0,0.0,0.0,0.0,0.0,0.0,0.0,0.0,0.0,-4.8306,-4.8343,-4.8419,-4.8325,-4.8343,-4.842,-4.8343,-4.8985,-5.0343,-5.0655,-5.1481,-5.2766,-5.3078,0.0,0.0,0.0,0.0,0.0,-5.3185,-5.3185,-5.3185,-5.3185,-5.3185,-5.3185,-5.3185,-5.3185,-5.3185,-5.3185,-5.3185,-5.3185,-5.3185,-5.3185,-5.3185,-5.3185,-5.3185,-5.3185,-5.3185,-5.3185,-5.3185,-5.3185,-5.3185,-5.3185,-5.3185,-5.3185,-5.3185,-5.3185,-5.3185,-5.3185,-5.3185,-5.3185,-5.3185,-5.3185,-5.3185,-5.3185,-5.3185,-5.3185,-5.3185,-5.3185,-5.3185,-5.3185,-5.3185,-5.3185,-5.3185,-5.3185,-5.3185,-5.3185,-5.3185,-5.3185,-5.3185,-5.3185,-5.3185,-5.3185,-5.3185,-5.3185,-5.3185,-5.3185,-5.3185,-5.3185,-5.3185,-5.2995,-5.289,0.0,-3.8979,-3.895,-3.891,-3.8896,-3.8896,-3.891,-3.891,0.0,-3.8877,-3.8877,-3.8896,-3.8896,-3.8896,-3.9124,-3.9878,-4.0672,-4.145,0.0,0.0,0.0,0.0,0.0,0.0,0.0,0.0,0.0,0.0,0.0,0.0,0.0,-4.8306,-4.8306,-4.8306,-4.8306,-4.8306,-4.8306,-4.8306,-4.8728,-4.961,-5.0417,-5.1224,-5.2013,-5.2839,0.0,0.0,0.0,0.0,0.0,-5.3185,-5.3185,-5.3185,-5.3185,-5.3185,-5.3185,-5.3185,-5.3185,-5.3185,-5.3185,-5.3185,-5.3185,-5.3185,-5.3185,-5.3185,-5.3185,-5.3185,-5.3185,-5.3185,-5.3185,-5.3185,-5.3185,-5.3185,-5.3185,-5.3185,-5.3185,-5.3185,-5.3185,-5.3185,-5.3185,-5.3185,-5.3185,-5.3185,-5.3185,-5.3185,-5.3185,-5.3185,-5.3185,-5.3185,-5.3185,-5.3185,-5.3185,-5.3185,-5.3185,-5.3185,-5.3185,-5.3185,-5.3185,-5.3185,-5.3185,-5.3185,-5.3185,-5.3185,-5.3185,-5.3185,-5.3185,-5.3185,-5.3185,-5.3164,-5.3143,-5.3143,-5.2586,-5.2361,-3.8409,0.0,-3.878,-3.8822,-3.8777,-3.878,0.0,-3.8866,-3.8822,-3.8822,-3.8822,-3.8807,-3.875,-3.8735,-3.901,-3.9803,-4.0611,-4.1403,0.0,0.0,0.0,0.0,0.0,0.0,0.0,0.0,0.0,0.0,0.0,0.0,0.0,-4.8306,-4.8306,-4.8306,-4.8306,-4.8306,-4.8306,-4.8306,-4.8728,-4.961,-5.0417,-5.1224,-5.2013,-5.2839,0.0,0.0,0.0,0.0,-5.3185,-5.3185,-5.3185,-5.3185,-5.3185,-5.3185,-5.3185,-5.3185,-5.3185,-5.3185,-5.3185,-5.3185,-5.3185,-5.3185,-5.3185,-5.3185,-5.3185,-5.3185,-5.3185,-5.3185,-5.3185,-5.3185,-5.3185,-5.3185,-5.3185,-5.3185,-5.3185,-5.3185,-5.3185,-5.3185,-5.3185,-5.3185,-5.3185,-5.3185,-5.3185,-5.3185,-5.3185,-5.3185,-5.3185,-5.3185,-5.3185,-5.3185,-5.3185,-5.3185,-5.3185,-5.3185,-5.3185,-5.3185,-5.3185,-5.3185,-5.3185,-5.3185,-5.3185,-5.3185,-5.3185,-5.3185,-5.3185,-5.3185,-5.3185,-5.2783,-5.2586,-5.2586,-5.2036,-5.2012,-3.8339,-3.875,-3.875,-3.875,-3.8719,-3.8723,-3.8795,-3.878,-3.8747,-3.8747,-3.8747,-3.875,-3.8707,-3.8707,-3.8836,-3.9276,-4.0341,0.0,0.0,0.0,0.0,0.0,0.0,0.0,0.0,0.0,0.0,0.0,0.0,0.0,0.0,-4.8306,-4.8306,-4.8306,-4.8306,-4.8306,-4.8306,-4.8306,-4.8545,-4.9022,-5.0215,-5.1041,-5.1481,-5.2674,-5.3185,0.0,0.0,0.0,-5.3185,-5.3185,-5.3185,-5.3185,-5.3185,-5.3185,-5.3185,-5.3185,-5.3185,-5.3185,-5.3185,-5.3185,-5.3185,-5.3185,-5.3185,-5.3185,-5.3185,-5.3185,-5.3185,-5.3185,-5.3185,-5.3185,-5.3185,-5.3185,-5.3185,-5.3185,-5.3185,-5.3185,-5.3185,-5.3185,-5.3185,-5.3185,-5.3185,-5.3185,-5.3185,-5.3185,-5.3185,-5.3185,-5.3185,-5.3185,-5.3185,-5.3185,-5.3185,-5.3185,-5.3185,-5.3185,-5.3185,-5.3185,-5.3185,-5.3185,-5.3185,-5.3185,-5.3185,-5.3185,-5.3185,-5.3185,-5.2955,-5.2828,-5.2828,-5.2291,-5.2036,-5.2036,-5.1743,-5.1601,-3.8282,-3.875,-3.8762,-3.8704,-3.8707,-3.8707,-3.8707,-3.8707,-3.8707,-3.8707,-3.8707,-3.8707,-3.8707,-3.8707,0.0,0.0,0.0,0.0,0.0,0.0,0.0,0.0,0.0,0.0,0.0,0.0,0.0,0.0,0.0,0.0,0.0,-4.8306,-4.8306,-4.8306,-4.8306,-4.8306,-4.8306,-4.8306,-4.8306,-4.8324,-4.9866,-5.0674,-5.0857,-5.2344,-5.3096,0.0,0.0,0.0,-5.3185,-5.3185,-5.3185,-5.3185,-5.3185,-5.3185,-5.3185,-5.3185,-5.3185,-5.3185,-5.3185,-5.3185,-5.3185,-5.3185,-5.3185,-5.3185,-5.3185,-5.3185,-5.3185,-5.3185,-5.3185,-5.3185,-5.3185,-5.3185,-5.3185,-5.3185,-5.3185,-5.3185,-5.3185,-5.3185,-5.3185,-5.3185,-5.3185,-5.3185,-5.3185,-5.3185,-5.3185,-5.3185,-5.3185,-5.3185,-5.3185,-5.3185,-5.3185,-5.3185,-5.3185,-5.3185,-5.3185,-5.3185,-5.3185,-5.3185,-5.3185,-5.3185,-5.3185,-5.3185,-5.3185,-5.3185,-5.2654,-5.2408,-5.2408,-5.1793,-5.1493,-5.1493,-5.1373,-5.1158,-3.8267,-3.8707,-3.8704,-3.8707,-3.8707,-3.8707,-3.8707,-3.8707,-3.8707,-3.8707,-3.8707,-3.8707,-3.8707,-3.8707,-3.8707,0.0,0.0,0.0,0.0,0.0,0.0,0.0,0.0,0.0,0.0,0.0,0.0,0.0,0.0,0.0,0.0,-4.8306,-4.8306,-4.8306,-4.8306,-4.8306,-4.8306,-4.8306,-4.8306,-4.8324,-4.9297,-5.0141,-5.0839,-5.1756,-5.2564,0.0,0.0,-5.3185,-5.3185,-5.3185,-5.3185,-5.3185,-5.3185,-5.3185,-5.3185,-5.3185,-5.3185,-5.3185,-5.3185,-5.3185,-5.3185,-5.3185,-5.3185,-5.3185,-5.3185,-5.3185,-5.3185,-5.3185,-5.3185,-5.3185,-5.3185,-5.3185,-5.3185,-5.3185,-5.3185,-5.3185,-5.3185,-5.3185,-5.3185,-5.3185,-5.3185,-5.3185,-5.3185,-5.3185,-5.3185,-5.3185,-5.3185,-5.3185,-5.3185,-5.3185,-5.3185,-5.3185,-5.3185,-5.3185,-5.3185,-5.3185,-5.3185,-5.3185,-5.3185,-5.3185,-5.3185,-5.3185,-5.3185,-5.3185,-5.2654,-5.2408,-5.2384,-5.1416,-5.0937,-5.091,-5.0453,-5.0425,-3.8267,-3.8707,-3.8707,-3.8707,-3.8707,-3.8707,-3.8707,-3.8707,-3.8707,-3.8707,-3.8707,-3.8707,0.0,0.0,0.0,0.0,0.0,0.0,0.0,0.0,0.0,0.0,0.0,0.0,0.0,0.0,0.0,0.0,0.0,0.0,0.0,0.0,-4.8306,-4.8306,-4.8306,-4.8306,-4.8306,-4.8306,-4.8306,-4.8324,-4.9169,-5.0013,-5.0839,-5.1628,-5.2435,-5.3185,0.0,-5.3185,-5.3185,-5.3185,-5.3185,-5.3185,-5.3185,-5.3185,-5.3185,-5.3185,-5.3185,-5.3185,-5.3185,-5.3185,-5.3185,-5.3185,-5.3185,-5.3185,-5.3185,-5.3185,-5.3185,-5.3185,-5.3185,-5.3185,-5.3185,-5.3185,-5.3185,-5.3185,-5.3185,-5.3185,-5.3185,-5.3185,-5.3185,-5.3185,-5.3185,-5.3185,-5.3185,-5.3185,-5.3185,-5.3185,-5.3185,-5.3185,-5.3185,-5.3185,-5.3185,-5.3185,-5.3185,-5.3185,-5.3185,-5.3185,-5.3185,-5.3185,-5.3185,-5.3185,-5.3185,-5.2912,-5.2761,-5.2761,-5.1964,-5.1543,-5.1525,-5.0766,-5.0359,-5.0359,-5.0397,-5.0624,-3.8156,-3.8546,-3.8546,-3.8546,-3.8627,-3.8707,-3.8707,-3.8627,-3.8596,-3.8692,-3.8627,0.0,0.0,0.0,0.0,0.0,0.0,0.0,0.0,0.0,0.0,0.0,0.0,0.0,0.0,0.0,0.0,0.0,0.0,0.0,0.0,0.0,-4.8306,-4.8306,-4.8306,-4.8306,-4.8306,-4.8306,-4.8306,-4.8324,-4.8967,-4.9811,-5.082,-5.1444,-5.2252,-5.3185,-5.3185,-5.3185,-5.3185,-5.3185,-5.3185,-5.3185,-5.3185,-5.3185,-5.3185,-5.3185,-5.3185,-5.3185,-5.3185,-5.3185,-5.3185,-5.3185,-5.3185,-5.3185,-5.3185,-5.3185,-5.3185,-5.3185,-5.3185,-5.3185,-5.3185,-5.3185,-5.3185,-5.3185,-5.3185,-5.3185,-5.3185,-5.3185,-5.3185,-5.3185,-5.3185,-5.3185,-5.3185,-5.3185,-5.3185,-5.3185,-5.3185,-5.3185,-5.3185,-5.3185,-5.3143,-5.3039,-5.3017,-5.3017,-5.3017,-5.3017,-5.3017,-5.3017,-5.3143,-5.3143,-5.3017,-5.2608,-5.2338,-5.2221,-5.1288,-5.0803,-5.0803,-5.0246,-5.0011,-5.0011,-5.0589,-5.0943,-3.78,-3.8135,-3.8135,-3.8135,-3.8417,-3.8707,-3.8707,-3.8401,-3.8252,-3.8627,-3.8401,-3.8252,0.0,0.0,0.0,0.0,0.0,0.0,0.0,0.0,0.0,0.0,0.0,0.0,0.0,0.0,0.0,0.0,0.0,0.0,0.0,0.0,0.0,-4.8306,-4.8306,-4.8306,-4.8306,-4.8306,-4.8306,-4.8306,-4.8361,-4.9242,-5.0802,-5.0857,-5.1738,-5.3185,-5.3185,-5.3185,-5.3185,-5.3185,-5.3185,-5.3185,-5.3185,-5.3185,-5.3185,-5.3185,-5.3185,-5.3185,-5.3185,-5.3185,-5.3185,-5.3185,-5.3185,-5.3185,-5.3185,-5.3185,-5.3185,-5.3185,-5.3185,-5.3185,-5.3185,-5.3185,-5.3185,-5.3185,-5.3185,-5.3185,-5.3185,-5.3185,-5.3185,-5.3185,-5.3185,-5.3185,-5.3185,-5.3185,-5.3185,-5.3185,-5.3185,-5.3185,-5.3185,-5.3185,-5.3017,-5.2518,-5.2454,-5.2454,-5.2454,-5.2454,-5.2454,-5.2454,-5.2912,-5.2995,-5.2477,-5.2408,-5.2173,-5.1669,-5.1079,-5.0803,-5.0803,-5.0246,-5.0011,-5.0028,-5.073,-5.1092,-3.7538,-3.7913,-3.8051,-3.7791,-3.7844,-3.7948,-3.7948,-3.8034,-3.8135,-3.8303,-3.8219,-3.8381,0.0,0.0,0.0,0.0,0.0,0.0,0.0,0.0,0.0,0.0,0.0,0.0,0.0,0.0,0.0,0.0,0.0,0.0,0.0,0.0,0.0,-4.8306,-4.8306,-4.8306,-4.8306,-4.8306,-4.8306,-4.8306,-4.8306,-4.893,-5.0068,-5.0563,-5.1408,-5.2472,-5.2986,-5.3185,-5.3185,-5.3185,-5.3185,-5.3185,-5.3185,-5.3185,-5.3185,-5.3185,-5.3185,-5.3185,-5.3185,-5.3185,-5.3185,-5.3185,-5.3185,-5.3185,-5.3185,-5.3185,-5.3185,-5.3185,-5.3185,-5.3185,-5.3185,-5.3185,-5.3185,-5.3185,-5.3185,-5.3185,-5.3185,-5.3185,-5.3185,-5.3185,-5.3185,-5.3185,-5.3185,-5.3185,-5.3185,-5.3185,-5.3185,-5.3082,-5.2739,-5.2717,-5.2495,-5.1964,-5.1915,-5.1915,-5.1915,-5.1915,-5.1915,-5.1915,-5.2408,-5.245,-5.1909,-5.1571,-5.1325,-5.1094,-5.0595,-5.0302,-5.0302,-5.0576,-5.0683,-5.0718,-5.1429,-5.2063,-3.72,-3.7469,-3.7596,-3.7377,-3.7284,-3.7228,-3.7113,-3.7414,-3.7738,-3.7826,-3.8059,-3.8471,-3.9308,0.0,0.0,0.0,0.0,0.0,0.0,0.0,0.0,0.0,0.0,0.0,0.0,0.0,0.0,0.0,0.0,0.0,0.0,0.0,0.0,0.0,-4.8306,-4.8306,-4.8306,-4.8306,-4.8306,-4.8306,-4.8306,-4.8765,-4.9629,-5.0435,-5.1242,-5.2032,-5.2858,-5.3185,-5.3185,-5.3185,-5.3185,-5.3185,-5.3185,-5.3185,-5.3185,-5.3185,-5.3185,-5.3185,-5.3185,-5.3185,-5.3185,-5.3185,-5.3185,-5.3185,-5.3185,-5.3185,-5.3185,-5.3185,-5.3185,-5.3164,-5.2995,-5.306,-5.3164,-5.2995,-5.2934,-5.2934,-5.2934,-5.2806,-5.2783,-5.3143,-5.306,-5.2995,-5.3164,-5.306,-5.2934,-5.2934,-5.2806,-5.2563,-5.2179,-5.2132,-5.1939,-5.1398,-5.1184,-5.1158,-5.1339,-5.1365,-5.1365,-5.1365,-5.169,-5.1729,-5.1368,-5.1006,-5.0716,-5.0554,-5.0183,-5.0114,-5.0355,-5.0856,-5.1235,-5.1476,-5.2235,-5.2873,-3.6747,-3.6803,-3.6726,-3.686,-3.6783,-3.6603,-3.6276,-3.6553,-3.696,-3.723,-3.7926,-3.8494,-3.8512,-3.947,0.0,0.0,0.0,0.0,0.0,0.0,0.0,0.0,0.0,0.0,0.0,0.0,0.0,0.0,0.0,0.0,0.0,0.0,0.0,0.0,-4.8306,-4.8306,-4.8287,-4.8287,-4.8287,-4.8287,-4.8287,-4.8746,-4.9629,-5.0435,-5.1224,-5.2013,-5.2858,-5.3185,-5.3185,-5.3185,-5.3185,-5.3185,-5.3185,-5.3185,-5.3185,-5.3185,-5.3185,-5.3185,-5.3185,-5.3185,-5.3185,-5.3185,-5.3185,-5.3185,-5.3185,-5.3185,-5.3185,-5.3185,-5.3185,-5.306,-5.254,-5.2783,-5.3039,-5.2518,-5.2384,-5.2384,-5.2384,-5.1988,-5.1915,-5.2995,-5.2761,-5.2563,-5.3082,-5.2739,-5.2384,-5.2384,-5.1939,-5.1601,-5.1576,-5.1594,-5.1391,-5.0857,-5.0302,-5.0206,-5.0766,-5.0776,-5.0776,-5.0776,-5.0796,-5.0788,-5.0788,-5.0786,-5.0537,-5.0011,-5.0011,-5.0373,-5.1114,-5.1132,-5.1481,-5.2222,-5.3046,-5.3408,-3.6525,-3.66,-3.6646,-3.6468,0.0,0.0,-3.6084,-3.6433,-3.6786,-3.6847,-3.7038,-3.7607,-3.9057,0.0,0.0,0.0,0.0,0.0,0.0,0.0,0.0,0.0,0.0,0.0,0.0,0.0,0.0,0.0,0.0,0.0,0.0,0.0,0.0,0.0,-4.8306,-4.8152,-4.7816,-4.7816,-4.7632,-4.7331,-4.7331,-4.7798,-4.8728,-5.016,-5.093,-5.1224,-5.2601,-5.3185,-5.3185,-5.3185,-5.3185,-5.3185,-5.3185,-5.3185,-5.3185,-5.3185,-5.3185,-5.3185,-5.3185,-5.3185,-5.3185,-5.3185,-5.3185,-5.3185,-5.3185,-5.3185,-5.3121,-5.2739,-5.2649,-5.2499,-5.1988,-5.1964,-5.2036,-5.1891,-5.1842,-5.1842,-5.1842,-5.2012,-5.2132,-5.2084,-5.2268,-5.2338,-5.2108,-5.1939,-5.1842,-5.1842,-5.1701,-5.1449,-5.1096,-5.0712,-5.0397,-5.0246,-5.008,-5.0051,-5.0235,-5.0235,-5.0235,-5.0235,-5.0239,-5.025,-5.025,-5.0228,-5.0149,-4.9993,-5.0504,-5.0865,-5.1114,-5.2201,-5.2839,-5.3063,-5.3822,-5.4184,-3.6259,-3.6262,0.0,-3.6148,-3.6014,-3.591,-3.591,0.0,0.0,0.0,-3.6792,-3.7586,-3.8831,0.0,0.0,0.0,0.0,0.0,0.0,0.0,0.0,0.0,0.0,0.0,0.0,0.0,0.0,0.0,0.0,0.0,0.0,0.0,0.0,0.0,-4.7733,-4.7609,-4.7335,-4.7313,-4.7182,-4.6908,-4.6908,-4.72,-4.7809,-4.9302,-5.019,-5.0574,-5.2407,-5.3185,-5.3185,-5.3185,-5.3185,-5.3185,-5.3185,-5.3185,-5.3185,-5.3185,-5.3185,-5.3185,-5.3185,-5.3185,-5.3164,-5.2955,-5.3039,-5.3164,-5.2934,-5.3039,-5.3082,-5.2563,-5.2408,-5.2244,-5.1493,-5.1288,-5.1288,-5.1288,-5.1288,-5.1288,-5.1288,-5.1365,-5.1493,-5.1576,-5.1694,-5.1743,-5.1619,-5.1398,-5.1288,-5.1288,-5.1105,-5.0857,-5.0537,-5.0206,-5.0011,-5.0011,-5.0011,-5.0011,-5.0011,-5.0011,-5.0011,-5.0011,-5.0011,-5.0011,-5.0011,-5.0011,-5.0154,-5.041,-5.0853,-5.1382,-5.2028,-5.2959,-5.3546,-5.3856,-5.4305,-5.4512,-3.6019,-3.5927,-3.5839,-3.5954,-3.5866,0.0,-3.5773,-3.5773,-3.5795,-3.5795,0.0,-3.7993,0.0,0.0,0.0,0.0,0.0,0.0,0.0,0.0,0.0,0.0,0.0,0.0,0.0,0.0,0.0,0.0,0.0,0.0,0.0,0.0,0.0,-4.6908,-4.6908,-4.6886,-4.684,-4.684,-4.6817,0.0,-4.6771,-4.6747,-4.6765,-4.8163,-4.9296,-5.0228,-5.23,-5.3143,-5.306,-5.3121,-5.31,-5.306,-5.306,-5.3082,-5.3143,-5.3143,-5.3164,-5.3185,-5.3143,-5.3143,-5.3039,-5.2499,-5.2694,-5.3039,-5.2495,-5.2717,-5.3017,-5.2408,-5.225,-5.2012,-5.0991,-5.0739,-5.0739,-5.0739,-5.0739,-5.0739,-5.0739,-5.0387,-5.0359,-5.1288,-5.1105,-5.0937,-5.1391,-5.1052,-5.0739,-5.0739,-5.0302,-5.0011,-5.0011,-5.0011,-5.0011,-5.0011,-5.0011,-5.0011,-5.0011,-5.0011,-5.0011,-5.0011,-5.0011,-5.0028,-5.0109,-5.0114,-5.044,-5.1085,-5.1249,-5.2011,-5.3408,-5.3477,-5.3839,-5.4512,-5.4512,-5.4512,-3.6122,-3.5971,0.0,-3.5839,-3.5734,-3.5644,-3.5644,-3.5644,-3.5667,-3.5773,-3.648,0.0,0.0,0.0,0.0,0.0,0.0,0.0,0.0,0.0,0.0,0.0,0.0,0.0,0.0,0.0,0.0,0.0,0.0,0.0,0.0,0.0,0.0,-4.6908,-4.6908,-4.6724,-4.6339,-4.6339,-4.6094,0.0,-4.5658,-4.5606,-4.5494,-4.7768,-4.9582,-5.1017,-5.2556,-5.2717,-5.1988,-5.2408,-5.2338,-5.1939,-5.1939,-5.2203,-5.2563,-5.2563,-5.2846,-5.3143,-5.2717,-5.2563,-5.2477,-5.1939,-5.2132,-5.2454,-5.1939,-5.2132,-5.2361,-5.1398,-5.1131,-5.0973,-5.0331,-5.0178,-5.0178,-5.0178,-5.0178,-5.0178,-5.0178,-5.0397,-5.0575,-5.0387,-5.0575,-5.0712,-5.0415,-5.0263,-5.0178,-5.0178,-5.008,-5.0011,-5.0011,-5.0011,-5.0011,-5.0011,-5.0011,-5.0011,-5.0011,-5.0011,-5.0011,-5.0011,-5.0011,-5.0258,-5.0841,-5.0865,-5.0957,-5.1085,-5.2299,-5.308,-5.3408,-5.3994,-5.4356,-5.4512,-5.4512,-5.4512,-3.5927,-3.5817,0.0,-3.5689,0.0,-3.56,-3.56,-3.56,-3.5723,-3.6164,0.0,0.0,0.0,0.0,0.0,0.0,0.0,0.0,0.0,0.0,0.0,0.0,0.0,0.0,0.0,0.0,0.0,0.0,0.0,0.0,0.0,-4.6165,-4.6231,-4.6003,-4.6102,-4.5995,-4.5632,-4.5684,-4.5503,-4.5113,-4.5184,-4.5257,-4.5398,-4.7183,-4.8816,-5.0291,-5.1398,-5.1771,-5.1601,-5.1915,-5.1848,-5.1601,-5.1601,-5.1768,-5.2012,-5.2012,-5.2179,-5.2384,-5.2108,-5.2012,-5.1939,-5.1391,-5.1594,-5.1915,-5.1391,-5.1576,-5.1866,-5.1026,-5.0803,-5.0684,-5.0138,-5.0011,-5.0011,-5.0011,-5.0011,-5.0011,-5.0011,-5.0206,-5.0331,-5.0051,-5.0235,-5.0331,-5.0051,-5.0011,-5.0011,-5.0011,-5.0011,-5.0011,-5.0011,-5.0011,-5.0011,-5.0011,-5.0011,-5.0011,-5.0011,-5.0011,-5.016,-5.0506,-5.0541,-5.0858,-5.1605,-5.2015,-5.2214,-5.2214,-5.2984,-5.3577,-5.3942,-5.4322,-5.4512,-5.4512,-5.4512,-5.4512,-3.5667,-3.5622,-3.56,-3.56,-3.56,0.0,-3.56,-3.5701,-3.6011,0.0,0.0,0.0,0.0,0.0,0.0,0.0,0.0,0.0,0.0,0.0,0.0,0.0,0.0,0.0,0.0,0.0,0.0,0.0,0.0,0.0,-4.4978,-4.5442,-4.5494,-4.5005,-4.5238,-4.522,-4.5005,-4.5113,-4.5113,-4.4968,-4.4923,-4.5159,-4.5606,-4.636,-4.7563,-4.9077,-4.9982,-5.0752,-5.1339,-5.1398,-5.1416,-5.1339,-5.1339,-5.1391,-5.1449,-5.1449,-5.1518,-5.1594,-5.1475,-5.1449,-5.1391,-5.083,-5.1026,-5.1365,-5.083,-5.1044,-5.1365,-5.0803,-5.0657,-5.0564,-5.0109,-5.0011,-5.0011,-5.0011,-5.0011,-5.0011,-5.0011,-5.0011,-5.0011,-5.0011,-5.0011,-5.0011,-5.0011,-5.0011,-5.0011,-5.0011,-5.0011,-5.0011,-5.0011,-5.0011,-5.0011,-5.0011,-5.0011,-5.0011,-5.0011,-5.0126,-5.046,-5.1066,-5.1227,-5.162,-5.2386,-5.3049,-5.345,-5.3584,-5.3584,-5.3887,-5.4512,-5.4512,-5.4512,-5.4512,-5.4512,-5.4512,-3.5751,0.0,-3.56,0.0,-3.56,-3.56,0.0,0.0,-3.6677,0.0,0.0,0.0,0.0,0.0,0.0,0.0,0.0,0.0,0.0,0.0,0.0,0.0,0.0,0.0,0.0,0.0,0.0,0.0,0.0,0.0,-4.4831,-4.4896,-4.4951,-4.5005,-4.5032,-4.5049,-4.5005,-4.5005,-4.4951,-4.4831,-4.4709,-4.4803,-4.5096,-4.5091,-4.6295,-4.8416,-4.9785,-5.0337,-5.0263,-5.0712,-5.063,-5.0206,-5.0206,-5.0509,-5.091,-5.091,-5.121,-5.1525,-5.1052,-5.091,-5.0803,-5.0274,-5.0481,-5.0803,-5.0274,-5.0481,-5.082,-5.0263,-5.0109,-5.008,-5.004,-5.0011,-5.0011,-5.0011,-5.0011,-5.0011,-5.0011,-5.0011,-5.0011,-5.0011,-5.0011,-5.0011,-5.0011,-5.0011,-5.0011,-5.0011,-5.0011,-5.0011,-5.0011,-5.0011,-5.0011,-5.0011,-5.0011,-5.0011,-5.0011,-5.0576,-5.099,-5.1102,-5.1703,-5.2412,-5.3218,-5.3344,-5.3702,-5.4359,-5.4356,-5.4408,-5.4512,-5.4512,-5.4512,-5.4512,-5.4512,-5.4512,-3.5667,-3.5644,-3.56,0.0,-3.56,-3.5718,-3.6163,0.0,0.0,0.0,0.0,0.0,0.0,0.0,0.0,0.0,0.0,0.0,0.0,0.0,0.0,0.0,0.0,0.0,0.0,0.0,0.0,0.0,0.0,-4.4643,-4.4682,-4.4748,-4.4776,-4.4793,-4.4913,-4.494,-4.4793,-4.4858,-4.4831,-4.4682,-4.4626,-4.4654,-4.4793,-4.4776,-4.5668,-4.7199,-4.8187,-4.8823,-4.9258,-4.9913,-4.9999,-4.9742,-4.9935,-5.0034,-5.0097,-5.0285,-5.0436,-5.0512,-5.0397,-5.0359,-5.0302,-5.008,-5.0149,-5.0302,-5.008,-5.0149,-5.0302,-5.0051,-5.0011,-5.0011,-5.0011,-5.0011,-5.0011,-5.0011,-5.0011,-5.0011,-5.0011,-5.0011,-5.0011,-5.0011,-5.0011,-5.0011,-5.0011,-5.0011,-5.0011,-5.0011,-5.0011,-5.0011,-5.0011,-5.0011,-5.0011,-5.0011,-5.0011,-5.0154,-5.0573,-5.0902,-5.1489,-5.2327,-5.2688,-5.3235,-5.3972,-5.4006,-5.4158,-5.4494,-5.4512,-5.4512,-5.4512,-5.4512,-5.4512,-5.4512,-5.4512,-5.4512,0.0,0.0,-3.56,-3.56,-3.5752,-3.6062,0.0,0.0,0.0,0.0,0.0,0.0,0.0,0.0,0.0,0.0,0.0,0.0,0.0,0.0,0.0,0.0,0.0,0.0,0.0,0.0,0.0,0.0,0.0,-4.4615,-4.4615,-4.4709,-4.4709,-4.4598,-4.4776,-4.4803,-4.4615,-4.4709,-4.4709,-4.4615,-4.4615,-4.4615,-4.4598,-4.4709,-4.5175,-4.596,-4.6834,-4.7717,-4.8603,-4.9358,-4.959,-4.9518,-4.9789,-4.9713,-4.9518,-4.9772,-4.9801,-4.9708,-4.986,-4.9964,-5.0011,-5.0011,-5.0011,-5.0011,-5.0011,-5.0011,-5.0011,-5.0011,-5.0011,-5.0011,-5.0011,-5.0011,-5.0011,-5.0011,-5.0011,-5.0011,-5.0011,-5.0011,-5.0011,-5.0011,-5.0011,-5.0011,-5.0011,-5.0011,-5.0011,-5.0011,-5.0011,-5.0011,-5.0011,-5.0011,-5.0011,-5.0011,-5.0154,-5.0499,-5.1063,-5.1451,-5.2178,-5.3335,-5.358,-5.3922,-5.4477,-5.4512,-5.4512,-5.4512,-5.4512,-5.4512,-5.4512,-5.4512,-5.4512,-5.4512,-5.4512,-5.4512,0.0,-3.56,0.0,-3.56,-3.618,0.0,0.0,0.0,0.0,0.0,0.0,0.0,0.0,0.0,0.0,0.0,0.0,0.0,0.0,0.0,0.0,0.0,0.0,0.0,0.0,0.0,0.0,0.0,0.0,-4.4615,-4.4615,-4.4615,-4.4615,-4.4615,-4.4598,-4.4598,-4.4615,-4.4615,-4.4615,-4.4615,-4.4615,-4.4615,-4.4615,-4.4615,-4.4699,-4.4967,-4.6527,-4.766,-4.8475,-4.921,-4.9518,-4.9518,-4.9518,-4.9518,-4.9518,-4.9518,-4.9607,-4.9708,-4.9708,-4.986,-5.0011,-5.0011,-5.0011,-5.0011,-5.0011,-5.0011,-5.0011,-5.0011,-5.0011,-5.0011,-5.0011,-5.0011,-5.0011,-5.0011,-5.0011,-5.0011,-5.0011,-5.0011,-5.0011,-5.0011,-5.0011,-5.0011,-5.0011,-5.0011,-5.0011,-5.0011,-5.0011,-5.0011,-5.0011,-5.0011,-5.0011,-5.0011,-5.0624,-5.1063,-5.1095,-5.2433,-5.3301,-5.3385,-5.4071,-5.446,-5.4512,-5.4512,-5.4512,-5.4512,-5.4512,-5.4512,-5.4512,-5.4512,-5.4512,-5.4512,-5.4512,-5.4512,0.0,0.0,0.0,-3.6231,-3.6592,-3.7049,0.0,0.0,0.0,0.0,0.0,0.0,0.0,0.0,0.0,0.0,0.0,0.0,0.0,0.0,0.0,0.0,0.0,0.0,0.0,0.0,0.0,0.0,0.0,0.0,-4.4615,-4.4615,-4.4615,-4.4615,-4.4615,-4.4615,-4.4615,-4.4615,-4.4615,-4.4615,-4.4615,-4.4615,-4.4615,-4.4615,-4.4643,-4.4732,-4.5778,-4.6731,-4.7566,-4.8298,-4.8834,-4.9216,-4.9428,-4.9367,-4.9216,-4.9428,-4.9458,-4.9411,-4.9619,-4.9755,-4.983,-4.9964,-5.0011,-5.0011,-5.0011,-5.0011,-5.0011,-5.0011,-5.0011,-5.0011,-5.0011,-5.0011,-5.0011,-5.0011,-5.0011,-5.0011,-5.0011,-5.0011,-5.0011,-5.0011,-5.0011,-5.0011,-5.0011,-5.0011,-5.0011,-5.0011,-5.0011,-5.0011,-5.0011,-5.0011,-5.0183,-5.0666,-5.0947,-5.1511,-5.2468,-5.3067,-5.3618,-5.4074,-5.4353,-5.4512,-5.4512,-5.4512,-5.4512,-5.4512,-5.4512,-5.4512,-5.4512,-5.4512,-5.4512,-5.4512,-5.4512,-5.4512,-3.5943,0.0,0.0,0.0,0.0,-3.7811,0.0,0.0,0.0,0.0,0.0,0.0,0.0,0.0,0.0,0.0,0.0,0.0,0.0,0.0,0.0,0.0,0.0,0.0,0.0,0.0,0.0,0.0,0.0,0.0,-4.4615,-4.4615,-4.4615,-4.4615,-4.4615,-4.4615,-4.4615,-4.4615,-4.4615,-4.4615,-4.4615,-4.4615,-4.4615,-4.4615,-4.4615,-4.4632,-4.5111,-4.593,-4.6983,-4.7713,-4.8416,-4.9032,-4.9246,-4.9185,-4.9032,-4.9246,-4.9277,-4.9229,-4.9471,-4.959,-4.9649,-4.9772,-4.9848,-4.9848,-4.9848,-4.9848,-4.9848,-4.9848,-4.9848,-4.9848,-4.9848,-4.9848,-4.9848,-4.9848,-4.9848,-4.9848,-4.9848,-4.9906,-5.0011,-5.0011,-5.0011,-5.0011,-5.0011,-5.0011,-5.0011,-5.0011,-5.0011,-5.0011,-5.0011,-5.0235,-5.0562,-5.1063,-5.1563,-5.2287,-5.3318,-5.3615,-5.3994,-5.4477,-5.4512,-5.4512,-5.4512,-5.4512,-5.4512,-5.4512,-5.4431,-5.4399,-5.4399,-5.448,-5.4512,-5.4512,-5.4448,-5.4385,0.0,0.0,0.0,0.0,0.0,0.0,-3.9022,0.0,0.0,0.0,0.0,0.0,0.0,0.0,0.0,0.0,0.0,0.0,0.0,0.0,0.0,0.0,0.0,0.0,0.0,0.0,0.0,0.0,0.0,-4.4615,-4.4615,-4.4615,-4.4615,-4.4615,-4.4615,-4.4615,-4.4615,-4.4615,-4.4615,-4.4615,-4.4615,-4.4615,-4.4615,-4.4615,-4.4615,-4.4615,-4.4615,-4.5427,-4.6819,-4.7581,-4.8308,-4.8968,-4.9001,-4.9001,-4.9001,-4.9001,-4.9094,-4.9199,-4.9199,-4.932,-4.9488,-4.9518,-4.9518,-4.9518,-4.9518,-4.9518,-4.9518,-4.9518,-4.9518,-4.9518,-4.9518,-4.9518,-4.9518,-4.9518,-4.9518,-4.9518,-4.9518,-4.9742,-4.9982,-5.0011,-5.0011,-5.0011,-5.0011,-5.0011,-5.0011,-5.0011,-5.0011,-5.0011,-5.0011,-5.0649,-5.1132,-5.1119,-5.2494,-5.3422,-5.3418,-5.4094,-5.4512,-5.4512,-5.4512,-5.4512,-5.4512,-5.4512,-5.4512,-5.4512,-5.4303,-5.419,-5.419,-5.4367,-5.448,-5.448,-5.4303,-5.411,-3.7438,0.0,0.0,0.0,0.0,0.0,-3.9673,-3.996,0.0,0.0,0.0,0.0,0.0,0.0,0.0,0.0,0.0,0.0,0.0,0.0,0.0,0.0,0.0,0.0,0.0,0.0,0.0,0.0,-4.4147,-4.4615,-4.4615,-4.4615,-4.4615,-4.4615,-4.4615,-4.4615,-4.4615,-4.4615,-4.4615,-4.4615,-4.4615,-4.4615,-4.4615,-4.4615,-4.4615,-4.4615,-4.4615,-4.5111,-4.6058,-4.6802,-4.7547,-4.8274,-4.8798,-4.9001,-4.9001,-4.9001,-4.9032,-4.9063,-4.9168,-4.9229,-4.932,-4.9458,-4.9518,-4.9518,-4.9518,-4.9518,-4.9518,-4.9518,-4.9518,-4.9518,-4.9518,-4.9518,-4.9518,-4.9518,-4.9518,-4.9518,-4.9518,-4.9577,-4.9666,-4.9755,-4.9784,-4.983,-4.9964,-5.0011,-5.0011,-5.0011,-5.0011,-5.0011,-5.0011,-5.0624,-5.13,-5.1855,-5.2795,-5.3615,-5.4132,-5.4374,-5.4512,-5.4512,-5.4512,-5.4512,-5.4512,-5.4367,-5.4271,-5.4271,-5.4143,-5.4045,-5.4045,-5.411,-5.4143,-5.4143,-5.4078,-5.3948,-3.801,-3.8143,-3.8353,-3.9001,0.0,0.0,-3.9859,-3.9986,-3.9986,0.0,0.0,0.0,0.0,0.0,0.0,0.0,0.0,0.0,0.0,0.0,0.0,0.0,0.0,0.0,0.0,0.0,0.0,-4.3826,-4.4333,-4.4615,-4.4615,-4.4615,-4.4615,-4.4615,-4.4615,-4.4615,-4.4615,-4.4615,-4.4615,-4.4615,-4.4615,-4.4615,-4.4615,-4.4615,-4.4615,-4.4615,-4.4615,-4.4823,-4.5314,-4.6363,-4.7242,-4.7956,-4.8714,-4.9001,-4.9001,-4.9001,-4.9001,-4.9001,-4.9094,-4.9124,-4.9138,-4.9246,-4.9307,-4.9307,-4.9307,-4.9307,-4.9307,-4.9307,-4.9307,-4.9307,-4.9307,-4.9307,-4.9307,-4.9307,-4.9307,-4.9307,-4.9307,-4.9307,-4.9367,-4.956,-4.9619,-4.9666,-4.9772,-4.9772,-4.9801,-4.986,-4.986,-4.9975,-5.0293,-5.1016,-5.1722,-5.2382,-5.3172,-5.3808,-5.4237,-5.4289,-5.4289,-5.4289,-5.4289,-5.4289,-5.4289,-5.4175,-5.411,-5.411,-5.3948,-5.3866,-5.3767,-5.3932,-5.3948,-5.3882,-5.3882,-5.3783,-3.853,-3.8698,-3.8874,-3.9527,0.0,0.0,-3.9729,-3.9781,-3.9849,0.0,0.0,0.0,0.0,0.0,0.0,0.0,0.0,0.0,0.0,0.0,0.0,0.0,0.0,0.0,0.0,-4.2078,-4.2783,-4.4423,-4.4587,-4.4615,-4.4615,-4.4615,-4.4615,-4.4615,-4.4615,-4.4615,-4.4615,-4.4615,-4.4615,-4.4615,-4.4615,-4.4615,-4.4615,-4.4615,-4.4615,-4.4615,-4.4615,-4.4615,-4.4716,-4.6092,-4.7107,-4.7838,-4.868,-4.9001,-4.9001,-4.9001,-4.9001,-4.9001,-4.9001,-4.9001,-4.9001,-4.9001,-4.9001,-4.9001,-4.9001,-4.9001,-4.9001,-4.9001,-4.9001,-4.9001,-4.9001,-4.9001,-4.9001,-4.9001,-4.9001,-4.9001,-4.9001,-4.9001,-4.9094,-4.9398,-4.9458,-4.9471,-4.9488,-4.9518,-4.9547,-4.9649,-4.9759,-5.0037,-5.0679,-5.1542,-5.2255,-5.2743,-5.3532,-5.398,-5.398,-5.398,-5.398,-5.398,-5.398,-5.398,-5.398,-5.398,-5.3948,-5.3948,-5.3783,-5.3634,-5.3501,-5.38,-5.3849,-5.3684,-5.3684,-5.3601,0.0,0.0,0.0,0.0,0.0,0.0,-3.9703,-3.9729,-3.9703,0.0,0.0,0.0,0.0,0.0,0.0,0.0,0.0,0.0,0.0,0.0,0.0,0.0,0.0,0.0,0.0,-4.1969,-4.2711,-4.4249,-4.4514,-4.4615,-4.4615,-4.4615,-4.4615,-4.4615,-4.4615,-4.4615,-4.4615,-4.4615,-4.4615,-4.4615,-4.4615,-4.4615,-4.4615,-4.4615,-4.4615,-4.4615,-4.4615,-4.4615,-4.4682,-4.5551,-4.6346,-4.7141,-4.8477,-4.9001,-4.9001,-4.9001,-4.9001,-4.9001,-4.9001,-4.9001,-4.9001,-4.9001,-4.9001,-4.9001,-4.9001,-4.9001,-4.9001,-4.9001,-4.9001,-4.9001,-4.9001,-4.9001,-4.9001,-4.9001,-4.9001,-4.9001,-4.9001,-4.9001,-4.9001,-4.9094,-4.9168,-4.932,-4.9488,-4.9518,-4.9518,-4.9547,-5.0037,-5.0466,-5.061,-5.1814,-5.2688,-5.279,-5.3528,-5.398,-5.398,-5.398,-5.398,-5.398,-5.398,-5.398,-5.398,-5.3849,-5.375,-5.375,-5.3601,-5.3534,-5.3501,-5.3568,-5.3568,-5.3517,-5.3517,-5.3534,0.0,0.0,0.0,-3.9422,0.0,0.0,0.0,-3.9547,-3.9563,0.0,0.0,0.0,0.0,0.0,0.0,0.0,0.0,0.0,0.0,0.0,0.0,0.0,0.0,0.0,0.0,-4.1281,-4.202,-4.3637,-4.4294,-4.4542,-4.4468,-4.4542,-4.4542,-4.444,-4.4542,-4.4615,-4.4615,-4.4615,-4.4615,-4.4615,-4.4615,-4.4615,-4.4615,-4.4615,-4.4615,-4.4615,-4.4615,-4.4615,-4.4666,-4.5399,-4.6126,-4.6904,-4.802,-4.868,-4.9001,-4.9001,-4.9001,-4.9001,-4.9001,-4.9001,-4.9001,-4.9001,-4.9001,-4.9001,-4.9001,-4.9001,-4.9001,-4.9001,-4.9001,-4.9001,-4.9001,-4.9001,-4.9001,-4.9001,-4.9001,-4.9001,-4.9001,-4.9001,-4.9001,-4.9001,-4.9063,-4.9124,-4.9246,-4.9246,-4.926,-4.932,-5.0022,-5.0635,-5.1008,-5.2004,-5.2826,-5.3112,-5.3516,-5.3751,-5.3751,-5.3751,-5.3751,-5.3751,-5.3751,-5.3751,-5.3751,-5.3634,-5.3601,-5.3601,-5.3517,-5.3501,-5.3501,-5.3501,-5.3501,-5.3501,-5.3501,-5.3501,0.0,0.0,0.0,0.0,0.0,-3.9432,0.0,0.0,0.0,0.0,0.0,0.0,0.0,0.0,0.0,0.0,0.0,0.0,0.0,0.0,0.0,0.0,0.0,0.0,0.0,-4.0727,-4.1481,-4.3081,-4.3911,-4.4316,-4.4293,-4.4468,-4.4514,-4.431,-4.4514,-4.4615,-4.4615,-4.4615,-4.4615,-4.4615,-4.4615,-4.4615,-4.4615,-4.4615,-4.4615,-4.4615,-4.4615,-4.4615,-4.4649,-4.5229,-4.6007,-4.687,-4.7631,-4.8359,-4.9001,-4.9001,-4.9001,-4.9001,-4.9001,-4.9001,-4.9001,-4.9001,-4.9001,-4.9001,-4.9001,-4.9001,-4.9001,-4.9001,-4.9001,-4.9001,-4.9001,-4.9001,-4.9001,-4.9001,-4.9001,-4.9001,-4.9001,-4.9001,-4.9001,-4.9001,-4.9001,-4.9001,-4.9001,-4.9001,-4.9066,-4.9325,-5.0042,-5.0816,-5.1563,-5.2315,-5.296,-5.3433,-5.3501,-5.3501,-5.3501,-5.3501,-5.3501,-5.3501,-5.3501,-5.3501,-5.3501,-5.3501,-5.3501,-5.3501,-5.3501,-5.3501,-5.3501,-5.3501,-5.3501,-5.3501,-5.3501,-5.3501,0.0,0.0,0.0,0.0,-3.9299,0.0,0.0,0.0,0.0,0.0,0.0,0.0,0.0,0.0,0.0,0.0,0.0,0.0,0.0,0.0,0.0,0.0,0.0,0.0,0.0,0.0,-4.205,-4.3115,-4.3294,-4.3631,-4.4276,-4.4468,-4.4514,-4.431,-4.4514,-4.4615,-4.4615,-4.4615,-4.4615,-4.4615,-4.4615,-4.4615,-4.4615,-4.4615,-4.4615,-4.4615,-4.4615,-4.4615,-4.4615,-4.4699,-4.5534,-4.687,-4.7631,-4.8359,-4.9001,-4.9001,-4.9001,-4.9001,-4.9001,-4.9001,-4.9001,-4.9001,-4.9001,-4.9001,-4.9001,-4.9001,-4.9001,-4.9001,-4.9001,-4.9001,-4.9001,-4.9001,-4.9001,-4.9001,-4.9001,-4.9001,-4.9001,-4.9001,-4.9001,-4.9001,-4.9001,-4.9001,-4.9001,-4.9001,-4.9221,-4.9895,-5.0635,-5.1387,-5.21,-5.2907,-5.3416,-5.3501,-5.3501,-5.3501,-5.3501,-5.3501,-5.3501,-5.3501,-5.3501,-5.3501,-5.3501,-5.3501,-5.3501,-5.3501,-5.3501,-5.3501,-5.3501,-5.3501,-5.3501,-5.3501,-5.3501,-5.3501,0.0,0.0,0.0,0.0,0.0,0.0,-3.9272,0.0,-3.9299,0.0,0.0,0.0,0.0,0.0,0.0,0.0,0.0,0.0,0.0,0.0,0.0,0.0,0.0,0.0,0.0,0.0,0.0,0.0,-4.2573,-4.3211,-4.3416,-4.3977,-4.427,-4.4184,-4.4355,-4.4468,-4.4615,-4.4615,-4.4615,-4.4615,-4.4615,-4.4615,-4.4615,-4.4468,-4.4468,-4.4598,-4.4468,-4.4497,-4.4615,-4.4615,-4.5213,-4.6227,-4.6972,-4.797,-4.9001,-4.9001,-4.9001,-4.9001,-4.9001,-4.9001,-4.9001,-4.9001,-4.9001,-4.9001,-4.9001,-4.9001,-4.9001,-4.9001,-4.9001,-4.9001,-4.9001,-4.9001,-4.9001,-4.9001,-4.9001,-4.9001,-4.9001,-4.9001,-4.9001,-4.9001,-4.9001,-4.9001,-4.9001,-4.9001,-4.9255,-4.9982,-5.0735,-5.1475,-5.2221,-5.2991,-5.3501,-5.3501,-5.3501,-5.3501,-5.3501,-5.3501,-5.3501,-5.3501,-5.3501,-5.3501,-5.3501,-5.3501,-5.3501,-5.3501,-5.3501,-5.3501,-5.3501,-5.3501,-5.3501,-5.3501,-5.3501,-5.3501,-3.9202,0.0,0.0,0.0,0.0,0.0,0.0,0.0,0.0,0.0,0.0,0.0,0.0,0.0,0.0,-3.9299,0.0,0.0,0.0,0.0,0.0,0.0,0.0,0.0,0.0,0.0,0.0,-4.0577,-4.1688,-4.249,-4.2794,-4.3425,-4.3851,-4.4039,-4.4196,-4.4367,-4.4514,-4.457,-4.4615,-4.4615,-4.4615,-4.4615,-4.4598,-4.4395,-4.4367,-4.4514,-4.4367,-4.4367,-4.4542,-4.457,-4.5026,-4.5771,-4.6498,-4.7581,-4.8731,-4.8934,-4.9001,-4.9001,-4.9001,-4.9001,-4.9001,-4.9001,-4.9001,-4.9001,-4.9001,-4.9001,-4.9001,-4.9001,-4.9001,-4.9001,-4.9001,-4.9001,-4.9001,-4.9001,-4.9001,-4.9001,-4.9001,-4.9001,-4.9001,-4.9001,-4.9001,-4.9001,-4.9001,-4.9001,-4.9323,-5.0253,-5.0862,-5.1554,-5.2515,-5.3128,-5.3501,-5.3501,-5.3501,-5.3501,-5.3501,-5.3501,-5.3501,-5.3501,-5.3501,-5.3501,-5.3501,-5.3501,-5.3501,-5.3501,-5.3501,-5.3501,-5.3501,-5.3501,-5.3501,-5.3501,-5.3501,-5.3501,0.0,0.0,0.0,-3.9245,0.0,0.0,0.0,0.0,-3.9299,0.0,0.0,0.0,0.0,0.0,-3.9299,-3.9299,-3.9299,0.0,0.0,0.0,0.0,0.0,0.0,0.0,0.0,0.0,0.0,-4.0544,-4.0644,-4.1294,-4.2715,-4.2969,-4.3304,-4.391,-4.4155,-4.431,-4.431,-4.4497,-4.4615,-4.4615,-4.4615,-4.4615,-4.4598,-4.4395,-4.431,-4.431,-4.431,-4.431,-4.4338,-4.4514,-4.5026,-4.5771,-4.6498,-4.7276,-4.8007,-4.8748,-4.9001,-4.9001,-4.9001,-4.9001,-4.9001,-4.9001,-4.9001,-4.9001,-4.9001,-4.9001,-4.9001,-4.9001,-4.9001,-4.9001,-4.9001,-4.9001,-4.9001,-4.9001,-4.9001,-4.9001,-4.9001,-4.9001,-4.9001,-4.9001,-4.9001,-4.9001,-4.9001,-4.9001,-4.9492,-5.0963,-5.1168,-5.1758,-5.3264,-5.3484,-5.3501,-5.3501,-5.3501,-5.3501,-5.3501,-5.3501,-5.3501,-5.3501,-5.3501,-5.3501,-5.3501,-5.3501,-5.3501,-5.3501,-5.3501,-5.3501,-5.3501,-5.3501,-5.3501,-5.3501,-5.3501,-5.3501,0.0,0.0,-3.8794,-3.904,0.0,0.0,0.0,0.0,0.0,0.0,0.0,0.0,0.0,-3.9299,-3.9299,-3.9299,-3.9299,-3.9299,0.0,0.0,0.0,0.0,0.0,0.0,0.0,0.0,0.0,-3.9727,-4.0192,-4.0707,-4.1205,-4.2147,-4.2824,-4.3148,-4.3747,-4.4126,-4.431,-4.4367,-4.4395,-4.4395,-4.4395,-4.4355,-4.4241,-4.4114,-4.4068,-4.4155,-4.3562,-4.3663,-4.4265,-4.3902,-4.4214,-4.5077,-4.6312,-4.6955,-4.7327,-4.8562,-4.9001,-4.9001,-4.9001,-4.9001,-4.9001,-4.9001,-4.9001,-4.9001,-4.9001,-4.9001,-4.9001,-4.9001,-4.9001,-4.9001,-4.9001,-4.9001,-4.9001,-4.9001,-4.9001,-4.9001,-4.9001,-4.9001,-4.9001,-4.9001,-4.9001,-4.9001,-4.9001,-4.9407,-5.0067,-5.1065,-5.1185,-5.1775,-5.3315,-5.3501,-5.3501,-5.3501,-5.3501,-5.3501,-5.3501,-5.3501,-5.3501,-5.3501,-5.3501,-5.3501,-5.3501,-5.3501,-5.3501,-5.3501,-5.3501,-5.3501,-5.3501,-5.3501,-5.3501,-5.3501,-5.3501,-5.3501,-3.8711,-3.8672,0.0,-3.886,-3.8794,0.0,-3.904,0.0,0.0,0.0,0.0,0.0,0.0,0.0,-3.9272,-3.9202,-3.9245,-3.9299,0.0,-3.9299,0.0,0.0,0.0,0.0,0.0,0.0,-3.9299,-3.9299,-3.9746,-4.0127,0.0,0.0,-4.2282,-4.2679,-4.3469,-4.3969,-4.4155,-4.4253,-4.4281,-4.4224,-4.4281,-4.4224,-4.4097,-4.3956,-4.3956,-4.3981,-4.3155,-4.3306,-4.4109,-4.3456,-4.371,-4.4649,-4.6106,-4.6756,-4.6972,-4.846,-4.9001,-4.9001,-4.9001,-4.9001,-4.9001,-4.9001,-4.9001,-4.9001,-4.9001,-4.9001,-4.9052,-4.9323,-4.9204,-4.9069,-4.9323,-4.9204,-4.9001,-4.9001,-4.9001,-4.9001,-4.9001,-4.9001,-4.9001,-4.9001,-4.9001,-4.9001,-4.9001,-4.961,-5.0338,-5.1099,-5.1419,-5.2061,-5.3331,-5.3501,-5.3501,-5.3501,-5.3501,-5.3501,-5.3501,-5.3501,-5.3501,-5.3501,-5.3501,-5.3501,-5.3501,-5.3501,-5.3501,-5.3501,-5.3501,-5.3501,-5.3501,-5.3501,-5.3501,-5.3501,-5.3501,-5.3501]}]]